GFSCGP_700_spd_000.txt.gz
Wind_Speed
5 3 4 2 2 3 3 3 2 3 5 1 1 2 2 3 9 11 10 9 11 19 16 15 13 13 15 15 15 14 19 19 22 23 21 23 26 26 26 26 27 30 32 36
3 3 3 3 1 2 3 2 1 3 3 1 1 2 4 6 8 9 7 8 8 12 14 14 14 13 12 14 15 15 19 22 23 23 26 27 29 31 29 31 32 34 37 40
6 7 4 3 4 4 5 1 3 4 5 4 5 3 3 6 6 5 4 4 8 11 11 10 9 10 11 12 14 17 21 23 24 26 29 31 35 35 36 36 37 36 40 39
6 5 2 4 4 4 2 5 8 7 4 6 8 6 2 5 4 6 6 7 8 8 7 7 7 10 14 14 16 18 23 26 28 30 32 35 39 41 42 43 42 44 44 40
3 2 3 4 5 7 3 10 8 6 6 4 2 7 4 5 3 3 9 9 7 7 7 7 11 14 17 17 19 23 27 30 32 34 36 40 41 41 46 50 52 48 43 36
2 0 2 5 8 5 8 8 2 2 3 5 2 4 6 4 2 3 9 10 11 10 10 13 16 18 20 22 25 28 29 31 36 37 41 42 44 41 47 46 45 42 38 42
4 2 3 4 5 5 9 2 2 2 4 1 2 5 1 4 8 9 11 12 12 12 14 19 19 21 21 24 26 28 33 36 38 41 43 48 50 43 42 43 44 44 45 47
3 2 3 6 4 3 8 7 3 3 2 5 6 3 4 6 8 11 12 13 15 18 21 16 16 19 22 23 28 30 35 44 48 47 45 42 43 42 43 45 46 45 47 52
3 2 3 6 4 5 3 4 4 2 3 3 2 3 7 9 4 10 12 17 19 17 15 16 20 24 28 34 38 38 40 44 43 43 44 42 44 44 44 46 47 48 55 57
4 2 2 3 3 3 2 2 2 3 3 4 4 9 9 7 7 11 15 14 18 17 18 21 25 31 33 33 35 37 38 41 45 44 44 45 45 47 49 49 51 54 56 56
4 1 2 2 1 2 2 1 1 1 1 3 4 6 2 4 6 9 11 15 19 22 22 24 26 26 30 32 33 38 42 42 43 44 42 45 45 45 47 50 54 55 50 44
5 2 1 3 4 5 5 3 2 2 2 5 4 10 1 2 7 15 20 14 20 24 22 23 30 32 36 41 45 43 39 41 44 39 38 36 41 47 51 54 54 47 41 37
6 2 2 1 3 5 4 4 7 9 6 10 6 5 5 14 19 17 17 24 24 27 28 33 33 38 43 46 40 38 44 42 35 33 37 42 47 51 52 51 45 40 36 34
5 4 4 6 7 8 9 10 10 10 10 13 20 23 19 17 18 17 19 25 19 23 28 36 41 44 43 38 41 39 38 35 36 40 42 44 49 50 49 44 40 37 35 31
5 6 11 11 13 17 16 14 14 18 18 16 16 19 18 19 22 24 26 22 25 32 39 43 43 44 40 42 39 37 35 34 36 41 45 48 49 47 45 40 38 38 37 35
10 8 14 16 14 14 18 22 12 6 12 15 17 20 14 26 28 25 26 26 32 43 44 47 45 35 37 36 33 32 35 37 40 44 46 47 46 43 40 38 37 36 33 32
10 8 9 7 11 22 12 4 6 12 11 13 12 13 24 21 22 25 34 36 40 43 43 42 38 34 35 33 33 33 36 40 42 45 46 46 44 41 37 35 32 30 30 30
8 10 9 8 14 3 5 17 21 13 10 11 17 18 24 19 23 29 42 41 41 38 41 41 36 31 31 29 32 34 37 41 43 44 44 43 41 38 34 32 31 30 33 36
6 8 6 3 5 20 11 3 9 11 17 20 20 21 30 26 33 29 41 37 36 43 39 32 30 27 29 32 35 36 40 42 44 44 41 37 38 39 32 33 33 36 38 36
7 10 10 8 5 5 3 17 19 15 15 14 21 34 32 37 37 37 33 36 41 29 30 27 27 28 33 36 39 41 44 45 44 41 38 34 33 32 33 33 35 37 36 35
12 13 13 11 10 12 15 13 10 9 13 30 33 34 28 33 36 42 37 31 28 29 27 28 31 37 38 38 40 43 45 45 43 39 36 32 31 30 31 33 35 35 34 34
12 7 9 7 8 8 6 16 21 26 33 35 35 34 33 40 38 33 31 28 25 28 32 35 39 42 41 40 42 43 44 43 40 35 32 30 28 29 31 33 33 33 34 34
13 11 14 13 18 21 27 27 28 28 31 34 35 33 40 39 35 32 30 30 33 36 40 44 47 46 40 43 44 43 41 39 34 34 30 27 27 29 31 33 32 32 32 35
24 24 28 26 29 19 23 28 33 31 35 33 31 40 41 37 33 34 34 34 38 42 47 49 44 42 43 43 43 38 39 35 35 33 27 25 28 29 30 30 30 30 33 35
31 28 33 27 23 23 25 30 35 30 34 34 37 38 34 30 31 34 36 38 43 46 45 43 44 45 45 43 41 38 31 35 37 28 24 26 27 29 28 27 27 28 32 36
27 25 25 26 20 25 29 27 27 38 37 33 33 29 27 31 35 37 39 44 46 44 43 44 45 43 44 42 36 32 31 34 29 20 23 26 27 26 25 23 25 28 30 35

GFSCGP_700_spd_003.txt.gz
Wind_Speed
4 6 2 1 3 4 1 4 5 4 5 3 5 4 2 4 4 5 6 8 11 11 15 23 18 19 18 18 14 11 21 27 23 24 25 27 27 27 31 31 36 36 37 37
4 4 2 1 2 2 3 4 3 5 4 1 4 6 3 4 7 6 4 4 7 14 15 18 20 19 17 20 14 21 25 24 23 27 31 29 30 31 34 34 39 37 40 39
2 4 4 1 3 4 4 3 3 5 6 8 7 10 7 4 7 7 7 9 10 8 7 15 18 17 14 13 14 19 22 24 26 30 33 34 32 33 36 41 40 42 44 43
4 5 1 3 4 5 6 4 8 8 7 10 11 5 10 8 5 5 5 7 7 6 6 6 10 10 11 15 18 22 26 29 32 33 36 33 37 43 45 46 48 50 47 46
2 2 3 2 3 4 4 8 6 6 8 9 9 12 11 10 7 3 3 3 3 10 10 10 10 13 16 19 21 25 30 34 36 39 37 38 44 43 43 48 49 45 39 42
4 1 0 3 4 2 5 6 4 3 4 7 2 7 11 7 5 4 2 0 2 6 12 12 14 18 21 23 25 30 33 38 37 38 45 50 50 44 41 43 46 45 45 45
5 2 2 3 2 3 6 5 5 3 4 2 2 7 2 3 4 5 3 3 4 14 13 15 17 17 24 23 25 28 29 31 35 41 46 47 46 49 48 47 46 46 47 50
3 5 3 5 3 3 6 5 4 4 3 5 4 5 7 6 2 3 3 6 7 14 19 18 14 15 16 24 26 28 30 36 41 40 41 45 45 43 45 46 46 48 51 54
0 2 2 4 4 4 5 3 1 0 1 3 6 4 6 6 2 1 4 5 6 5 5 8 10 18 29 31 36 37 34 33 37 42 44 45 45 49 49 50 52 52 52 54
1 1 1 4 4 6 3 2 4 3 3 4 3 13 7 6 4 5 6 9 9 9 9 12 17 21 26 28 34 36 38 44 48 45 43 47 50 47 48 48 48 52 56 58
3 2 2 5 2 3 4 2 3 3 3 4 5 5 3 2 3 7 10 13 12 12 15 19 21 28 29 29 29 38 44 47 43 46 49 53 48 44 44 50 53 56 55 53
5 2 1 1 5 3 1 2 2 2 2 4 4 10 1 1 5 10 10 14 13 14 16 19 20 25 29 35 35 45 51 43 43 45 47 41 44 44 48 52 54 54 51 47
2 2 3 3 1 2 2 3 4 3 4 9 7 6 5 8 13 12 13 13 13 11 17 23 27 28 33 37 47 47 43 42 38 38 38 40 43 46 49 52 53 51 48 43
1 1 2 7 8 8 9 10 10 11 11 13 16 18 15 14 15 14 14 12 17 23 26 27 36 44 46 42 37 42 41 36 35 36 40 43 45 48 50 51 46 41 41 40
2 1 5 9 11 11 13 14 14 16 17 17 17 18 20 17 13 14 14 16 23 21 29 39 42 43 44 43 40 37 35 35 35 37 42 45 47 49 46 43 43 41 40 36
5 3 10 14 8 9 14 17 18 15 11 16 16 17 12 11 16 17 21 25 22 40 39 38 41 45 41 34 33 28 33 29 37 41 40 43 43 42 41 41 37 34 31 28
5 4 8 6 13 20 11 2 2 8 12 11 13 15 17 15 17 23 27 24 37 40 41 42 45 37 31 30 31 28 32 34 39 34 33 32 37 39 38 37 29 27 27 28
3 4 5 8 11 3 2 9 15 13 11 10 12 13 11 17 22 29 33 33 39 42 44 41 35 34 33 32 33 33 37 33 34 34 37 34 36 39 32 28 25 29 27 29
3 4 4 2 7 18 11 2 3 10 14 14 11 13 21 28 29 24 28 39 43 41 37 33 30 32 34 36 35 34 37 37 35 32 29 34 39 29 27 28 26 28 28 29
5 4 4 5 4 4 3 8 12 13 15 15 19 23 39 33 31 26 39 42 41 34 26 27 29 30 30 34 38 34 34 36 36 30 34 31 28 28 26 26 28 28 28 30
8 10 11 9 9 11 11 20 17 7 12 20 29 35 31 33 28 37 39 35 23 23 25 28 29 31 36 47 42 35 35 38 32 32 36 30 27 27 24 26 26 29 29 33
7 6 7 5 7 8 7 9 18 19 21 30 34 31 33 25 36 30 29 24 23 26 29 30 32 37 46 38 35 35 34 35 30 29 37 34 23 20 23 23 26 29 27 31
8 11 8 9 13 20 25 28 30 25 28 29 29 27 29 29 24 23 22 24 27 29 31 33 34 37 35 34 34 35 35 34 34 38 35 29 19 22 21 26 25 25 27 33
17 14 24 23 21 22 25 21 22 29 30 28 35 27 21 21 23 22 25 28 30 31 35 33 34 34 36 37 35 34 38 33 31 31 31 22 24 26 29 25 22 25 30 30
20 16 22 28 27 25 22 21 26 29 26 32 32 27 30 28 23 27 30 31 32 35 33 36 35 37 38 37 36 34 38 34 29 31 27 24 24 27 28 26 26 26 27 29
24 20 22 26 25 26 25 30 26 21 27 27 28 29 28 25 28 30 31 32 33 35 37 34 35 37 37 37 41 38 36 31 28 26 22 21 23 23 23 24 25 26 24 27

GFSCGP_700_spd_006.txt.gz
Wind_Speed
3 5 4 4 6 7 7 5 4 9 1 7 7 9 4 4 1 2 5 9 10 6 14 22 21 22 23 21 22 22 22 25 24 27 26 26 29 33 32 31 33 35 38 42
3 3 2 2 5 5 4 4 5 3 7 4 7 10 5 4 5 7 4 7 10 12 15 19 26 26 21 19 20 19 22 24 22 29 31 28 38 36 34 33 36 41 45 45
5 4 1 3 3 4 2 3 3 4 5 9 9 9 11 8 6 8 14 13 9 10 19 20 23 20 17 19 19 21 23 24 24 30 35 39 37 37 37 40 48 53 55 53
3 2 4 2 2 4 3 2 5 7 8 10 15 4 13 13 10 8 10 10 7 5 5 1 12 12 12 12 15 18 23 25 28 32 34 36 37 39 49 49 39 37 38 40
4 3 3 1 3 2 4 10 6 7 9 10 11 10 21 15 12 9 7 6 6 9 8 11 11 12 15 16 19 24 28 32 32 35 35 40 45 46 47 44 44 43 45 44
4 2 0 3 4 5 6 8 8 6 8 5 11 2 8 7 9 6 5 4 4 2 8 10 15 19 19 21 25 25 26 30 34 36 40 42 41 40 43 50 53 52 49 48
6 4 4 5 4 4 8 7 6 3 5 2 2 2 12 10 11 9 5 2 3 3 4 1 2 8 20 23 22 22 24 26 30 38 42 39 45 51 54 50 50 49 51 51
8 6 3 6 5 5 6 5 4 4 5 5 3 4 11 10 7 6 2 0 4 5 7 7 13 16 21 26 27 29 31 31 34 37 42 47 53 53 49 50 50 53 50 50
1 5 3 7 4 6 6 6 2 2 3 3 7 10 12 6 6 4 2 4 3 7 8 14 9 16 18 24 30 37 38 35 32 39 45 53 54 51 49 54 54 48 48 48
2 4 2 5 8 9 7 4 4 5 2 3 10 7 7 5 2 1 2 4 6 11 10 8 12 19 24 30 34 34 39 42 39 45 52 46 48 49 49 45 45 48 48 50
8 4 1 5 5 5 3 3 3 3 1 2 3 3 2 1 3 5 7 7 7 6 8 14 15 19 25 34 40 35 44 45 45 49 49 48 43 43 43 44 48 49 51 52
4 5 4 3 5 1 3 2 2 1 1 3 3 10 1 1 3 9 7 6 6 9 18 25 27 30 37 41 42 46 46 46 49 47 47 39 39 40 41 44 47 49 51 49
6 1 1 6 2 3 2 1 3 4 6 8 5 6 10 11 10 8 8 6 11 16 22 28 33 34 39 42 43 45 47 45 44 43 42 39 39 42 42 43 49 49 46 46
4 2 2 1 5 8 9 10 10 12 11 13 14 18 16 12 9 4 8 10 18 22 24 33 33 41 44 46 47 44 38 39 40 39 35 42 46 50 47 47 42 44 45 44
3 3 2 4 7 8 11 13 13 15 16 18 20 17 15 11 9 10 13 19 22 35 38 34 42 45 47 45 37 36 36 33 34 33 34 49 51 48 52 45 44 47 44 41
1 2 7 9 2 7 14 17 16 16 16 14 14 16 11 10 14 20 27 30 34 37 36 39 45 45 38 35 31 35 34 31 40 40 51 50 43 34 40 37 41 42 38 38
2 3 7 2 12 15 3 4 2 4 7 10 13 14 16 14 18 22 34 35 38 35 37 43 42 28 27 31 35 30 32 37 37 43 46 47 41 42 36 46 47 39 32 37
3 3 5 6 8 2 1 13 13 14 11 9 11 12 7 18 28 30 33 33 29 38 41 37 25 27 27 39 31 37 44 44 35 35 40 48 50 45 38 45 37 32 32 38
2 3 3 2 4 14 9 6 5 7 15 12 13 17 23 25 28 28 27 32 36 40 34 26 26 29 38 31 35 40 46 36 32 35 42 44 47 24 41 38 36 32 35 36
5 5 5 6 2 4 3 7 14 19 16 14 19 21 26 33 33 26 32 31 38 36 27 24 29 32 31 35 39 43 38 37 36 37 42 43 36 29 44 38 32 30 35 37
7 8 11 8 7 9 10 13 13 8 10 17 26 30 30 34 32 31 32 32 31 21 23 28 31 32 37 40 43 39 40 37 37 43 43 38 32 35 42 31 28 35 34 39
6 5 6 5 6 9 7 9 12 15 21 32 29 28 33 31 33 30 27 31 21 25 28 29 32 35 40 41 37 37 42 46 43 37 35 32 31 35 34 26 32 34 36 34
10 14 10 11 9 10 20 20 28 32 29 33 29 31 30 31 30 27 29 21 25 27 30 33 35 41 37 33 35 37 47 49 42 38 34 29 29 29 26 29 30 30 32 29
16 16 20 19 25 21 23 22 28 28 28 31 34 28 25 25 27 25 23 24 30 34 41 36 42 35 35 38 37 44 47 42 39 37 32 30 27 25 25 25 27 29 28 27
19 18 21 22 24 22 24 31 31 31 26 32 26 24 23 27 22 21 27 33 35 38 37 43 37 36 41 42 40 43 43 38 36 33 30 27 23 21 22 22 24 26 26 26
27 29 25 26 22 26 27 30 32 30 36 27 23 25 26 20 27 30 33 38 40 40 42 41 40 42 43 45 44 42 40 36 34 32 28 22 21 22 19 20 22 25 25 24

GFSCGP_700_spd_009.txt.gz
Wind_Speed
4 6 9 7 6 5 2 9 21 17 12 5 4 8 9 9 10 9 10 7 15 19 19 26 22 18 19 21 24 25 22 21 20 25 23 25 27 28 39 38 35 34 37 34
4 8 6 6 2 4 3 5 13 10 6 2 7 6 10 10 11 13 8 7 10 16 18 27 26 21 23 25 25 27 23 23 25 27 28 29 29 32 31 29 34 40 44 50
5 5 7 8 1 8 7 3 2 2 3 1 4 15 14 13 14 15 15 13 12 16 20 23 27 25 25 23 22 19 17 17 21 26 27 32 34 33 34 31 35 42 48 44
3 5 8 5 2 3 1 1 5 8 3 3 7 5 15 15 16 17 16 14 12 19 24 26 23 15 11 10 12 15 15 17 22 25 31 32 32 34 37 43 47 45 45 51
7 5 6 4 3 3 2 7 5 5 5 7 4 4 20 17 14 13 15 10 12 15 19 19 16 13 12 14 17 21 25 26 28 28 32 34 37 41 43 44 46 51 52 49
3 2 0 1 8 11 8 9 6 6 5 3 9 5 18 15 15 12 10 10 10 11 12 14 17 17 16 17 20 20 20 24 28 33 38 41 41 42 45 48 53 52 49 48
10 5 8 5 5 4 5 8 2 1 1 2 6 11 9 10 15 12 10 9 9 8 12 17 18 19 21 20 21 23 25 31 33 35 37 41 44 47 49 53 47 49 50 51
8 3 2 7 6 4 11 7 5 2 1 5 9 9 11 15 16 13 7 6 5 8 9 6 8 12 11 11 24 36 37 38 41 41 45 46 45 50 50 56 46 52 51 47
10 5 6 7 12 6 6 9 8 3 4 3 7 13 6 2 2 3 6 3 5 9 12 13 12 11 11 17 26 34 39 42 46 45 49 47 46 51 51 59 55 54 49 47
9 7 4 10 10 11 9 7 4 3 2 2 3 5 2 10 8 3 6 3 3 3 9 11 19 22 26 28 33 36 43 45 45 47 46 45 47 51 57 57 50 49 47 48
12 6 7 5 5 5 5 2 3 0 2 4 1 5 7 9 11 6 7 7 8 9 12 17 19 25 30 30 33 40 40 43 47 47 44 43 43 47 45 37 46 53 47 46
8 9 9 5 5 3 1 1 1 1 1 3 0 4 6 8 7 8 6 13 12 15 20 24 27 26 30 40 41 44 48 47 45 43 42 42 45 44 31 47 56 57 45 41
11 7 8 3 2 3 4 1 4 5 4 4 2 3 8 15 21 24 9 11 15 18 24 26 27 36 43 40 44 48 47 43 41 42 43 41 44 39 50 54 57 47 40 39
10 9 5 6 3 5 6 7 6 9 9 12 15 17 13 13 9 8 10 14 20 25 24 29 36 40 41 45 48 45 39 39 39 39 43 43 44 46 47 52 52 43 34 44
8 10 7 4 6 7 8 10 10 12 14 15 18 13 17 14 10 10 15 19 22 24 34 39 41 40 45 46 43 38 41 39 40 40 42 44 44 43 45 52 56 38 38 40
7 6 4 3 5 6 13 10 9 12 14 15 16 12 8 15 16 21 22 26 27 34 44 39 36 44 45 40 38 37 45 45 45 45 47 40 42 42 49 53 42 27 30 36
5 3 2 3 5 7 5 3 3 6 9 8 11 13 15 17 24 25 22 27 36 44 41 39 42 43 36 35 37 44 44 46 49 51 42 37 38 44 48 57 27 34 34 35
5 4 3 3 2 1 6 9 12 15 13 13 13 13 20 24 27 25 28 34 40 38 38 39 34 28 30 35 43 46 47 50 50 43 42 41 42 43 44 33 31 31 32 32
9 6 3 3 3 10 8 9 12 10 12 16 22 26 26 21 21 30 37 38 35 33 35 32 29 31 38 44 44 45 48 47 43 44 45 43 41 42 39 38 19 31 36 37
9 7 7 7 4 6 8 7 13 15 16 19 18 20 22 27 32 36 33 34 36 35 37 33 34 37 42 42 44 46 45 44 44 47 50 45 39 36 34 33 36 33 35 36
14 12 14 12 8 8 10 15 13 10 15 19 22 24 30 36 31 30 31 32 33 33 31 31 34 39 44 45 45 45 42 44 47 48 47 41 36 33 28 28 29 30 32 35
12 8 9 9 8 9 7 13 16 19 26 25 28 34 32 31 30 30 28 32 31 28 30 33 39 44 44 43 45 42 43 46 47 43 41 38 34 31 29 27 28 29 31 29
15 18 13 14 11 19 21 19 26 29 29 29 32 31 33 35 34 26 30 29 27 30 34 39 42 43 43 43 41 41 43 44 42 38 38 36 32 29 26 24 23 25 25 26
15 19 21 18 21 19 17 27 29 32 33 32 28 35 29 30 25 26 28 29 32 35 37 40 41 42 41 40 38 38 41 42 37 33 33 32 30 26 21 20 22 22 22 24
23 23 27 31 25 22 26 29 33 34 34 30 32 30 34 25 23 28 30 32 34 37 38 40 41 40 40 40 38 39 40 39 35 31 31 28 26 22 21 20 19 20 22 23
27 27 29 34 33 32 31 30 29 30 31 35 35 29 21 25 28 31 32 33 37 39 40 42 40 39 40 40 39 40 39 37 35 31 29 25 23 21 20 18 18 20 21 22

GFSCGP_700_spd_012.txt.gz
Wind_Speed
8 3 3 3 5 7 0 6 14 19 14 10 5 20 17 14 15 16 14 16 20 18 20 21 21 18 20 18 16 18 20 21 17 17 13 16 22 25 27 30 31 31 29 36
4 6 9 10 8 7 10 17 18 16 15 8 16 19 19 16 16 14 13 11 14 18 20 21 20 21 19 20 23 25 18 15 14 11 14 19 21 25 27 34 34 40 40 42
10 9 11 6 5 8 11 17 16 10 6 7 17 19 16 16 18 16 14 14 16 15 16 21 17 20 22 22 19 12 11 11 12 14 17 20 23 28 29 32 36 37 39 42
9 10 8 5 6 5 5 5 2 3 3 10 12 9 20 19 16 14 14 13 13 12 12 14 15 16 12 8 7 9 12 16 18 19 21 23 27 31 34 36 36 38 43 48
7 7 5 5 2 0 3 1 2 2 3 5 5 10 16 17 16 13 13 12 12 12 12 18 18 17 17 17 17 15 19 22 21 24 25 28 33 36 39 39 41 45 47 50
7 2 3 4 10 7 3 4 3 1 0 2 7 9 20 18 20 15 12 13 12 11 9 9 12 15 17 18 21 19 16 20 26 31 37 41 43 46 49 48 46 50 53 47
8 7 7 8 8 6 1 2 3 3 2 4 4 5 5 14 15 12 15 13 9 11 10 11 9 12 18 21 23 16 24 30 33 38 44 46 47 49 50 48 47 44 48 49
5 3 3 5 5 5 8 6 4 4 2 3 4 6 8 12 14 9 6 3 6 11 16 11 13 17 17 20 21 26 27 29 35 42 45 47 48 43 45 46 47 52 57 55
7 5 11 12 9 4 4 10 6 5 3 2 4 10 8 7 8 12 11 13 6 7 12 14 14 15 19 21 25 25 27 32 36 42 47 48 49 48 44 48 46 48 47 39
9 9 10 8 9 10 9 6 1 3 2 2 2 6 6 13 9 8 6 6 11 14 16 16 17 22 26 25 26 28 35 44 47 50 51 45 42 42 43 43 44 40 41 50
13 8 9 5 3 4 3 2 3 3 1 4 2 3 6 20 15 13 13 8 9 17 17 18 18 26 24 26 31 37 45 46 47 51 45 42 42 43 43 44 43 41 52 48
10 11 9 7 6 5 2 2 3 2 3 3 3 6 12 13 16 15 13 12 13 17 19 23 26 28 33 37 41 45 43 47 49 44 42 42 42 44 46 47 44 44 45 48
14 10 9 4 5 6 4 4 4 3 5 7 5 4 15 13 18 20 21 26 26 29 24 24 28 31 36 42 43 44 48 49 42 41 40 41 42 45 48 49 47 44 44 45
12 14 7 9 5 6 7 7 5 7 8 11 18 12 17 21 22 24 23 18 18 21 25 27 29 39 45 46 46 47 47 43 42 41 41 45 48 50 46 40 40 42 44 46
11 11 9 8 9 10 11 10 12 14 14 13 16 17 19 24 20 18 20 20 22 24 26 29 37 42 44 44 48 44 42 42 43 44 45 49 50 40 35 39 43 48 46 40
13 10 11 10 10 9 10 12 12 13 17 20 18 15 16 19 20 21 21 22 23 27 31 36 39 41 43 46 43 41 41 42 44 46 48 44 40 38 38 41 42 41 29 42
12 10 9 6 11 9 10 12 7 7 11 14 16 20 22 21 21 20 21 24 26 30 36 38 41 42 42 40 40 40 42 42 45 48 44 38 37 39 40 39 36 32 33 23
9 9 8 5 7 1 7 10 9 10 17 21 23 22 19 19 21 24 26 29 32 37 36 39 39 40 38 38 38 41 43 45 47 44 41 37 37 39 40 38 34 31 23 31
13 11 7 4 8 10 10 16 15 10 13 17 19 21 23 26 27 25 29 34 38 34 35 37 39 37 37 38 40 44 46 47 44 42 41 41 42 40 38 37 32 29 29 28
16 15 13 9 5 6 7 12 13 12 19 11 11 18 20 23 26 29 35 38 32 33 33 35 35 36 37 39 43 45 46 43 42 41 42 43 42 39 36 34 31 30 28 27
17 18 18 18 11 10 16 15 15 10 12 14 18 17 20 24 29 36 34 33 33 36 35 34 34 35 39 43 44 44 43 41 40 40 41 39 38 37 35 32 30 27 26 27
14 12 15 13 10 12 15 16 19 19 23 23 22 23 25 28 28 32 32 33 32 31 31 32 34 37 41 42 42 41 41 41 40 38 37 37 35 34 31 29 26 23 22 23
18 23 18 17 12 17 21 25 25 25 25 27 26 28 28 29 30 29 32 32 30 29 31 32 36 39 39 40 40 40 41 41 40 37 36 35 33 30 27 23 21 22 21 22
22 22 23 26 29 27 24 27 26 26 28 27 28 29 34 29 32 35 30 27 27 29 31 35 37 38 40 39 39 40 40 39 37 36 34 33 31 26 23 21 21 20 20 21
21 22 25 31 31 31 29 27 24 29 32 32 30 34 27 37 30 25 25 26 28 31 35 36 37 40 40 38 39 40 40 36 36 35 32 30 29 25 21 20 20 19 19 21
27 28 29 34 29 32 34 35 36 30 31 31 32 32 33 28 24 23 25 28 31 34 36 37 39 40 38 37 37 40 38 38 37 31 28 28 26 23 21 20 20 19 19 20

GFSCGP_700_spd_018.txt.gz
Wind_Speed
10 8 13 16 13 11 7 6 9 11 14 10 12 12 10 11 15 14 15 16 16 16 19 20 20 21 16 17 17 27 22 21 14 6 11 11 12 14 18 23 27 27 37 35
11 9 9 7 5 5 4 6 5 8 11 14 13 13 12 15 17 15 17 20 20 22 23 22 23 23 16 11 15 15 14 13 6 8 9 11 13 18 20 25 28 30 32 35
8 8 6 4 4 4 4 11 8 13 12 8 8 5 9 13 17 18 18 15 13 12 6 4 6 8 12 10 12 13 12 13 14 12 10 13 15 18 24 30 33 38 41 45
8 7 4 5 2 3 9 7 6 9 9 6 9 4 7 11 13 12 9 8 7 7 5 3 7 8 8 11 14 14 14 13 10 9 14 20 24 30 35 40 44 47 49 51
8 7 6 5 4 4 7 7 5 5 6 5 10 3 11 14 15 14 12 10 7 7 4 5 12 3 13 18 15 12 12 12 12 21 26 33 36 38 41 46 48 49 51 52
7 7 5 6 6 8 10 10 7 1 3 2 8 8 13 24 24 20 16 12 11 9 11 8 7 6 20 26 13 10 13 15 19 26 32 36 39 41 44 49 49 49 47 46
7 6 7 8 8 7 8 8 1 1 0 4 4 10 15 18 24 20 16 13 11 9 7 9 14 24 19 13 18 18 20 21 24 30 36 37 42 45 44 46 46 45 45 46
6 4 7 11 10 4 7 11 5 5 3 3 5 6 6 15 19 15 13 13 13 13 13 18 21 18 17 21 19 20 23 24 26 32 38 45 44 45 48 47 47 48 49 50
7 4 8 9 12 7 4 5 9 2 2 1 4 6 6 10 24 21 22 19 16 16 21 23 19 22 25 25 23 23 23 22 29 36 45 46 47 47 47 47 48 49 50 51
6 6 8 7 7 8 6 7 2 3 3 3 3 6 10 16 25 25 24 20 19 21 21 22 20 24 27 27 27 31 30 25 33 39 43 44 44 44 46 47 49 49 48 47
9 7 8 9 5 8 6 4 3 3 2 5 1 6 8 16 16 17 20 20 21 20 20 20 23 29 31 35 35 43 29 30 38 40 42 42 43 45 47 48 49 47 46 46
14 8 8 11 9 9 7 5 5 3 3 4 2 7 6 11 19 20 22 22 20 20 21 24 28 32 32 36 35 38 38 39 38 39 41 42 45 46 48 49 49 49 47 44
13 6 7 4 7 11 10 9 9 6 6 7 3 5 6 6 12 22 25 24 22 24 25 25 28 30 32 35 35 40 40 35 37 40 41 44 46 48 49 49 48 47 45 41
14 10 11 12 3 8 11 12 12 10 7 7 17 17 17 15 13 18 22 25 26 26 25 26 26 27 29 36 40 39 36 38 39 40 43 45 48 49 48 47 47 45 43 39
14 12 16 13 9 10 11 12 14 17 17 16 19 21 16 16 17 18 22 27 29 28 27 26 26 28 36 38 35 34 37 40 41 42 45 47 48 49 48 48 47 44 40 36
15 11 13 15 14 14 16 17 19 21 23 25 25 26 19 18 19 21 23 26 28 28 27 27 28 35 34 33 33 35 38 40 42 44 46 47 49 49 48 47 45 44 39 35
14 14 10 8 14 16 17 24 24 24 26 23 25 20 19 18 18 19 19 21 25 27 28 30 33 34 34 33 35 36 38 39 41 44 45 47 47 47 46 45 43 41 37 34
11 12 11 7 8 2 19 18 17 20 18 22 25 21 20 21 19 18 19 21 25 27 27 31 34 34 33 35 35 36 38 40 42 44 46 46 46 45 45 42 40 37 35 33
11 12 8 6 11 18 16 17 20 22 21 22 25 21 20 20 20 21 20 20 24 26 30 31 32 32 33 33 34 37 38 41 43 45 45 45 44 45 42 40 38 36 35 32
16 17 16 11 6 5 11 13 15 18 29 28 23 19 15 21 25 20 17 19 23 28 31 33 30 31 31 33 35 37 40 42 43 45 44 43 43 43 41 40 37 34 33 30
12 14 19 23 18 15 21 23 21 14 23 13 12 15 24 24 24 22 21 22 24 30 34 28 28 29 31 34 36 39 41 42 44 44 41 40 42 41 39 38 35 32 30 27
16 9 12 12 11 13 17 20 20 17 17 20 23 27 29 26 25 26 26 28 28 33 28 23 25 29 33 35 39 40 41 42 43 41 38 39 40 39 36 35 32 30 27 26
18 20 16 14 14 19 24 26 27 27 24 28 30 30 29 28 29 28 27 34 32 27 22 21 26 30 34 37 39 40 41 42 41 39 37 38 39 36 34 32 30 28 26 24
20 19 24 26 26 25 25 27 28 30 31 30 31 31 30 29 30 30 34 32 30 21 18 23 27 32 35 37 38 40 42 41 40 38 36 37 38 35 33 31 28 26 25 24
17 19 26 30 29 29 26 27 27 29 29 30 29 31 31 31 32 33 33 36 22 16 19 25 30 34 35 36 39 40 41 40 38 36 36 36 36 34 31 28 27 25 23 23
25 24 27 30 24 27 28 27 29 30 31 30 30 31 33 29 32 32 31 13 13 15 21 26 32 33 34 37 38 39 39 38 37 36 35 35 34 32 29 28 26 24 23 22

GFSCGP_700_spd_021.txt.gz
Wind_Speed
8 9 15 13 16 8 8 8 11 13 11 12 10 9 7 3 15 14 13 13 14 14 15 15 15 16 17 18 17 17 16 19 8 6 9 7 9 8 10 15 20 22 25 28
10 9 11 11 11 10 8 7 7 12 14 13 12 9 9 9 13 16 16 16 16 16 18 17 15 12 8 14 14 17 14 13 12 9 9 9 10 13 15 18 22 26 31 35
10 9 12 9 6 5 6 3 5 8 13 12 10 8 10 11 15 18 17 16 17 16 11 7 3 1 1 2 5 6 7 8 9 8 6 10 15 19 22 25 29 33 38 41
9 9 8 5 5 6 8 4 3 7 11 5 9 5 11 13 16 18 17 16 11 8 8 6 1 3 9 7 14 14 12 8 8 6 12 16 21 26 30 34 37 39 40 43
10 9 7 5 4 5 6 7 6 8 7 5 9 5 12 17 17 17 15 13 11 10 9 6 5 8 6 13 19 18 8 8 10 10 16 21 26 31 36 39 39 41 43 43
11 10 7 6 4 3 4 6 6 6 6 3 10 13 13 19 22 21 19 16 13 13 10 6 6 3 15 20 13 9 14 14 13 16 20 24 28 34 38 40 42 42 43 43
9 8 6 5 5 5 6 8 1 1 1 4 7 9 18 8 15 21 19 17 17 15 11 6 5 10 13 9 13 16 18 19 20 22 25 28 32 37 39 41 42 43 44 44
9 4 6 9 9 4 7 10 5 4 3 2 6 7 8 10 18 18 18 18 18 15 10 8 11 13 9 14 16 18 21 24 28 28 28 33 34 39 42 43 44 44 45 45
7 5 7 6 10 8 6 7 11 3 1 2 5 8 12 12 14 22 25 24 21 17 12 13 13 14 14 20 21 23 28 30 33 33 34 34 40 39 41 43 43 44 44 44
7 5 8 7 9 11 8 6 4 5 3 3 4 8 12 8 10 21 25 26 23 18 14 13 15 17 19 22 24 28 28 33 39 41 34 40 37 39 42 44 45 45 44 44
7 6 7 9 8 9 9 8 5 5 3 3 2 5 4 4 7 10 13 17 19 16 15 17 19 22 24 25 26 30 36 39 36 39 38 34 39 42 44 45 45 46 45 45
13 7 7 12 8 9 9 9 8 5 5 5 3 7 3 5 7 11 14 15 18 20 20 22 23 26 28 30 32 33 36 37 39 36 32 38 41 43 44 44 45 46 45 45
13 9 6 3 9 14 14 13 12 10 7 8 4 5 5 10 7 9 17 21 23 24 25 26 25 28 30 33 33 33 37 40 34 32 35 39 41 43 44 45 45 45 46 45
13 14 11 13 5 8 15 17 15 14 8 10 19 21 18 16 13 11 16 19 21 26 28 27 26 28 31 34 35 35 39 33 31 34 36 39 42 44 45 46 46 46 46 45
16 14 16 15 12 10 11 13 16 19 20 17 22 22 18 18 17 14 14 19 22 26 29 28 27 28 32 31 37 37 32 30 32 34 36 40 42 44 46 46 46 46 45 42
15 12 14 15 16 16 17 17 20 21 24 27 28 27 19 16 16 16 16 17 20 24 28 29 29 31 30 35 36 32 29 32 33 35 38 41 43 44 45 45 44 44 42 40
14 14 12 8 15 17 16 25 26 26 27 27 29 24 22 20 18 16 18 17 17 19 26 28 29 31 31 34 30 30 31 31 33 36 39 41 43 44 44 43 42 41 40 38
10 11 10 6 7 3 15 18 18 19 18 19 24 23 22 22 21 20 17 17 18 18 22 24 28 29 32 31 28 30 30 32 34 37 39 41 44 44 43 41 41 40 39 36
9 10 7 5 9 16 16 16 22 25 24 22 22 23 23 22 20 16 19 21 19 17 21 24 28 31 33 30 27 27 30 33 36 38 40 43 44 44 41 39 40 38 37 33
13 13 12 10 5 5 6 14 19 22 25 22 16 15 16 14 18 22 24 21 19 18 21 25 27 33 38 27 25 28 31 34 37 38 41 43 43 41 38 39 38 36 35 31
8 10 15 17 13 10 13 18 21 12 16 12 13 12 16 23 27 28 24 20 19 19 22 27 30 33 27 23 25 29 33 36 37 40 42 42 40 37 37 37 35 34 32 30
13 7 8 8 7 8 6 8 10 15 24 24 19 22 25 27 27 25 22 22 21 24 25 31 32 24 22 23 26 31 34 35 38 41 41 41 38 36 35 35 33 31 29 26
15 16 12 11 12 19 24 24 21 22 23 23 26 26 26 28 29 27 26 26 27 28 32 33 28 22 19 23 27 32 33 37 39 40 41 39 35 34 34 33 31 29 27 24
16 15 21 24 23 22 23 24 23 23 24 24 26 26 27 28 30 30 32 32 30 33 33 29 23 15 21 25 27 30 35 38 39 40 38 35 33 31 31 31 29 27 25 24
16 20 24 26 24 22 20 22 24 25 26 26 27 28 29 29 29 30 34 35 32 33 26 26 11 19 20 23 27 32 35 37 38 35 34 33 32 30 29 29 27 25 24 22
20 20 21 24 23 26 25 25 27 28 29 28 29 30 30 30 29 28 30 33 33 37 22 13 17 16 20 24 29 31 34 36 34 33 33 33 31 28 28 27 25 23 22 21

GFSCGP_700_spd_024.txt.gz
Wind_Speed
10 16 12 10 14 8 7 7 12 13 16 14 13 14 11 8 19 19 19 18 16 14 13 14 13 13 16 17 18 16 16 14 12 11 7 5 4 5 6 9 13 16 21 25
12 5 12 11 12 11 7 10 12 16 19 16 13 12 11 9 10 21 20 17 17 15 16 16 16 17 18 19 20 17 13 8 7 7 8 5 3 5 9 12 16 21 25 29
5 13 14 8 8 8 8 8 10 11 21 17 12 10 13 13 12 17 22 20 19 17 15 13 11 10 9 7 7 7 4 9 8 10 7 4 4 8 13 17 23 27 31 33
6 7 8 8 5 7 6 7 5 3 12 10 16 10 14 16 14 16 22 22 20 15 12 12 12 9 5 5 6 9 11 8 7 6 5 7 11 16 20 24 29 33 33 36
10 11 10 7 6 8 6 7 8 8 6 6 10 11 6 12 15 18 22 22 18 14 15 15 13 8 5 5 10 10 8 7 10 9 10 14 18 22 26 28 31 34 35 36
13 13 11 8 7 7 6 7 7 6 5 9 8 9 11 11 14 20 22 20 18 17 17 16 10 6 5 7 2 6 11 13 13 13 16 19 24 28 32 33 35 35 37 39
10 10 9 7 7 7 8 9 4 5 5 7 6 9 20 12 13 17 20 21 19 18 17 13 9 7 7 4 7 10 12 15 17 20 23 27 31 27 32 36 34 36 38 39
12 6 9 10 10 6 10 9 6 5 4 3 4 7 5 12 18 16 17 18 19 19 17 13 10 9 8 8 9 12 15 19 22 26 28 32 28 33 36 34 34 37 40 41
8 4 10 8 10 9 7 8 11 4 4 3 9 8 13 15 13 18 22 25 23 21 18 16 12 10 10 12 15 17 19 22 26 29 29 36 35 38 35 36 37 40 41 42
8 4 8 7 8 11 9 6 3 6 3 4 4 7 5 6 8 15 22 25 25 24 22 19 14 13 14 17 20 23 24 28 30 30 35 35 38 34 34 36 39 41 41 42
8 8 6 8 8 9 11 8 8 5 3 2 3 0 2 1 4 6 10 17 22 24 23 21 20 18 19 22 26 28 30 33 37 36 31 41 36 33 35 37 39 41 42 42
14 9 6 9 11 13 14 10 10 7 5 5 2 7 5 2 4 7 12 16 20 24 25 24 23 23 25 27 29 31 35 38 39 34 37 35 32 33 36 38 40 42 43 43
16 9 6 4 7 14 13 16 15 14 10 9 4 4 6 9 12 8 12 20 22 23 26 27 27 28 30 31 32 34 39 41 38 36 34 32 31 34 36 39 42 43 44 43
14 16 11 12 4 5 12 20 19 14 8 9 15 13 14 17 15 14 13 16 20 25 29 30 32 32 34 32 34 37 40 34 37 34 30 30 32 35 38 40 42 44 44 43
16 12 17 18 16 14 12 11 17 21 18 13 16 16 14 14 19 18 19 17 19 23 27 30 33 35 34 33 35 39 36 36 34 29 29 31 34 37 39 41 43 43 42 41
16 12 16 18 18 18 19 18 18 19 20 24 24 26 21 21 18 19 20 19 19 21 25 27 31 34 33 34 36 37 32 36 32 30 31 32 35 37 39 41 42 41 41 41
16 15 11 7 14 16 16 24 25 26 26 26 23 22 21 26 21 20 21 20 19 19 21 25 27 31 33 35 35 36 36 35 31 30 30 33 36 37 40 41 41 40 40 39
12 13 10 6 3 3 11 16 15 17 17 19 20 20 25 24 22 20 20 18 15 19 22 24 27 31 33 34 36 38 36 35 28 29 30 33 36 38 40 42 41 39 38 37
11 11 7 5 7 13 16 15 16 16 16 17 20 20 21 21 19 21 16 18 22 23 22 23 26 29 30 35 38 35 37 28 26 28 32 34 37 39 41 41 39 37 36 35
15 13 12 7 4 4 5 9 15 15 12 7 7 11 13 12 15 12 23 28 26 25 23 23 25 27 32 38 37 36 29 23 26 30 32 35 38 40 41 40 37 34 34 33
8 9 15 15 10 8 12 13 12 4 4 12 20 20 18 20 19 25 27 24 23 23 24 22 23 28 33 41 42 27 21 24 27 30 33 37 38 40 40 37 34 32 32 31
8 5 6 7 6 6 2 7 9 12 21 21 20 17 19 21 24 25 26 27 26 24 25 28 30 32 35 41 34 20 22 24 26 30 36 37 39 39 36 34 32 32 30 29
11 11 8 7 6 14 19 16 17 21 23 23 24 24 26 28 28 29 29 30 32 33 34 38 39 35 38 26 14 17 24 23 27 33 35 37 37 35 34 33 31 30 30 26
13 12 15 17 16 15 19 19 20 22 23 24 25 27 29 30 31 32 33 34 35 36 37 38 41 43 36 26 19 19 20 24 30 32 35 36 35 34 34 33 30 28 27 25
14 17 19 20 17 18 19 23 24 24 26 27 28 29 29 30 30 31 32 32 32 33 39 36 35 25 20 20 17 15 21 26 29 33 34 34 33 34 33 30 28 27 25 24
15 16 15 17 20 23 24 24 26 25 26 27 29 29 29 29 30 31 32 31 33 35 36 40 30 12 11 12 14 18 23 27 30 32 33 32 32 33 31 29 28 26 24 23

GFSCGP_700_spd_027.txt.gz
Wind_Speed
3 18 13 9 13 10 9 5 8 10 11 13 12 8 10 14 16 18 18 17 18 20 23 18 18 18 19 18 16 18 18 18 17 14 10 7 6 9 7 7 9 13 16 19
7 18 8 9 11 13 7 6 10 9 12 11 12 12 12 15 16 19 20 19 19 18 19 21 21 21 21 20 18 19 20 17 13 12 11 9 9 10 9 12 14 15 19 22
12 6 10 10 7 11 8 9 8 9 14 14 12 17 17 16 16 19 20 19 19 21 21 21 21 20 20 19 14 13 13 12 12 12 9 11 13 13 13 15 18 20 25 28
5 9 12 8 8 7 8 8 8 7 15 21 19 17 17 17 20 18 19 23 21 22 20 19 19 17 16 14 12 11 10 11 10 9 12 13 11 10 16 19 23 29 29 32
8 5 11 11 6 9 7 6 7 8 14 9 18 14 18 23 18 16 17 19 26 23 20 18 17 17 15 11 9 9 9 9 9 12 13 14 18 19 22 24 24 30 34 36
8 11 4 3 8 7 5 4 5 7 13 10 18 17 8 16 14 15 15 19 20 21 21 19 19 17 14 12 9 10 10 11 13 15 17 19 21 25 30 35 25 28 33 35
8 7 9 6 4 5 6 7 11 8 7 10 5 8 17 13 7 14 17 15 19 21 21 20 19 17 15 13 12 12 12 13 15 16 19 22 27 30 34 31 36 37 34 36
17 11 12 10 8 5 9 11 11 6 7 9 5 9 5 10 7 10 17 16 17 20 21 20 20 18 16 14 16 15 15 16 17 21 24 26 27 33 31 31 35 34 36 37
16 7 10 10 7 6 7 10 9 7 7 9 18 19 10 10 10 10 16 18 19 21 21 22 22 21 18 16 16 19 21 21 22 25 28 29 33 31 32 33 31 35 37 37
5 3 5 8 9 10 10 4 5 9 4 8 6 7 1 3 6 12 17 19 20 21 22 24 24 24 21 20 20 21 23 27 27 31 34 35 37 33 33 30 33 35 36 37
11 11 5 7 10 11 8 12 10 7 6 4 4 1 5 1 6 10 15 19 20 22 22 24 26 27 25 25 25 26 28 31 32 36 39 41 37 39 32 33 35 35 36 37
14 10 11 12 11 13 10 11 13 10 7 7 4 9 4 3 1 6 11 18 21 22 23 24 27 29 29 30 31 32 33 35 34 39 42 46 38 34 34 34 36 35 37 40
12 11 12 10 10 10 12 13 13 11 8 11 5 5 3 8 11 9 9 14 19 22 25 26 29 32 32 34 35 36 37 38 37 43 45 36 35 34 33 34 34 36 39 41
14 15 16 15 6 0 9 13 15 16 12 13 17 14 10 12 11 10 11 13 18 22 25 27 29 33 34 35 39 39 40 39 39 41 43 28 30 32 33 33 34 37 39 41
14 13 17 18 11 11 11 11 14 20 22 18 17 15 15 15 16 14 16 16 16 22 24 28 32 35 37 39 41 42 42 40 41 42 44 30 32 33 33 33 36 38 40 41
14 10 13 12 12 15 14 16 17 19 20 22 23 23 20 19 15 15 14 16 17 19 22 24 29 33 36 40 42 42 40 40 43 44 35 31 32 31 31 36 37 39 41 40
10 11 8 8 8 8 14 22 22 21 21 20 22 22 17 17 15 14 13 16 17 19 21 23 25 29 34 38 41 39 39 41 41 46 32 34 33 29 33 35 38 39 39 39
13 11 10 5 4 1 9 13 13 13 15 17 19 19 19 18 18 20 19 16 15 16 17 23 27 30 34 38 40 37 38 44 45 35 33 30 29 31 32 36 38 39 39 38
13 12 8 5 8 11 13 11 12 8 7 7 7 9 10 12 16 18 14 15 16 20 26 27 27 30 32 37 38 37 41 43 46 33 26 27 30 30 32 37 38 40 37 35
15 15 10 8 4 4 3 8 9 9 8 2 6 8 13 19 15 15 17 23 27 28 27 24 23 25 30 32 36 38 44 47 46 39 27 28 30 29 34 37 38 35 34 34
13 16 15 12 8 7 10 13 10 6 4 9 15 25 23 15 13 20 25 31 30 30 29 29 29 29 30 35 38 42 46 43 36 22 24 29 25 32 35 36 34 34 34 34
7 7 8 9 6 7 7 4 3 7 15 20 23 22 24 23 25 29 30 30 32 31 33 32 30 33 39 42 49 51 44 35 18 21 23 23 29 33 36 36 34 33 34 33
7 10 5 8 3 10 9 16 15 21 23 23 24 23 24 26 27 27 26 32 31 30 36 37 38 42 46 45 46 38 40 30 21 16 21 26 31 35 35 36 35 33 31 30
12 12 13 13 6 8 11 19 18 17 20 23 25 26 27 28 29 29 25 35 33 35 38 39 40 39 45 44 46 41 27 18 14 18 23 28 33 35 35 34 35 35 31 30
10 11 11 15 16 12 9 9 17 24 25 26 25 25 28 28 29 30 30 36 37 37 39 37 37 39 41 39 30 22 17 15 16 21 28 33 35 35 33 33 34 34 31 28
17 12 15 10 15 19 20 25 29 28 27 27 27 27 32 31 31 32 33 34 33 33 34 36 38 41 31 18 19 19 18 18 21 25 29 33 33 34 33 33 33 32 30 28

GFSCGP_700_spd_030.txt.gz
Wind_Speed
3 6 10 8 7 12 12 8 18 14 12 10 14 14 11 14 17 16 17 16 17 15 16 13 12 15 16 22 13 11 13 14 16 16 14 12 13 13 12 9 11 14 13 16
6 13 14 9 8 11 12 12 6 9 8 11 13 9 13 16 18 20 19 17 18 16 19 15 19 23 24 24 20 18 19 18 18 16 15 14 14 13 11 12 14 14 15 18
9 7 16 14 9 13 13 5 11 9 9 11 9 16 16 19 17 19 20 21 21 20 25 21 24 25 25 26 23 23 18 15 13 15 14 13 13 11 14 17 17 16 20 22
7 8 11 8 11 10 12 9 8 10 13 12 11 12 8 12 16 22 24 25 24 24 27 28 26 26 25 24 23 18 14 14 16 15 13 11 12 17 20 22 22 24 26 23
6 9 13 15 10 5 1 5 6 10 11 7 8 11 24 27 21 24 24 27 26 25 30 29 25 21 22 21 18 16 15 17 13 13 14 12 20 22 22 24 27 29 33 34
9 12 3 2 9 4 4 5 8 9 12 4 23 20 12 26 17 21 19 22 25 31 33 26 25 22 18 19 18 17 16 16 12 15 16 17 19 21 24 27 29 32 33 35
8 7 8 6 7 5 6 8 7 9 7 4 14 11 5 10 18 11 21 24 25 20 20 22 25 21 19 20 18 16 17 16 16 16 17 19 21 25 28 28 33 37 32 35
7 16 12 11 9 3 11 9 3 5 5 8 4 6 2 7 7 9 17 19 14 19 20 21 21 21 20 19 18 18 20 21 19 18 19 21 25 29 32 33 36 35 32 33
8 9 2 6 7 4 5 5 6 6 7 5 10 20 10 5 7 6 13 14 17 18 20 20 19 23 24 22 21 20 23 24 23 22 24 26 29 34 35 38 37 38 29 31
10 13 20 9 11 9 9 8 5 3 2 4 11 14 9 4 3 5 12 15 17 19 20 21 21 25 26 26 26 23 24 28 27 26 26 30 33 35 38 43 46 33 30 32
11 26 10 5 6 9 7 9 11 10 9 1 4 4 6 4 2 5 12 16 18 19 20 22 23 27 29 30 30 27 27 32 32 31 32 35 37 40 40 45 36 33 30 33
11 7 9 12 7 8 10 7 11 10 8 6 4 12 6 3 2 4 8 15 19 21 22 24 24 26 30 31 31 30 30 35 36 36 35 38 39 42 43 49 35 34 34 34
9 7 13 15 8 11 15 14 14 10 10 10 5 4 6 8 14 10 8 10 17 21 22 24 28 29 32 34 33 34 33 37 40 41 37 39 41 47 38 45 32 31 33 34
15 10 14 13 13 5 14 12 14 15 12 14 18 17 10 13 10 9 12 11 13 18 21 23 27 31 36 38 37 36 37 40 42 41 38 41 43 43 39 38 29 31 31 36
17 14 14 18 19 7 9 9 10 16 19 20 18 15 13 14 13 10 10 9 15 14 19 23 26 32 35 37 42 39 40 44 45 40 39 39 47 46 35 31 30 31 32 33
15 9 12 13 12 13 15 15 16 17 17 19 21 21 16 16 17 19 15 13 14 17 16 23 28 30 36 36 39 39 42 46 45 39 39 45 40 42 35 30 30 30 30 32
10 10 6 7 9 10 14 19 18 21 19 18 20 19 16 17 18 13 13 11 15 19 18 20 23 29 28 31 35 37 43 48 47 42 42 42 51 34 30 27 30 31 31 33
11 10 10 6 6 1 11 8 11 9 10 11 13 11 8 12 12 17 21 14 14 13 15 18 19 23 26 30 32 37 42 48 46 43 43 38 31 37 29 28 32 26 30 34
11 11 10 6 9 11 15 8 6 4 4 3 3 5 5 11 12 13 11 13 16 19 21 24 27 24 25 27 30 36 41 42 42 46 44 39 34 23 24 27 24 28 31 34
14 14 12 8 4 4 3 8 8 4 4 3 9 8 9 16 15 11 13 15 19 23 31 27 26 25 24 28 32 34 36 40 45 50 50 38 21 18 27 23 24 29 32 32
12 16 16 12 7 6 7 11 13 4 4 8 10 15 24 18 12 18 23 26 27 27 27 26 26 21 23 30 38 40 41 45 50 47 39 31 21 21 20 23 28 31 32 31
6 8 10 12 6 8 10 7 3 9 10 14 22 21 22 21 22 22 22 17 26 29 24 29 33 32 33 39 43 45 49 51 52 41 31 24 18 18 23 26 30 33 32 31
8 9 5 9 1 7 7 11 12 15 18 20 19 19 20 21 22 21 22 20 25 31 32 36 37 37 37 37 39 42 50 43 38 32 26 23 23 22 26 30 34 35 35 29
11 12 12 12 8 5 7 12 11 8 17 18 21 24 23 24 25 23 23 25 28 35 37 36 36 33 33 35 39 41 37 30 26 23 23 25 23 24 28 33 33 33 35 34
11 13 8 10 12 14 10 15 18 21 22 26 25 25 26 25 26 30 33 34 34 33 32 31 32 34 32 32 28 21 21 21 24 19 19 22 25 29 33 33 34 33 32 34
14 12 15 13 17 18 23 27 25 27 28 28 25 28 26 30 31 29 28 28 28 29 28 28 30 28 23 19 19 22 22 16 17 20 23 27 31 32 34 35 35 34 32 31

GFSCGP_700_spd_033.txt.gz
Wind_Speed
1 7 4 4 2 6 2 14 9 16 11 15 19 8 14 21 18 14 10 13 14 11 8 10 12 11 8 7 5 6 8 12 12 15 16 11 11 14 15 16 16 18 19 18
10 9 6 8 11 11 13 14 14 17 17 14 14 21 17 19 20 19 16 16 13 16 15 15 16 17 15 14 15 14 14 16 16 17 17 12 13 16 14 16 17 18 17 18
8 8 2 12 8 13 13 13 18 5 6 9 6 15 21 14 15 20 20 18 18 18 20 19 21 21 22 22 22 20 17 19 20 16 15 16 17 15 15 19 18 20 20 21
10 12 4 19 18 9 13 11 10 1 7 7 5 3 10 16 19 18 23 22 22 24 24 24 23 24 25 23 21 21 22 20 18 16 17 16 14 17 18 17 17 18 23 27
1 5 12 14 15 9 6 10 8 14 13 15 7 5 5 19 19 19 21 24 24 27 27 27 28 31 28 28 26 23 24 19 17 16 17 17 17 19 16 18 17 19 25 27
6 5 8 10 10 12 4 7 6 9 1 2 16 13 8 18 31 29 30 30 24 28 28 28 30 34 34 24 24 22 21 20 17 17 18 19 18 20 20 22 24 28 30 33
11 10 8 8 12 6 10 9 2 3 5 5 14 10 24 15 18 28 17 16 31 33 31 30 34 33 30 19 22 23 23 19 17 17 17 19 20 21 23 26 30 31 34 38
15 7 13 13 17 11 11 11 4 4 2 4 16 11 5 6 18 13 17 20 27 30 38 36 38 33 20 17 21 22 22 20 18 17 18 21 22 24 26 30 33 35 37 41
6 7 10 8 1 4 1 8 6 7 7 2 9 11 9 10 14 15 19 19 26 27 26 23 19 19 19 17 19 21 23 22 20 20 20 21 24 28 32 35 37 40 40 45
18 6 6 17 13 11 13 9 3 4 3 4 4 6 6 8 7 9 11 12 14 14 14 18 21 20 19 18 20 23 27 26 24 24 24 26 28 31 35 37 39 41 44 41
14 8 3 19 15 11 13 12 8 9 5 4 1 1 6 3 2 10 12 15 15 14 13 14 17 19 21 22 22 25 29 31 31 30 29 29 31 34 36 40 45 45 49 36
12 6 14 24 6 11 14 7 7 10 6 3 1 7 11 5 3 7 4 13 17 19 21 21 20 22 22 22 21 21 27 33 36 36 34 35 35 37 39 42 48 46 48 38
15 7 12 12 10 11 12 14 20 12 12 12 5 4 3 15 9 6 8 5 12 15 20 23 26 29 29 28 29 30 30 31 32 35 38 40 38 41 45 45 46 48 51 33
19 10 10 10 9 7 10 10 12 14 13 10 15 18 18 13 15 8 9 6 9 13 17 22 27 30 32 33 34 34 36 41 36 36 37 35 38 44 44 46 42 46 33 27
16 19 18 17 18 14 10 14 8 14 16 19 18 14 9 11 3 9 3 5 5 7 11 13 25 28 29 31 33 36 38 37 38 41 40 38 42 44 48 45 48 38 29 31
15 14 14 16 18 16 11 14 20 14 14 13 13 18 14 13 8 10 10 12 13 11 14 21 18 22 27 29 32 34 36 37 38 40 43 42 45 47 48 48 37 33 29 30
17 15 14 13 15 17 20 22 20 17 17 19 18 13 16 17 12 9 8 9 14 20 20 19 22 24 26 28 30 35 35 37 39 39 41 46 50 54 52 52 42 33 30 32
17 14 10 7 8 0 9 6 9 4 5 6 8 11 11 7 10 11 15 17 18 18 20 20 18 20 23 28 32 32 34 37 38 40 44 48 50 53 56 52 35 26 29 28
17 17 11 7 13 9 11 9 10 8 5 8 12 12 12 10 12 15 19 20 19 18 20 20 21 27 25 22 26 29 31 36 39 41 46 51 57 58 57 40 29 34 26 23
19 19 16 11 5 7 4 6 8 7 7 10 13 15 17 15 15 21 19 20 20 22 25 28 31 30 29 31 32 31 34 37 40 45 49 53 57 55 37 34 39 26 23 25
18 19 19 17 10 6 8 10 11 9 8 14 13 13 13 20 21 19 19 22 28 29 30 29 27 28 30 28 29 33 36 41 47 52 50 53 44 39 36 30 26 24 25 27
11 14 16 14 9 9 13 13 12 12 16 13 12 17 24 22 20 21 21 23 27 28 29 30 31 30 27 28 33 36 37 42 44 47 47 37 34 25 22 18 19 25 29 32
12 13 11 8 4 5 7 12 12 14 13 17 23 22 19 22 22 22 22 24 28 30 31 29 26 26 25 26 29 35 35 35 35 32 26 21 19 17 18 21 25 30 31 32
16 11 11 9 5 7 10 18 20 20 19 22 17 20 24 24 23 22 23 26 29 27 25 24 25 25 25 27 29 30 28 26 20 19 20 19 18 19 22 26 30 31 32 34
19 18 16 15 16 15 16 20 20 21 24 23 20 25 25 23 23 24 27 26 24 23 25 28 30 29 28 27 24 19 17 18 20 18 18 20 22 25 28 30 33 34 34 34
19 19 18 19 20 23 26 25 24 23 23 25 26 26 24 25 27 26 25 25 26 28 28 26 22 19 18 17 17 17 18 17 19 20 23 25 28 30 32 33 35 35 35 34

GFSCGP_700_spd_039.txt.gz
Wind_Speed
3 1 4 5 7 2 1 3 3 4 2 9 18 17 12 11 13 12 8 8 11 13 11 11 12 11 10 9 8 6 4 2 1 2 4 6 7 9 11 14 17 18 20 20
5 6 4 3 5 4 3 4 3 8 9 16 19 16 20 15 12 12 8 6 3 6 3 9 10 11 10 9 10 8 6 5 5 6 8 10 11 12 15 17 18 19 20 19
9 3 6 6 3 10 8 5 5 9 13 9 12 17 20 20 19 18 18 16 12 10 8 4 4 5 5 9 10 10 10 10 9 11 13 13 14 13 15 17 18 19 19 19
11 7 12 12 10 11 14 4 12 15 12 4 6 4 21 23 22 24 24 22 19 16 16 15 11 9 9 6 8 11 11 12 12 15 16 16 15 14 16 18 19 18 18 20
6 7 6 14 16 15 11 12 14 12 12 8 5 4 6 18 28 27 29 29 26 21 21 21 17 14 10 11 12 13 12 14 16 18 20 19 14 13 18 19 19 19 20 21
14 9 5 10 10 17 15 14 13 7 7 3 5 5 9 17 21 28 23 26 29 26 23 22 21 20 18 14 15 14 13 17 19 21 21 18 16 14 18 18 19 20 21 23
22 16 9 8 7 9 11 9 4 2 2 4 4 5 15 14 17 22 25 23 27 25 30 27 24 23 22 17 15 14 16 19 20 23 23 16 18 19 21 20 23 25 28 31
15 8 10 9 4 6 7 6 4 3 3 4 5 6 10 11 16 13 12 16 24 24 22 22 24 23 21 16 15 16 20 20 20 24 19 20 21 22 24 25 28 29 29 32
8 8 5 7 6 4 4 4 7 6 1 0 4 8 10 11 14 10 11 12 14 15 15 17 22 21 19 18 18 20 20 22 22 22 23 23 24 25 27 31 30 33 36 40
22 9 9 11 9 13 12 7 4 5 3 3 4 6 9 7 3 8 9 13 11 15 18 19 13 12 15 21 20 19 21 22 21 21 23 26 26 27 28 30 31 35 37 46
22 21 18 12 19 20 20 18 14 10 4 4 1 4 9 4 2 4 2 2 3 8 11 11 6 5 7 9 8 9 13 16 15 15 16 17 20 22 23 28 32 35 38 38
22 15 22 27 21 21 16 17 14 13 8 7 6 14 12 9 12 7 7 6 2 1 1 1 2 5 7 9 12 13 15 13 14 16 18 21 22 25 26 28 29 27 33 41
24 24 18 17 21 20 17 17 15 17 21 16 8 10 5 11 11 7 12 10 8 6 6 7 8 11 14 15 17 17 18 20 22 22 24 24 23 25 26 29 29 30 38 39
22 26 24 23 22 21 18 20 20 19 21 20 25 25 19 17 20 20 20 14 12 11 12 13 16 17 18 21 25 25 25 26 27 28 28 28 27 29 30 30 37 38 44 39
22 23 21 24 19 19 19 14 13 20 18 20 22 22 18 18 15 12 11 15 17 16 18 18 17 18 20 24 27 28 29 29 30 32 30 30 31 33 33 33 37 42 44 43
29 16 20 21 19 20 23 23 21 20 20 21 16 16 15 19 17 14 14 15 18 20 20 18 18 18 21 22 22 21 26 27 27 28 31 31 33 33 33 35 44 45 50 51
28 25 20 20 21 23 26 33 33 31 27 27 25 22 20 20 15 17 16 17 17 17 16 15 18 19 21 20 20 19 18 20 25 27 29 33 33 36 40 46 44 47 54 45
25 22 19 15 14 4 28 27 27 30 32 33 32 31 25 18 21 20 18 16 15 14 14 16 18 19 21 22 22 24 25 26 23 25 27 31 34 38 41 44 47 51 39 38
22 19 16 10 17 17 12 15 21 18 18 18 17 18 19 21 20 18 14 12 13 15 17 17 19 22 25 27 28 26 25 25 25 27 29 32 36 41 41 38 47 41 41 43
21 21 21 14 7 7 18 14 18 18 15 18 16 15 17 18 15 13 12 14 17 17 19 21 22 24 25 26 26 26 27 27 26 26 29 33 42 50 37 43 37 42 43 32
23 23 26 24 15 15 20 16 15 20 15 21 21 17 16 14 14 13 16 20 21 21 22 22 23 24 26 28 28 27 28 27 26 24 26 28 33 40 37 39 43 39 33 33
31 28 25 26 19 14 19 19 24 20 24 14 14 19 17 16 16 19 21 21 22 23 24 23 24 27 29 30 28 28 26 27 29 32 36 37 36 37 38 36 33 33 34 33
27 27 24 19 21 21 13 15 22 25 17 13 10 12 14 15 20 20 20 21 23 23 24 25 27 30 28 28 29 30 30 30 33 34 35 34 32 30 31 32 33 32 35 38
29 23 23 20 23 19 16 14 14 16 16 14 12 14 16 19 19 22 23 24 23 24 25 28 30 26 24 28 31 32 35 33 31 28 27 27 29 31 32 32 34 37 38 40
32 27 25 24 22 18 18 17 16 16 15 14 16 19 21 22 23 25 26 28 26 28 29 29 29 28 29 31 31 27 24 23 24 26 28 29 31 33 34 36 38 40 41 43
29 28 27 27 22 21 16 15 17 18 20 21 23 24 25 26 27 28 29 28 28 29 29 30 31 30 27 23 21 22 23 24 24 26 28 30 32 34 36 39 41 42 44 46

GFSCGP_700_spd_042.txt.gz
Wind_Speed
0 4 5 3 9 4 2 1 0 5 3 6 10 12 11 8 6 5 10 13 15 15 12 12 13 13 14 12 9 8 7 5 4 4 3 1 1 5 6 9 12 13 15 17
5 9 5 4 8 6 4 1 3 5 6 10 12 13 13 14 10 2 6 9 13 13 12 13 12 10 9 9 8 6 5 4 4 3 3 4 7 8 9 11 12 13 16 19
10 7 7 8 6 9 6 3 4 9 10 10 9 9 10 14 16 14 11 10 11 10 6 7 8 6 5 4 6 7 7 7 7 7 9 9 10 10 11 9 12 14 17 19
9 6 8 9 8 9 11 9 6 8 8 4 7 4 6 16 20 21 19 17 14 16 13 10 8 7 2 3 5 8 9 11 11 12 12 12 13 13 13 13 15 17 18 19
4 4 4 14 12 12 13 6 7 9 7 8 8 4 8 11 23 26 23 22 17 17 17 14 11 7 7 7 6 7 10 13 13 14 16 16 16 15 16 18 18 18 19 20
15 16 9 5 7 14 13 10 12 9 5 1 8 5 8 12 13 14 21 23 20 19 19 18 15 15 15 13 12 12 13 11 14 18 18 18 17 18 20 22 21 20 22 24
19 19 16 9 10 9 14 8 2 1 1 5 6 5 14 15 14 13 15 20 22 22 24 22 18 16 14 15 12 13 15 13 14 15 18 18 19 20 19 21 24 25 26 28
17 11 13 14 8 7 9 6 4 4 3 3 4 6 8 10 13 13 10 11 15 17 17 21 20 19 15 14 13 15 17 16 16 18 19 20 19 18 20 22 25 26 28 31
11 6 8 9 7 5 7 6 4 3 3 1 5 10 14 10 12 9 10 4 6 9 11 10 13 16 17 16 15 16 16 20 21 20 20 19 17 19 23 24 26 29 32 33
19 6 7 8 7 11 9 5 3 4 3 3 4 5 9 13 5 6 3 4 4 3 6 6 8 7 10 14 13 18 19 19 20 20 19 19 20 23 23 22 24 26 29 28
26 19 17 14 14 13 13 13 10 8 3 4 1 5 9 9 1 6 6 5 3 4 8 11 12 9 7 6 6 6 7 8 12 12 14 15 17 19 22 23 21 24 26 28
25 14 24 27 20 17 18 21 21 18 5 7 5 17 17 16 13 14 8 5 3 1 1 4 5 3 3 3 3 6 9 11 12 15 17 17 18 20 22 22 25 29 29 31
27 19 19 17 20 21 20 15 16 13 15 14 6 14 4 6 15 12 7 12 10 7 5 4 5 7 9 10 12 14 18 19 19 23 24 24 23 22 26 28 27 30 29 34
26 28 24 23 22 16 15 19 21 18 16 18 22 27 24 21 20 16 17 20 16 15 12 10 10 11 14 18 18 20 23 24 25 27 28 28 27 30 30 31 34 32 34 38
26 27 28 27 25 23 21 20 22 23 22 23 24 25 21 16 17 18 13 16 15 16 16 17 16 18 19 19 22 23 25 27 29 29 28 28 31 32 34 35 36 37 37 41
28 19 23 23 24 23 21 21 22 20 21 23 22 24 19 17 16 17 18 16 14 16 19 19 19 18 18 20 23 24 24 24 25 28 28 27 29 32 33 35 37 41 39 39
27 28 21 23 21 20 24 26 27 30 32 30 31 28 26 25 21 19 18 19 19 18 17 17 18 19 22 23 23 23 24 24 24 25 28 30 31 31 32 34 37 39 45 53
32 29 24 17 15 4 26 30 28 31 33 33 34 34 32 30 27 25 22 20 17 15 14 14 18 21 23 23 24 26 27 27 28 28 26 27 28 29 31 37 41 41 50 39
32 29 22 13 17 22 20 19 14 14 21 21 24 28 31 30 27 22 20 17 14 13 15 19 21 22 24 25 26 25 23 24 25 25 25 27 25 28 31 35 44 41 37 43
30 29 30 16 7 8 19 18 19 19 30 22 16 14 15 18 20 19 15 13 14 17 18 20 21 23 24 24 24 25 27 28 27 27 27 26 24 29 30 25 36 40 39 40
29 27 26 26 16 16 20 17 17 16 28 16 17 15 14 17 16 15 13 13 16 20 21 22 22 22 23 25 28 30 31 29 27 27 28 26 28 31 35 39 38 39 38 34
33 30 25 26 17 14 21 21 26 26 19 20 18 13 19 18 17 15 15 18 21 21 21 22 22 24 27 29 31 31 29 30 32 30 29 34 34 34 34 33 32 33 36 36
34 35 32 27 26 25 17 13 16 19 23 17 12 11 16 18 16 16 19 20 20 21 22 23 25 27 30 31 32 31 29 31 32 33 33 28 28 27 29 31 33 33 35 37
35 30 36 28 29 28 26 23 19 16 17 20 16 12 15 16 17 19 20 21 22 24 26 26 27 29 31 31 28 30 32 34 28 24 25 25 26 28 29 31 34 36 37 40
33 32 32 33 33 30 25 20 19 17 17 17 16 15 16 17 19 21 22 24 26 27 28 28 29 30 29 29 31 30 24 23 24 24 25 26 28 30 32 34 36 38 40 43
33 32 33 32 28 27 21 15 16 18 18 17 17 17 18 21 23 24 26 28 29 30 29 29 30 30 31 28 23 22 22 23 24 25 27 29 31 33 35 37 39 40 43 46

GFSCGP_700_spd_048.txt.gz
Wind_Speed
11 9 10 7 11 11 10 9 8 5 5 4 7 6 7 5 3 7 14 12 10 13 12 13 14 14 13 13 13 13 14 14 13 13 14 13 13 13 13 14 15 16 16 16
12 11 9 10 9 11 9 10 10 6 7 5 6 8 8 9 5 4 9 14 15 18 16 14 14 15 15 14 14 15 15 14 14 13 13 13 12 13 14 15 15 16 17 17
15 8 7 9 8 10 11 10 6 6 6 12 11 12 10 10 12 10 12 16 20 20 18 17 16 14 15 15 15 15 15 14 15 15 16 16 16 15 15 13 14 15 17 17
15 16 13 11 11 11 12 11 6 5 8 12 8 8 6 7 11 15 17 17 17 17 17 17 17 17 17 16 16 17 17 17 16 17 16 15 14 12 12 14 16 18 19 20
15 11 12 14 13 11 10 9 9 8 10 11 10 10 6 4 8 10 15 20 21 19 17 15 18 18 16 16 16 16 17 17 17 17 18 18 17 16 18 18 20 22 24 26
16 14 10 8 8 15 11 7 7 8 9 12 14 12 8 9 8 9 11 13 21 24 22 23 20 19 20 20 19 17 18 18 20 20 18 19 19 19 19 20 24 25 26 27
21 19 13 12 5 10 10 11 11 9 8 9 8 9 15 7 10 11 13 16 16 21 29 24 27 25 23 21 20 21 20 17 17 18 19 18 22 23 22 24 25 27 28 29
24 18 20 15 13 11 15 15 10 6 5 6 6 7 5 6 10 11 11 14 17 18 25 32 26 28 28 24 23 23 22 20 19 17 17 20 21 23 24 26 28 29 29 29
24 21 11 16 15 13 12 13 14 7 5 3 8 8 11 3 6 8 9 11 14 15 19 26 34 36 32 30 26 21 19 19 21 20 20 27 27 25 27 29 29 29 27 27
12 16 14 15 17 17 11 13 9 10 5 7 6 8 5 2 1 3 3 4 10 11 15 19 25 29 31 32 31 28 22 20 22 25 26 27 27 27 28 30 29 28 27 29
19 14 10 14 16 17 15 10 10 5 5 4 4 5 7 4 4 6 6 7 4 3 8 15 19 21 25 28 29 28 29 29 26 25 26 26 25 26 26 26 27 30 32 37
30 16 17 16 14 17 14 14 16 13 8 9 12 18 13 14 11 5 4 7 4 4 3 5 11 17 21 20 24 26 26 25 25 24 20 19 21 22 24 26 28 31 32 32
32 20 18 16 17 20 17 17 16 16 16 16 9 6 7 8 6 11 11 8 9 8 5 6 8 12 13 12 13 14 15 16 16 17 20 24 25 27 28 30 30 31 36 26
31 25 26 23 21 18 17 20 21 21 16 16 18 14 13 14 14 12 13 16 16 14 11 13 14 14 13 14 14 16 17 17 20 23 25 26 28 30 32 33 33 31 33 32
33 28 28 27 22 21 20 17 19 21 20 19 19 20 19 16 16 14 16 15 18 19 17 17 22 19 18 18 18 20 21 20 23 25 27 29 31 33 34 33 33 33 34 34
30 21 19 20 20 23 26 24 24 24 22 22 22 25 18 16 18 19 18 17 18 20 20 17 23 24 23 23 23 23 25 27 27 27 28 29 29 30 31 32 34 35 37 37
27 27 20 22 20 17 17 28 23 22 23 23 24 25 20 21 25 23 22 21 20 19 18 20 21 26 27 26 24 21 21 22 24 27 29 30 30 30 32 34 35 36 34 33
13 24 19 17 14 8 20 15 20 24 23 21 26 27 27 26 26 27 26 26 25 25 21 22 24 23 20 19 19 20 22 25 26 27 27 27 27 29 31 32 34 35 35 32
19 19 12 11 16 17 16 22 21 22 25 19 26 27 25 27 25 27 26 25 26 25 24 22 20 18 17 17 20 22 24 24 23 23 24 26 27 27 28 30 29 27 26 27
23 26 19 15 10 8 18 20 17 18 34 19 16 16 22 25 27 24 24 24 25 25 23 21 19 18 18 19 21 22 21 20 21 23 24 24 25 25 25 22 22 22 21 22
25 28 27 25 12 14 17 18 16 15 30 17 19 19 18 20 19 21 16 23 25 26 23 20 19 18 19 19 19 19 19 21 22 24 24 24 25 23 20 19 19 20 22 23
17 19 21 21 16 16 22 22 24 26 20 20 21 20 17 19 18 18 18 21 26 25 22 20 19 19 18 18 18 20 21 22 24 25 25 24 21 20 19 20 21 22 24 26
25 19 14 21 21 28 22 19 22 21 22 24 23 21 18 20 19 20 21 25 26 24 21 20 19 18 19 19 20 21 23 24 25 25 23 20 20 19 20 21 23 25 27 29
34 36 36 28 28 29 27 27 28 28 27 27 25 22 20 19 21 22 24 26 25 23 22 21 21 21 21 21 23 24 26 27 27 24 22 21 20 20 21 23 25 27 29 31
30 31 37 40 34 29 31 29 29 26 23 25 25 23 20 22 22 25 27 27 26 25 24 24 23 24 24 25 26 27 27 27 24 21 20 20 20 21 23 24 26 28 31 34
32 33 34 41 35 35 34 31 26 25 24 25 24 24 24 25 25 28 29 29 29 28 27 26 26 26 27 28 28 27 27 24 22 21 21 21 21 22 24 26 30 29 32 35

GFSCGP_700_spd_051.txt.gz
Wind_Speed
14 14 16 11 11 15 13 15 13 5 2 6 10 9 3 6 8 12 13 12 12 11 9 11 12 13 14 15 15 16 17 18 17 17 17 16 16 18 19 20 21 20 21 20
16 19 13 11 11 12 12 14 14 6 7 7 7 13 8 8 8 11 14 15 15 15 14 13 14 14 14 14 14 15 16 15 14 14 15 15 15 16 16 16 16 17 19 19
20 10 12 9 11 12 13 16 6 11 6 12 13 17 15 11 11 13 15 15 16 18 16 14 15 15 16 16 15 15 14 16 15 15 15 16 16 15 15 16 17 17 19 22
21 18 12 11 13 13 17 15 8 9 12 11 6 12 9 14 14 16 16 18 19 20 20 16 16 16 16 16 17 17 16 16 16 17 18 16 15 15 14 15 16 17 20 21
24 18 18 16 16 14 11 9 12 13 16 17 15 19 13 13 15 17 19 20 21 22 22 20 17 16 16 16 15 15 16 17 18 18 19 18 17 15 16 18 20 20 21 23
24 16 14 13 15 15 12 8 12 14 15 15 18 16 7 18 15 14 16 19 21 24 25 22 20 21 21 18 19 20 20 20 20 20 19 19 17 19 20 21 20 22 25 25
25 22 18 14 12 13 17 14 15 12 13 12 12 13 13 10 4 7 9 12 18 24 26 26 26 26 23 24 23 21 21 21 22 24 20 19 18 20 23 23 25 25 27 28
29 29 26 18 19 13 21 20 12 8 8 7 6 8 16 7 4 7 10 12 16 18 24 29 29 30 27 26 26 25 24 23 27 24 21 21 21 20 23 24 28 29 30 31
29 28 18 25 18 18 17 26 21 19 10 9 12 8 9 10 6 5 7 9 10 14 20 24 30 31 30 33 33 28 27 25 26 30 27 12 25 18 25 28 31 32 32 33
16 22 19 19 19 19 19 17 19 17 6 10 15 14 6 9 6 4 2 3 6 11 14 17 23 29 30 30 32 32 30 26 23 25 19 21 22 25 29 30 30 31 31 33
24 19 19 17 23 23 21 16 19 15 19 5 8 12 5 7 6 6 7 6 4 3 6 10 16 24 30 28 31 35 34 32 29 26 26 26 28 28 28 28 29 27 28 29
31 19 21 23 22 22 22 23 23 21 16 14 12 19 5 10 11 14 12 9 8 5 8 7 13 16 20 22 28 29 30 32 32 31 31 32 28 25 23 24 25 27 30 30
32 27 22 20 18 18 21 21 22 24 19 17 12 12 7 10 12 10 12 11 11 9 7 8 9 13 18 17 19 20 22 24 27 29 30 28 22 23 24 26 28 31 33 33
35 29 33 26 27 22 25 23 23 23 20 20 23 22 14 13 15 14 14 13 13 14 12 10 11 13 15 17 19 21 21 23 24 23 22 22 23 25 28 30 32 34 34 35
31 37 29 31 25 22 27 28 27 30 29 26 24 22 18 15 18 14 16 14 13 17 17 15 15 19 21 21 21 22 20 23 22 20 21 23 26 29 32 34 35 37 36 36
26 28 32 33 27 24 25 24 25 26 28 29 26 26 20 19 18 17 16 16 19 20 20 21 21 24 28 27 26 25 23 23 24 26 27 30 31 32 33 34 35 35 34 36
21 27 26 29 26 27 29 27 27 27 27 25 28 25 20 19 19 20 20 22 19 24 22 22 26 26 27 32 29 27 28 29 30 32 30 30 32 34 34 34 33 34 35 36
13 21 27 19 20 17 22 21 23 28 27 24 24 23 22 22 23 24 20 21 26 28 27 25 23 24 26 32 33 31 28 26 25 26 29 31 32 31 31 32 33 34 35 36
15 16 20 21 22 21 22 21 21 20 23 23 24 22 21 21 24 30 29 28 30 29 30 30 29 24 25 27 26 24 23 24 26 28 29 29 29 30 31 31 31 31 32 31
21 21 23 16 20 19 27 23 15 16 24 18 19 20 18 16 25 22 24 25 26 27 27 27 25 25 26 26 25 24 24 25 26 27 28 27 28 28 28 28 29 28 26 25
20 22 29 26 17 18 18 17 19 20 29 13 14 15 14 16 20 20 23 24 24 25 26 27 27 27 25 24 23 23 24 25 26 26 26 26 27 27 27 27 25 24 23 23
17 14 19 22 23 19 17 20 22 27 18 15 15 15 20 18 24 24 22 22 22 24 26 28 28 27 25 24 24 25 25 25 25 25 25 26 27 27 25 24 24 24 23 24
27 22 19 19 19 28 25 27 27 21 18 20 19 19 23 24 22 23 22 23 23 24 28 29 29 27 26 26 26 26 25 25 26 26 26 27 27 25 25 24 23 24 24 25
23 22 30 23 17 16 16 17 17 20 22 21 24 24 25 25 23 23 27 24 25 27 30 31 30 28 27 27 27 26 27 28 28 28 29 28 25 24 23 23 24 25 25 27
23 18 24 31 30 26 24 24 22 22 25 25 23 23 23 23 23 24 26 26 27 29 32 32 32 31 30 30 29 29 30 30 30 31 29 25 24 24 23 24 25 26 26 28
24 28 29 28 20 25 30 28 28 28 26 27 21 23 24 24 22 23 26 28 30 33 34 35 35 34 32 32 32 33 33 33 33 31 27 25 24 24 25 26 26 26 28 30

GFSCGP_700_spd_057.txt.gz
Wind_Speed
21 23 28 21 18 13 19 24 16 13 1 8 13 12 5 7 12 14 15 16 10 5 6 6 6 6 7 12 13 10 15 23 23 29 30 30 33 34 37 33 31 29 26 24
19 31 23 16 15 23 24 16 15 16 6 8 9 10 9 9 4 13 19 19 12 7 7 8 8 8 8 9 10 11 11 16 16 19 20 19 22 24 26 26 26 27 27 25
28 27 16 14 15 23 18 18 17 19 13 12 13 18 16 17 12 6 22 21 17 5 8 9 10 8 9 7 8 10 11 14 15 16 17 19 21 21 22 23 24 25 22 21
32 29 22 25 25 18 17 16 17 18 9 12 7 7 13 21 22 11 23 25 21 10 8 12 12 12 10 10 10 10 11 11 13 14 15 13 14 15 14 14 14 17 17 17
36 26 29 24 20 17 20 17 16 13 16 15 21 7 20 14 28 15 22 26 21 14 5 10 12 11 12 13 11 10 12 11 11 12 12 14 14 14 14 14 15 16 17 16
29 25 29 30 24 22 18 18 17 15 13 11 21 18 21 16 19 25 25 21 19 20 15 8 10 16 15 15 16 16 15 14 14 13 13 12 13 14 15 16 17 17 16 15
34 38 29 27 26 22 16 21 3 4 7 7 13 13 22 18 21 19 19 25 21 27 24 19 20 18 20 20 18 19 19 18 18 16 17 15 12 9 14 15 19 22 20 18
33 31 36 27 29 24 23 26 11 6 4 8 18 6 7 10 14 13 20 23 22 32 26 21 19 15 17 21 23 21 21 20 20 19 20 19 17 15 10 22 25 26 25 22
26 40 26 33 26 26 17 25 27 26 12 4 5 14 15 10 17 14 15 12 22 32 30 26 22 19 14 16 18 23 25 25 24 23 21 19 19 23 15 9 13 26 24 26
38 23 35 31 28 28 30 17 19 26 5 5 11 19 16 21 17 15 13 12 15 13 20 29 30 28 25 23 22 21 24 26 26 26 27 25 23 29 25 18 21 17 23 25
47 35 26 27 34 34 29 28 24 20 12 6 3 6 5 12 25 14 13 16 16 18 20 17 21 35 33 30 30 26 26 28 25 27 30 31 26 29 28 24 25 19 17 20
44 29 39 37 26 27 35 32 30 22 13 20 18 12 5 11 11 18 13 12 13 16 16 12 22 27 28 30 33 31 33 32 29 29 30 31 30 34 37 32 22 13 17 19
39 43 23 20 31 24 41 34 28 31 30 25 9 8 12 10 10 16 23 21 19 21 20 18 16 14 27 29 28 35 32 32 31 34 23 21 22 19 17 15 18 18 17 19
38 42 43 32 16 27 23 35 32 28 31 31 26 25 21 21 12 19 14 13 15 20 21 20 15 14 16 22 30 31 29 30 29 23 22 25 21 17 16 16 20 19 20 23
33 41 44 40 25 24 32 30 34 33 34 32 27 21 20 19 20 24 20 19 16 23 19 22 22 19 13 18 19 25 26 28 25 25 23 23 17 17 17 17 18 21 24 27
10 36 34 42 42 32 23 37 32 37 35 35 27 26 25 18 21 19 23 19 23 30 29 25 22 23 23 21 19 20 21 25 25 25 21 19 18 19 20 21 24 26 29 31
18 26 27 39 42 41 37 37 37 32 26 33 35 30 25 26 25 28 21 18 20 19 25 23 21 23 26 26 29 23 24 24 26 26 25 24 23 25 25 26 29 30 29 31
30 20 28 27 26 16 22 27 28 31 33 26 24 18 15 16 19 30 22 13 18 23 25 25 28 31 31 33 32 26 23 22 26 28 28 28 28 29 30 30 26 29 30 30
28 18 30 27 29 20 38 29 20 24 28 28 28 30 22 17 17 24 22 18 19 23 24 27 31 32 32 32 35 32 28 26 29 30 30 31 33 33 30 28 30 31 31 30
25 11 34 13 7 18 25 26 29 21 30 21 20 19 20 21 30 27 27 22 22 24 28 32 30 31 34 35 37 36 32 30 28 30 33 33 29 26 28 30 30 30 30 30
19 17 12 5 4 16 11 18 22 24 19 22 23 21 21 24 24 24 27 25 22 22 25 27 27 30 30 31 31 31 32 30 26 27 26 26 25 28 29 30 30 30 30 31
12 7 7 14 7 8 6 16 21 29 20 21 22 19 17 16 16 20 24 19 21 23 23 22 24 26 27 27 27 27 28 27 27 26 25 26 27 29 30 29 31 31 32 32
25 24 13 10 18 13 14 24 19 16 21 12 21 18 25 18 23 27 21 20 22 23 23 22 22 24 25 25 25 26 28 28 28 27 27 28 31 31 31 32 34 34 33 31
27 21 20 14 24 21 28 21 23 25 22 21 10 13 28 29 28 22 20 20 22 21 24 23 23 24 26 27 28 29 30 30 30 30 31 32 33 34 35 35 35 34 33 34
27 24 23 23 25 21 19 23 22 28 28 28 18 6 13 18 10 19 23 20 22 23 23 24 24 26 28 30 32 32 33 35 35 35 36 37 38 39 39 37 37 37 37 35
26 35 29 34 29 30 11 17 9 13 14 35 25 16 17 20 20 26 24 23 26 26 24 23 24 27 31 34 35 37 39 40 41 40 40 41 41 41 39 38 37 37 37 33

GFSCGP_700_spd_060.txt.gz
Wind_Speed
24 29 35 28 25 18 18 19 22 21 5 4 13 12 19 13 10 11 10 8 3 5 10 8 6 3 4 6 9 12 14 22 19 18 22 29 23 33 33 32 33 39 37 37
22 38 31 24 22 21 19 20 24 21 18 12 11 12 9 19 11 8 11 9 8 10 12 10 8 5 4 6 8 13 16 17 20 19 21 25 25 30 26 31 40 39 32 35
33 24 19 23 22 23 18 22 23 21 15 14 16 17 15 19 19 16 18 12 12 11 12 12 11 8 6 4 6 9 12 13 14 21 24 26 27 31 34 38 36 33 37 33
33 28 25 14 23 22 23 12 19 22 20 15 13 7 14 17 24 21 17 19 16 10 12 16 14 12 10 8 6 6 8 9 12 13 17 19 22 23 24 26 27 30 30 28
32 31 27 28 26 19 25 22 18 16 12 11 17 13 13 12 21 25 27 14 14 9 12 17 15 14 12 13 10 9 10 10 10 10 12 14 15 15 17 20 22 26 27 25
36 32 24 26 23 21 18 18 19 18 19 11 20 16 22 18 21 22 27 23 17 11 11 12 12 16 18 18 18 16 14 13 13 13 13 13 13 15 17 18 20 21 21 22
33 36 30 28 28 24 24 22 6 5 4 8 17 13 21 21 21 22 22 29 25 18 12 13 18 19 21 23 21 19 17 16 15 16 16 15 14 17 16 17 19 21 20 19
29 20 36 28 33 29 23 26 15 6 4 6 13 9 12 11 15 22 21 20 24 22 18 16 17 17 18 20 23 23 21 19 18 18 17 17 18 19 14 16 23 21 21 18
13 23 26 35 28 21 28 29 27 26 10 3 6 13 19 21 18 15 19 15 21 24 22 23 23 15 13 19 20 23 23 23 23 19 19 20 21 21 20 17 15 22 21 23
35 16 15 26 24 30 33 26 17 17 5 8 6 14 20 24 20 18 18 18 18 23 28 25 28 27 23 19 19 22 19 19 20 22 24 23 22 25 26 27 21 21 19 19
40 37 39 26 33 32 30 34 19 20 21 6 1 11 18 17 17 22 19 17 17 19 19 20 26 26 29 26 26 27 27 25 23 23 23 25 26 28 32 32 35 33 35 26
39 24 35 50 33 23 36 36 37 24 10 15 13 19 13 17 16 23 22 21 21 20 20 17 17 21 27 30 31 34 35 34 32 35 33 23 24 26 18 32 31 37 30 22
6 27 28 28 39 43 35 25 42 40 35 33 15 9 8 12 12 10 19 17 18 19 22 24 24 20 22 28 31 32 33 34 41 39 32 26 28 18 23 22 10 8 13 22
20 23 32 32 26 30 24 31 32 42 32 28 37 31 23 21 20 20 19 26 23 27 21 22 21 20 20 24 24 26 29 27 32 33 30 22 17 13 21 21 21 16 17 18
20 25 26 41 36 39 21 27 26 40 39 30 30 36 33 32 27 22 19 21 26 27 28 24 23 23 23 19 22 21 21 22 23 25 23 21 19 18 18 20 21 20 19 20
25 14 19 32 42 36 41 35 30 39 32 32 30 34 30 29 22 28 29 27 28 29 27 26 28 24 26 25 22 21 21 19 21 24 24 25 23 20 19 19 21 18 20 24
26 22 20 22 23 35 29 47 47 31 39 35 30 31 32 30 25 25 25 29 31 27 28 29 29 31 30 26 25 21 21 21 24 25 25 26 24 22 22 22 22 22 24 27
26 28 21 21 18 14 40 37 46 44 32 32 38 26 22 30 25 23 28 33 32 24 22 25 28 29 28 29 29 27 25 24 24 28 27 24 26 25 26 26 27 29 30 31
24 18 12 10 16 22 25 24 25 42 48 29 34 28 25 24 24 20 20 17 28 28 25 26 25 26 28 31 32 31 30 27 25 26 24 26 28 30 30 30 30 32 30 30
15 16 14 17 11 8 15 31 26 18 26 18 25 26 28 27 30 29 25 22 25 25 26 24 27 27 28 29 30 32 33 32 31 30 29 30 30 29 32 32 29 28 29 30
12 10 12 15 9 21 18 21 21 22 28 23 22 17 19 24 26 27 24 21 23 21 23 25 24 25 26 26 27 31 32 34 33 34 33 35 34 33 31 27 28 29 31 31
22 18 14 7 7 12 12 13 15 17 16 18 23 22 24 19 18 20 21 22 18 18 23 24 24 25 25 27 27 29 33 33 32 33 35 35 33 29 28 29 31 31 32 33
16 19 17 13 23 28 14 16 17 9 10 18 22 16 27 19 19 19 17 19 22 19 18 17 18 21 24 26 27 27 29 28 27 27 28 29 29 31 33 33 33 34 34 34
34 27 30 26 27 26 14 23 32 23 17 14 14 27 26 16 8 18 22 19 15 15 17 17 18 20 22 23 22 24 25 25 26 28 30 32 34 35 36 36 36 36 37 37
23 29 28 32 35 29 22 12 9 17 20 29 19 23 17 8 6 11 20 27 24 20 21 22 22 23 23 22 23 24 24 26 28 32 35 37 38 39 39 39 39 39 38 38
32 25 34 33 27 24 22 29 25 16 11 10 17 33 25 11 6 8 13 16 20 26 28 27 27 27 26 24 24 25 27 29 32 36 39 40 41 42 42 42 42 41 39 38

GFSCGP_700_spd_063.txt.gz
Wind_Speed
28 31 41 34 30 24 21 19 23 10 4 10 16 11 16 17 18 17 6 7 8 8 8 7 7 5 3 5 6 8 11 22 19 20 22 25 29 35 32 44 44 43 37 34
29 38 36 31 27 23 21 23 23 16 9 15 15 17 14 17 16 17 14 8 9 10 8 6 9 6 1 3 4 7 10 8 10 16 19 24 32 33 34 44 33 35 42 34
38 29 29 32 31 27 25 23 17 19 16 17 18 23 19 21 20 20 22 15 14 12 10 9 9 8 3 2 3 6 8 9 9 10 17 23 26 27 32 34 34 32 37 41
34 39 10 13 31 26 26 20 19 20 22 22 18 10 18 15 16 23 24 19 13 14 14 13 12 10 5 5 3 4 7 8 9 11 13 17 20 23 29 30 32 36 37 42
32 34 40 34 25 18 28 16 17 21 30 18 13 9 16 17 16 18 20 18 15 11 15 13 11 11 10 10 7 5 5 5 8 10 11 12 14 17 21 25 28 32 36 39
27 30 24 25 25 24 18 18 21 25 22 13 19 17 17 22 24 26 24 23 21 15 17 16 14 16 15 15 13 11 8 7 6 6 8 9 12 15 17 20 24 28 30 33
32 34 33 26 20 21 19 16 4 6 5 9 16 16 25 16 13 17 25 22 20 19 17 19 19 18 19 20 18 15 13 11 10 10 11 10 10 11 13 17 19 23 26 25
27 18 37 32 36 27 24 25 13 6 4 7 19 8 5 2 7 10 18 29 24 22 22 19 20 17 16 17 19 19 19 16 14 14 13 14 15 15 15 14 18 20 21 20
13 20 19 18 34 30 31 31 24 32 17 4 12 17 21 14 13 12 17 15 21 21 23 20 18 19 19 20 18 17 17 21 22 17 17 17 18 20 19 19 16 21 23 23
22 7 10 14 15 30 31 16 14 16 5 7 6 10 18 13 13 12 16 18 18 14 18 20 20 20 18 16 15 19 21 19 19 23 25 22 22 24 24 27 26 21 21 29
32 38 33 21 15 20 24 29 30 23 25 8 9 10 21 27 19 13 14 19 19 17 16 17 20 19 21 24 28 25 25 27 26 21 24 32 32 32 32 32 32 31 29 26
8 13 26 46 45 34 19 32 29 27 7 17 21 28 24 10 11 17 12 20 18 18 15 16 15 13 16 22 27 32 33 33 34 32 31 31 38 40 34 39 32 36 36 34
8 2 10 24 25 23 31 39 24 28 30 34 16 16 12 15 21 14 14 20 22 20 19 18 17 15 18 15 17 22 29 32 36 36 38 36 31 33 20 12 35 15 13 29
17 12 11 9 17 13 20 27 35 30 35 29 42 35 37 31 22 18 15 13 21 20 20 19 21 18 19 17 16 16 19 20 26 30 29 29 29 17 16 19 22 26 20 19
17 15 20 20 20 24 33 25 28 38 43 34 35 39 41 34 33 29 27 20 26 27 23 24 25 25 21 18 18 16 14 16 19 22 24 22 21 22 20 18 20 22 27 24
13 22 27 31 18 13 26 36 42 34 29 32 31 43 33 31 26 30 29 27 25 27 25 26 27 26 26 24 20 17 16 17 19 20 22 21 21 21 19 21 21 21 23 24
14 12 16 21 26 31 17 36 40 39 46 42 33 32 30 34 32 30 31 29 30 33 30 25 25 29 32 28 25 22 22 22 20 20 19 22 23 23 22 21 22 23 24 23
15 13 12 14 16 5 10 11 19 41 43 43 46 30 31 31 26 29 31 30 34 31 30 31 24 23 27 28 28 25 25 25 24 22 19 22 26 25 24 25 26 27 27 28
18 15 10 6 5 23 48 26 19 24 38 42 45 44 28 31 31 26 21 25 26 28 30 28 27 27 22 25 28 27 28 28 28 26 22 23 22 23 25 27 28 30 30 32
22 20 18 11 4 6 39 38 33 31 43 33 36 40 47 27 36 36 23 26 28 22 23 26 34 28 28 25 28 29 29 28 28 27 29 26 25 26 26 26 30 32 34 35
12 13 19 17 10 14 25 26 31 19 21 16 16 16 21 33 34 36 26 29 27 28 23 23 26 33 26 26 30 31 29 27 29 31 30 30 28 29 29 32 32 32 34 35
17 10 15 14 10 12 21 14 9 13 4 21 16 23 26 26 22 21 28 20 22 23 27 24 22 24 25 23 21 21 23 26 30 31 32 31 29 31 34 34 31 31 32 32
26 27 21 22 19 16 27 26 21 26 16 5 11 16 21 21 27 31 25 20 18 23 22 20 18 18 20 18 19 21 22 26 29 31 31 30 31 32 32 31 31 32 33 34
27 20 26 23 30 23 20 18 16 19 23 25 12 8 15 19 24 24 28 24 23 17 14 18 16 17 17 17 19 21 24 27 29 29 29 29 29 30 31 32 33 35 37 38
27 26 31 38 37 33 29 22 20 17 18 22 23 12 16 19 22 25 27 26 24 23 21 17 17 19 20 21 23 23 25 27 28 29 29 30 30 31 32 34 36 38 39 40
22 21 27 31 21 19 21 27 23 20 23 17 16 16 13 32 19 18 23 24 20 18 20 21 21 23 26 26 26 25 26 26 27 28 29 31 32 34 36 37 39 40 41 42

GFSCGP_700_spd_066.txt.gz
Wind_Speed
34 31 39 36 31 31 20 14 10 14 12 16 13 17 11 14 16 15 14 13 13 10 8 7 7 6 8 9 7 7 13 17 16 21 26 23 19 24 34 43 48 44 42 45
36 40 36 32 28 30 28 25 23 17 12 16 16 20 16 18 16 17 16 16 12 13 9 7 6 5 6 7 7 6 6 14 16 20 19 21 23 35 30 47 49 42 42 45
40 35 32 36 30 32 33 31 23 19 16 17 18 24 19 18 18 22 18 19 18 16 12 9 8 5 3 3 4 4 5 6 8 16 24 25 25 28 34 36 39 46 46 41
28 36 20 16 31 35 34 30 23 20 20 15 13 11 24 20 21 19 17 15 15 17 15 12 9 6 5 5 2 2 4 5 6 5 7 15 20 27 25 23 36 42 42 38
24 25 35 27 22 27 32 27 21 20 21 20 25 12 14 15 21 22 19 17 15 12 14 13 10 9 10 7 6 3 1 3 6 7 6 8 12 20 26 23 23 25 33 29
28 25 19 30 33 20 15 15 16 17 18 9 24 19 16 19 23 25 25 22 16 13 13 16 15 15 14 12 9 6 4 3 4 6 8 8 7 9 16 21 23 24 25 27
29 33 26 16 18 20 22 20 4 3 4 6 7 15 26 23 25 22 13 17 16 14 15 18 19 17 15 14 12 10 7 6 5 4 5 9 10 11 13 14 15 18 21 27
26 16 34 28 27 14 23 25 9 6 4 4 9 8 8 3 6 9 11 13 17 19 18 22 22 18 14 13 13 13 12 11 8 8 6 7 9 11 14 16 19 22 24 27
14 16 18 17 26 32 27 20 26 23 12 4 10 16 16 14 13 11 14 18 16 20 19 20 23 20 16 16 13 11 12 14 15 14 13 13 14 15 15 17 20 20 22 24
17 5 5 8 10 23 31 14 17 13 3 5 4 7 14 5 13 15 16 17 14 11 16 20 24 20 16 16 15 14 15 18 17 20 21 20 20 21 21 22 24 22 26 28
30 25 18 12 4 12 24 31 25 18 17 4 3 7 12 7 6 10 10 11 14 13 10 12 17 22 18 20 21 20 20 22 23 20 20 23 25 27 28 28 28 30 29 30
4 6 14 34 36 25 20 17 20 23 11 11 15 21 16 14 19 13 13 10 14 14 14 10 11 17 21 17 19 21 24 27 29 31 27 23 22 25 32 34 35 37 39 39
4 3 2 6 14 16 15 22 26 30 22 28 15 8 5 8 14 14 17 13 12 19 18 17 16 14 12 13 14 16 21 22 25 27 28 29 30 30 33 25 21 36 40 46
11 9 5 1 2 10 13 15 17 26 32 25 40 31 32 26 24 29 25 16 14 15 20 24 22 17 13 12 11 14 12 14 14 16 20 22 23 23 22 23 20 17 21 37
9 14 15 18 18 20 19 19 23 30 29 33 34 36 32 29 26 30 29 23 21 17 19 23 24 21 18 18 16 15 13 10 7 11 17 18 20 20 20 25 24 24 23 26
12 11 11 16 14 20 30 24 26 29 33 40 35 35 29 30 29 26 24 23 23 26 28 25 29 27 20 21 19 19 18 11 11 13 12 12 16 19 20 23 23 24 24 27
13 9 8 8 6 11 23 15 13 19 18 30 41 40 35 30 26 22 24 26 24 26 25 30 27 25 25 26 22 22 23 18 16 18 17 15 16 16 18 21 23 22 24 25
23 14 13 8 6 4 21 20 24 26 29 22 27 33 37 41 38 36 25 24 24 27 30 30 32 34 33 26 21 23 25 24 22 21 22 20 21 20 17 22 22 24 25 26
25 21 11 6 7 21 33 20 15 22 41 35 40 30 28 32 37 42 35 34 24 22 23 22 25 27 27 25 23 24 23 25 25 25 23 23 23 25 22 20 22 24 27 28
21 21 18 9 4 5 22 15 19 20 32 29 24 19 20 28 38 46 34 30 32 26 20 21 23 25 30 29 27 26 25 26 25 28 25 25 29 29 25 24 25 26 28 30
21 24 26 22 11 16 18 15 12 6 16 17 23 25 17 12 21 32 35 35 31 26 23 25 21 23 28 33 31 30 28 27 28 28 30 28 31 30 28 29 32 33 34 32
13 11 14 15 7 13 9 8 11 20 22 18 21 29 21 12 16 22 22 29 34 35 30 21 19 25 26 28 30 27 30 33 32 32 30 31 31 33 33 33 33 34 34 33
24 26 18 19 20 21 21 21 19 21 22 21 23 19 24 10 9 13 26 25 20 23 27 26 27 25 24 24 25 26 29 30 31 29 30 32 33 34 34 27 27 26 30 32
21 15 22 28 35 32 29 29 29 29 23 22 19 22 28 11 11 8 14 24 29 28 21 19 17 17 18 19 20 20 25 27 28 29 30 32 33 32 30 31 30 29 33 37
23 20 25 34 35 35 34 36 37 31 23 26 25 20 23 14 10 13 12 14 26 29 28 22 22 18 16 17 19 21 22 22 24 25 26 28 28 28 28 28 28 32 35 36
28 27 32 38 36 29 27 26 23 25 26 27 27 20 18 25 11 13 19 24 26 23 22 21 23 21 24 21 18 18 20 20 23 26 22 23 25 24 24 25 27 29 31 33

GFSCGP_700_spd_069.txt.gz
Wind_Speed
35 36 39 38 32 29 23 17 17 14 14 19 18 18 15 17 15 11 9 10 8 10 11 6 4 4 4 7 8 10 4 22 22 23 22 25 25 20 27 33 39 47 39 39
37 43 37 32 27 27 29 25 25 23 21 22 19 20 18 21 20 15 12 14 13 12 13 8 6 4 3 5 7 8 5 15 21 22 23 22 25 21 30 32 42 41 41 43
37 33 37 35 32 28 32 32 28 25 21 20 20 25 19 19 23 19 15 16 17 14 13 11 9 6 4 3 4 6 6 2 10 16 26 23 24 24 31 32 44 44 43 50
22 31 20 21 34 31 32 31 29 25 20 12 11 11 18 21 22 20 15 15 12 11 11 12 11 8 7 4 0 3 4 4 3 3 6 20 23 24 31 34 37 45 49 52
21 20 35 28 15 20 26 24 22 21 21 19 17 14 12 6 16 18 17 17 13 10 8 10 11 11 11 7 5 2 4 4 4 4 2 7 20 19 28 39 31 42 46 42
27 19 17 21 30 24 13 15 8 13 13 8 17 11 17 14 13 18 14 12 16 15 11 10 13 14 14 11 9 7 5 5 4 4 5 5 7 15 32 34 27 25 33 36
26 31 25 17 17 24 21 10 3 3 5 8 12 13 30 19 20 16 16 11 12 18 14 12 14 15 16 11 10 9 6 5 5 5 4 5 7 8 12 18 26 25 24 29
21 15 32 24 23 24 31 30 10 7 5 3 12 9 15 6 9 10 4 4 10 16 16 12 18 15 16 14 12 11 9 8 6 6 7 7 7 8 10 12 15 16 19 20
20 17 21 19 28 24 17 22 27 9 5 3 6 10 10 16 24 13 9 10 13 13 17 18 17 20 17 15 13 11 11 12 12 11 10 10 10 10 11 13 15 16 19 20
10 4 10 9 15 29 23 14 10 11 5 10 6 8 11 5 19 13 14 14 16 13 15 19 19 21 18 17 16 15 12 12 14 16 17 15 14 14 15 16 18 19 21 24
16 9 10 12 10 16 22 23 17 12 17 7 9 9 12 6 2 3 11 7 11 10 13 13 19 21 22 19 17 17 17 16 17 17 16 17 17 19 20 20 21 21 24 25
8 8 17 18 13 6 12 12 21 15 12 9 11 18 19 10 11 21 15 12 15 9 11 11 10 16 22 23 21 19 21 22 22 23 25 24 17 18 22 24 21 25 27 29
2 2 3 3 8 15 17 11 17 19 21 22 11 8 8 14 13 9 15 17 11 14 12 16 14 14 15 22 24 17 18 22 26 24 25 27 27 30 28 28 27 30 26 34
3 2 2 3 2 2 3 7 9 8 8 14 23 20 22 24 22 20 22 28 20 16 17 15 17 16 16 19 19 19 17 19 17 20 19 20 21 22 24 26 31 37 31 29
9 7 8 11 11 12 14 12 12 18 21 17 17 21 20 20 21 20 22 23 24 20 20 17 19 18 18 21 19 17 16 16 12 12 13 13 15 16 19 23 28 33 39 33
12 7 9 12 14 17 19 18 15 19 15 18 14 19 21 24 18 16 18 22 24 21 22 25 22 21 24 25 23 21 17 21 17 14 11 9 7 12 17 19 22 24 29 27
9 7 6 5 8 11 16 21 20 20 20 23 20 20 19 20 29 25 19 15 22 23 22 26 28 29 30 26 27 25 23 22 25 19 15 16 16 16 13 15 20 22 25 27
16 9 6 4 4 6 11 13 15 20 21 20 26 30 27 30 31 33 35 31 27 25 23 29 27 29 33 30 26 25 27 28 27 28 22 21 19 17 17 19 18 22 25 28
23 17 9 6 9 17 27 16 11 15 17 22 27 25 24 24 22 24 32 35 36 28 27 26 30 30 32 36 34 35 32 28 29 30 28 25 25 22 25 25 24 22 26 29
24 19 22 7 3 4 2 6 4 12 21 9 17 20 22 26 23 18 24 36 37 32 26 29 28 27 29 31 34 33 33 31 28 28 30 31 29 26 29 29 28 25 28 31
19 18 25 21 7 13 13 13 5 2 8 17 18 19 21 23 22 18 16 23 23 32 31 30 31 27 25 23 28 37 37 35 33 31 31 33 33 31 31 33 34 31 30 33
13 14 14 13 10 12 5 4 4 13 16 18 19 19 23 24 23 19 21 21 17 17 26 33 34 31 27 31 27 27 39 35 33 34 35 34 34 30 34 35 36 34 35 36
15 19 15 15 12 7 6 9 22 26 27 21 28 22 26 25 23 23 22 32 26 21 18 23 27 40 35 26 26 22 27 32 35 38 34 31 31 32 34 37 36 37 38 40
16 13 23 23 24 26 24 21 24 26 31 31 36 33 24 32 29 29 27 28 17 18 21 24 23 23 31 33 32 35 36 30 30 28 26 27 30 38 36 35 36 36 30 29
14 14 21 27 28 28 24 30 31 29 30 28 28 30 26 30 30 21 21 24 12 15 12 15 19 19 24 24 21 21 24 24 24 24 26 32 33 33 32 30 28 27 23 24
20 22 24 30 28 28 30 28 29 26 23 26 29 27 26 25 28 27 20 8 8 15 20 21 17 22 15 16 20 21 21 24 23 23 24 24 24 25 25 23 22 21 20 24

GFSCGP_700_spd_075.txt.gz
Wind_Speed
24 30 39 34 37 33 25 23 20 17 15 18 19 22 22 19 18 16 16 15 16 14 12 12 10 11 13 11 9 11 12 9 21 24 21 23 22 17 15 24 29 29 36 46
23 41 34 30 30 29 30 29 28 21 17 14 19 22 20 22 23 22 19 18 17 17 14 12 12 11 12 12 9 8 9 6 16 22 23 18 21 20 21 22 32 35 37 39
29 38 31 31 31 31 30 31 28 23 18 18 17 26 25 25 25 24 22 20 20 20 19 15 14 13 12 11 10 7 6 2 7 18 18 26 20 25 29 25 29 33 42 47
27 26 32 27 37 29 31 26 24 23 20 24 19 22 20 14 17 18 20 19 19 21 21 16 15 14 13 12 9 7 4 1 4 8 13 20 18 26 25 27 25 33 39 37
22 18 28 34 27 30 33 21 24 22 22 25 27 18 20 19 21 17 16 18 21 20 20 15 14 14 15 14 11 9 6 3 3 5 6 11 20 24 26 29 27 37 41 34
21 18 21 22 28 25 23 23 17 21 21 22 28 25 19 20 16 10 9 11 15 18 20 18 12 16 17 15 14 12 10 8 6 5 5 6 10 17 29 28 30 36 40 43
23 33 26 18 13 21 25 22 14 14 17 15 17 20 27 9 8 7 9 11 13 15 18 21 21 18 18 14 14 15 13 11 8 6 6 5 6 8 15 27 29 28 41 38
26 26 35 23 24 20 23 26 15 13 10 15 24 11 21 17 19 10 6 8 15 13 13 17 22 21 19 16 16 18 17 15 12 10 9 7 6 6 7 10 20 33 33 36
17 29 19 26 26 20 21 32 29 27 14 7 12 14 8 11 10 10 4 6 11 7 9 14 20 24 22 20 19 19 19 19 17 14 13 11 9 8 7 8 7 12 24 28
10 15 20 13 23 26 27 15 22 25 11 13 15 19 9 11 11 10 7 8 10 10 10 11 16 23 22 23 23 22 23 22 20 18 16 15 14 13 13 13 11 10 11 15
18 11 6 17 23 26 25 29 23 25 23 5 7 7 9 12 8 7 5 4 4 5 6 7 11 19 24 27 28 26 26 26 24 23 22 20 19 17 16 15 14 14 15 16
14 10 14 20 19 23 24 27 24 19 17 21 21 15 5 8 3 4 6 3 4 7 5 8 9 15 19 22 31 30 29 28 26 24 21 20 20 20 20 18 19 19 19 20
2 12 13 14 10 15 20 25 27 27 24 19 4 3 13 14 8 7 8 10 6 9 9 8 13 11 17 18 25 31 29 29 29 28 26 26 25 25 23 23 25 26 25 26
8 9 15 12 6 8 18 14 16 14 17 18 22 19 16 14 12 11 14 14 22 16 15 14 12 15 15 17 18 26 31 29 30 31 30 31 30 30 29 30 31 32 32 32
7 8 9 11 5 2 5 11 14 17 19 18 17 16 13 14 13 14 18 17 18 22 25 20 14 14 15 18 17 20 25 31 34 35 31 29 30 30 32 34 34 35 38 40
10 12 11 13 9 8 11 13 15 17 16 17 16 19 18 14 9 8 11 13 16 16 16 19 25 13 13 16 21 19 19 22 29 34 32 30 30 27 28 29 31 33 36 40
9 10 12 15 11 11 14 19 20 19 18 16 17 12 7 8 11 12 12 14 18 23 27 29 31 32 19 14 22 28 26 26 26 29 33 32 32 30 26 28 31 33 32 33
12 11 12 12 5 10 11 6 6 15 18 17 15 12 10 11 12 15 12 12 19 21 23 32 34 33 30 28 27 26 28 32 30 31 32 34 37 36 33 32 30 28 25 24
21 16 12 9 15 17 19 16 12 11 10 9 8 5 5 8 11 11 10 15 20 24 24 23 34 40 37 38 32 33 31 31 33 36 37 38 39 41 40 38 35 35 33 31
20 22 18 8 14 10 11 6 6 8 12 6 4 2 4 8 7 9 15 19 23 21 26 31 22 24 45 45 42 35 35 38 37 35 38 39 39 42 45 45 42 42 40 38
22 22 25 23 16 12 8 4 3 14 7 4 1 3 6 8 11 16 18 18 20 20 27 33 33 29 24 31 44 42 38 35 38 36 37 43 43 44 41 40 46 51 50 45
20 16 17 19 11 19 10 9 9 7 4 3 4 7 14 19 19 17 18 18 19 26 28 31 34 33 37 30 29 38 43 43 38 36 35 37 40 50 51 50 56 52 53 50
14 16 16 17 16 6 7 7 4 7 10 13 18 21 25 27 24 23 17 22 27 29 31 33 33 34 35 37 32 31 39 43 45 41 39 36 39 41 48 44 44 45 48 51
15 17 13 11 13 15 10 3 10 17 17 23 28 31 29 27 23 23 25 29 28 30 30 32 36 37 35 35 34 30 30 35 36 43 40 37 30 30 37 44 43 49 42 41
15 10 15 17 13 11 7 11 21 20 20 27 29 30 27 25 24 24 26 25 27 30 32 34 34 34 34 31 25 18 23 23 31 38 39 35 41 41 38 34 38 35 42 43
12 12 13 12 14 15 11 18 24 25 25 27 27 29 29 29 29 30 33 32 33 33 34 33 35 35 30 26 26 18 12 15 14 17 21 26 31 33 43 45 42 40 44 39

GFSCGP_700_spd_078.txt.gz
Wind_Speed
20 25 37 30 30 31 30 28 31 31 23 24 28 21 21 22 19 21 16 14 18 20 17 20 13 15 14 14 11 12 14 13 10 18 20 16 18 13 15 13 21 23 22 23
20 36 29 29 28 32 34 35 35 34 23 13 21 20 21 21 23 24 24 21 19 21 20 22 15 14 16 14 12 11 13 10 8 15 18 17 16 16 15 14 19 18 22 25
25 25 24 30 32 34 35 34 34 38 29 23 23 24 25 25 25 25 26 24 19 22 23 25 19 15 16 16 12 11 11 9 5 12 19 21 19 22 19 19 19 24 26 25
24 21 20 28 34 33 35 32 34 33 27 27 24 20 24 22 27 30 26 26 25 23 23 24 25 16 16 16 12 10 9 7 4 4 12 16 20 21 22 22 18 22 24 25
26 17 17 27 34 26 38 30 28 26 31 28 29 23 23 14 17 16 20 21 24 24 23 24 28 16 16 16 12 11 9 7 4 3 7 11 15 17 18 23 25 22 23 30
24 22 19 29 23 26 28 30 29 28 30 23 29 26 25 25 21 15 15 15 18 23 20 24 26 19 17 16 13 12 11 10 6 4 6 8 9 13 16 23 23 26 28 29
25 26 21 19 20 14 24 21 5 9 18 13 23 23 29 17 19 9 13 11 11 17 20 23 26 24 18 16 11 13 13 12 10 7 6 8 9 8 10 16 24 30 30 32
17 20 28 26 26 20 12 27 9 6 7 14 28 16 30 17 20 13 5 12 12 15 17 16 23 28 22 18 14 15 14 15 12 11 9 8 7 6 8 9 16 25 27 28
7 19 16 18 20 25 17 26 34 30 16 8 12 28 7 16 18 17 10 7 10 17 14 16 20 27 22 22 18 16 16 17 16 14 12 10 8 6 4 5 7 10 18 26
10 16 10 14 17 26 28 11 19 11 5 6 6 7 11 14 14 13 12 8 11 9 7 9 11 20 24 22 20 19 20 20 19 18 16 14 12 11 10 8 6 5 7 13
14 18 13 3 20 22 29 28 13 5 14 3 1 8 4 8 13 14 10 15 9 9 3 10 8 17 25 22 21 19 23 24 24 22 20 18 17 15 14 13 12 11 11 11
2 11 18 18 19 18 24 27 25 16 6 15 12 5 7 19 13 8 10 10 8 9 5 3 9 7 19 21 21 23 27 28 27 26 24 22 21 20 19 17 17 17 17 18
3 5 14 11 12 17 19 24 21 24 24 7 3 4 11 14 7 3 3 4 4 6 2 6 5 11 9 20 23 20 19 29 31 30 28 26 24 23 21 21 21 23 23 23
15 8 12 12 6 8 15 15 21 24 28 18 16 16 8 2 9 2 6 4 5 9 9 9 7 7 11 18 18 18 18 21 32 33 32 30 29 27 27 26 27 28 28 29
8 12 15 13 14 7 8 16 17 18 24 13 11 15 10 11 10 4 6 6 5 6 9 17 14 13 9 5 20 22 18 19 23 34 34 31 32 33 33 32 32 34 35 35
11 14 12 18 13 9 16 11 14 7 13 13 11 14 5 12 1 4 4 4 13 21 22 22 28 24 22 13 5 14 23 19 19 21 30 35 37 36 35 34 34 34 34 35
10 11 10 18 12 14 13 17 13 11 12 15 14 12 13 4 4 3 6 9 15 18 17 16 23 27 30 25 23 20 17 20 30 26 23 28 33 37 37 35 34 30 30 32
15 13 14 16 12 7 13 9 6 8 14 16 16 13 4 5 7 6 5 6 9 17 16 18 19 23 28 28 28 32 30 27 22 33 33 28 29 33 36 36 36 34 33 31
22 21 15 17 13 16 14 6 6 9 10 12 16 9 7 3 7 7 5 5 12 15 14 20 30 22 22 24 26 31 30 30 28 27 31 36 34 36 34 37 38 40 40 39
25 25 24 8 9 6 12 18 11 8 13 8 8 8 3 2 5 6 8 10 12 14 21 28 26 25 25 27 27 25 27 35 38 33 31 34 34 37 41 40 40 42 44 43
30 26 26 23 11 7 10 12 2 16 8 11 7 4 5 7 6 14 9 10 13 20 27 22 23 27 29 25 27 32 31 30 31 38 39 36 38 38 36 41 42 43 47 50
23 17 16 18 11 16 7 7 9 11 12 11 10 2 9 7 9 13 12 7 18 25 26 26 27 29 30 33 32 28 33 34 32 31 38 39 39 41 41 43 44 43 47 43
11 15 14 16 17 5 7 11 12 12 1 2 6 12 12 12 16 18 17 18 21 22 25 29 30 29 31 34 38 40 36 33 34 33 34 40 39 39 40 45 42 44 47 49
5 14 13 17 15 11 16 21 10 10 10 13 16 17 20 22 23 21 21 20 20 24 25 26 29 31 33 35 38 38 37 38 36 36 32 35 36 40 43 43 44 39 44 49
8 10 12 16 15 5 12 13 8 5 11 15 19 23 25 27 28 26 30 26 28 29 29 31 32 33 33 31 33 35 32 34 33 32 32 30 32 30 38 38 42 35 32 32
10 5 5 5 6 6 2 5 3 10 16 22 20 23 25 26 25 25 28 28 29 32 34 35 36 36 35 34 30 30 28 27 28 28 20 24 25 30 31 39 44 46 43 46

GFSCGP_700_spd_081.txt.gz
Wind_Speed
18 23 30 28 28 27 24 27 33 34 31 32 30 34 30 29 25 25 27 21 26 28 25 22 20 17 15 9 7 9 11 13 16 13 13 16 17 13 9 13 25 23 29 33
16 25 20 22 20 23 28 29 36 38 36 33 29 28 24 28 24 27 29 30 24 24 26 26 25 18 16 13 9 8 10 11 12 9 12 15 12 13 10 16 27 30 32 31
19 11 14 15 22 25 32 33 34 29 39 41 34 34 31 30 26 28 27 26 24 25 27 31 28 19 17 16 11 9 9 9 10 7 12 18 18 19 16 15 24 26 24 25
14 16 20 23 25 25 35 32 27 28 26 24 29 24 35 25 23 28 31 35 30 30 30 31 27 22 17 16 14 10 8 7 8 7 5 14 17 19 13 13 15 20 23 20
18 13 16 21 23 22 30 32 30 28 24 21 40 23 33 29 29 27 25 27 32 30 29 27 25 24 19 18 15 11 10 7 6 5 3 8 13 15 16 19 18 16 20 20
20 17 15 20 18 20 26 26 27 30 25 9 42 24 22 30 33 24 20 19 27 27 32 34 28 23 23 19 17 12 11 9 6 4 3 4 7 11 15 16 18 18 16 22
20 17 23 24 23 25 25 10 4 7 6 7 9 23 30 16 28 25 26 17 24 22 28 31 29 26 24 18 16 12 11 11 8 6 4 3 4 6 10 11 13 16 21 24
5 7 23 28 29 22 17 6 6 4 3 2 18 12 22 27 22 9 17 24 20 19 22 30 26 25 20 18 16 13 12 12 11 8 7 5 3 3 6 9 11 14 21 21
5 10 2 16 22 19 10 15 15 10 7 3 7 19 23 16 21 29 11 13 16 16 23 23 21 16 13 11 19 15 14 14 13 12 11 9 6 3 3 4 6 8 11 18
7 10 13 10 15 15 14 11 7 9 3 3 5 11 9 20 27 20 14 10 9 14 16 15 11 14 15 13 10 17 16 15 15 15 15 13 11 9 7 7 4 3 4 8
11 14 11 8 17 16 16 20 12 9 7 2 1 5 14 18 13 20 20 19 22 19 17 15 10 13 17 14 13 14 17 19 19 18 19 18 16 14 13 10 10 9 9 9
7 7 15 20 18 20 17 19 26 8 3 12 4 6 7 17 17 19 20 21 20 17 17 16 9 4 8 9 11 13 17 19 22 23 22 22 21 19 17 15 13 14 13 13
7 3 6 8 10 10 17 19 24 19 17 8 3 2 10 9 13 16 19 9 15 14 20 16 13 7 10 7 10 9 9 15 20 29 27 25 25 24 21 20 20 19 18 17
13 12 8 9 11 14 7 15 17 19 9 14 17 22 16 12 5 7 13 4 6 9 12 14 12 5 5 9 21 15 16 15 13 18 29 28 27 27 26 26 26 26 25 24
15 14 12 21 14 13 15 8 11 21 24 12 15 15 10 10 14 5 7 3 10 11 7 10 12 12 9 8 11 22 20 14 15 13 16 30 30 30 30 30 31 31 31 30
7 18 16 16 15 12 14 11 12 11 10 4 20 17 13 1 2 7 7 9 11 16 13 15 16 19 19 14 14 15 18 21 23 21 11 12 21 35 33 34 35 36 35 35
14 7 7 13 12 15 11 11 13 13 11 6 8 1 3 8 5 9 4 7 7 8 11 13 20 17 22 24 21 23 18 21 25 28 23 19 20 21 23 29 36 40 40 41
16 9 8 10 16 5 8 7 4 7 5 10 10 5 3 13 11 7 5 3 7 12 15 18 16 15 15 16 18 25 28 23 21 23 30 33 33 29 26 27 29 30 38 43
23 24 10 8 13 17 12 12 5 4 2 3 9 9 12 6 14 14 10 2 9 15 18 19 20 23 22 22 23 22 21 26 33 33 32 36 37 38 42 37 32 30 31 35
34 30 26 11 6 5 14 15 19 8 8 4 10 16 16 17 12 11 6 6 10 14 16 17 16 18 19 18 17 16 20 23 26 29 34 36 38 39 39 41 43 43 40 41
27 30 32 27 15 8 10 13 6 14 7 13 19 18 19 17 13 8 10 13 15 15 21 21 18 22 23 23 22 20 18 18 22 27 32 32 33 41 44 43 41 43 42 47
21 21 23 24 12 12 6 8 10 13 19 22 19 18 18 20 14 13 15 13 15 19 21 25 25 25 25 25 27 28 29 29 27 26 26 31 33 34 42 47 45 45 45 49
8 21 16 17 12 7 9 13 15 16 20 22 17 14 10 12 14 19 18 20 22 22 20 21 23 25 27 28 29 29 31 31 32 33 34 31 30 34 36 42 46 47 44 48
6 14 10 15 11 11 10 20 16 12 14 6 4 6 9 10 12 18 19 23 25 25 26 25 27 27 27 29 30 30 31 32 33 35 36 37 33 32 33 37 42 44 47 45
8 9 3 14 12 12 10 14 16 12 5 4 9 10 11 13 15 18 21 23 25 25 25 25 26 29 31 31 31 30 29 30 32 33 33 33 32 32 37 35 37 39 44 45
7 6 3 4 1 19 12 9 4 2 7 11 17 17 15 16 17 18 20 23 26 27 28 30 32 34 32 32 31 30 31 32 32 31 28 28 29 27 23 26 33 40 38 41

GFSCGP_700_spd_084.txt.gz
Wind_Speed
23 31 36 34 34 34 31 31 31 29 22 27 29 37 37 29 28 35 30 24 25 24 24 23 22 19 13 14 14 14 13 12 13 12 9 11 16 13 9 18 25 24 26 34
20 27 27 27 28 33 31 27 30 31 24 28 35 43 41 36 27 21 31 32 29 29 29 29 28 25 15 12 13 14 14 11 10 12 6 12 12 14 9 18 24 27 30 30
22 12 12 17 16 20 24 26 27 30 30 33 30 45 51 36 29 20 31 27 30 29 33 32 28 23 17 12 12 14 14 12 8 10 7 12 19 16 15 9 28 31 29 34
16 21 13 16 18 18 24 25 26 28 27 14 12 15 40 42 35 27 27 32 33 28 35 34 30 23 19 14 11 14 14 13 8 6 7 7 12 12 13 7 17 28 25 27
14 11 22 27 27 22 21 21 18 20 26 22 22 12 54 41 39 32 27 28 39 37 28 38 31 22 20 16 12 13 14 13 9 5 5 4 8 12 15 12 16 24 29 29
26 19 12 16 17 19 21 18 19 24 18 11 32 18 38 48 42 34 29 25 30 31 37 37 32 22 20 17 16 13 13 13 9 5 5 4 5 8 12 16 19 21 26 32
27 27 20 18 19 19 19 16 4 7 8 11 15 22 40 28 38 33 30 29 25 31 30 39 34 27 22 19 12 14 13 12 10 6 4 3 4 5 7 10 10 16 20 25
11 6 29 21 26 19 14 13 7 5 5 2 18 14 9 17 25 27 23 25 28 31 30 34 31 29 23 17 15 15 13 11 11 9 6 4 4 3 4 7 10 9 18 26
7 6 7 10 11 14 12 13 18 12 13 2 7 16 18 10 8 22 26 14 21 25 28 31 27 28 20 16 14 16 14 13 12 12 10 7 6 4 3 4 6 8 10 19
6 7 7 11 14 15 20 16 5 9 2 3 5 4 6 5 9 6 15 23 21 21 28 26 21 23 18 10 8 6 11 14 14 13 13 11 10 8 7 6 5 5 8 11
13 9 4 5 9 18 18 14 9 9 6 2 2 1 9 17 7 12 12 8 16 23 24 24 24 17 13 8 8 7 6 11 16 16 15 15 13 12 11 10 9 7 8 9
7 5 7 17 10 12 19 19 14 8 4 6 2 5 10 13 12 22 23 18 22 28 30 27 21 20 17 11 8 6 4 6 11 16 19 19 18 17 16 14 13 13 12 11
4 4 5 4 1 6 8 13 18 21 23 15 4 2 7 9 14 23 21 18 19 22 25 25 24 25 22 19 15 12 7 4 1 7 14 21 24 23 21 19 18 18 18 18
11 6 6 6 11 14 11 19 19 19 7 10 17 19 14 16 4 17 17 8 7 19 21 21 21 21 21 21 20 19 17 13 6 4 3 8 20 27 27 26 24 23 22 23
8 11 14 12 12 16 16 22 19 12 26 13 14 11 14 22 14 8 11 9 9 11 10 16 14 15 14 10 8 9 16 20 18 13 13 7 2 11 22 29 31 31 30 29
8 10 12 18 16 14 19 16 21 13 14 21 18 18 12 12 4 17 12 11 2 11 7 6 6 4 6 8 12 15 16 16 15 20 25 22 19 14 13 15 22 31 33 34
14 13 12 10 10 14 11 15 17 22 12 8 6 3 4 5 10 14 11 7 1 5 6 8 9 13 15 13 16 16 19 23 25 26 24 25 29 29 26 24 23 25 30 30
20 18 15 6 11 4 9 10 11 15 12 12 11 9 10 5 21 14 13 10 9 6 1 1 3 5 7 10 11 11 14 17 21 22 24 27 25 26 30 34 33 28 29 29
23 24 18 8 10 19 28 7 7 2 7 10 17 13 15 18 21 16 9 9 7 3 4 6 9 11 12 10 11 12 14 18 20 20 22 27 31 35 36 36 36 38 39 40
15 24 25 13 4 3 9 10 13 12 9 5 21 19 20 19 17 17 10 8 6 8 11 14 15 16 16 14 12 11 10 13 16 20 23 26 29 31 35 41 42 41 42 39
10 19 31 27 13 13 27 14 6 11 7 10 21 25 24 22 18 14 10 7 6 9 9 13 19 18 17 17 17 17 16 15 15 16 17 20 23 28 32 36 38 40 43 46
15 9 19 26 15 14 25 16 12 11 18 17 16 17 19 17 15 11 8 7 7 9 12 16 19 20 19 18 18 20 21 21 21 21 22 22 23 25 27 30 36 42 43 44
15 19 9 13 17 16 15 14 14 13 16 20 19 20 15 16 13 8 10 15 18 20 23 23 24 24 23 23 22 22 23 24 25 25 27 28 30 33 35 33 32 33 40 45
20 10 9 13 11 17 19 13 13 17 19 18 19 18 23 20 15 11 14 18 19 19 21 21 23 24 23 22 25 28 29 27 27 27 27 30 32 34 38 41 43 40 38 37
11 5 9 9 16 13 13 8 14 15 15 9 6 3 3 4 9 12 13 14 15 18 19 22 23 24 25 27 28 29 28 29 30 31 31 31 33 35 35 35 35 36 37 36
3 9 9 6 3 11 13 11 2 5 7 5 2 3 5 6 9 12 13 14 15 17 19 21 21 23 25 25 27 27 27 28 30 31 32 31 28 29 27 29 34 33 33 30

GFSCGP_700_spd_087.txt.gz
Wind_Speed
29 33 38 35 34 33 31 24 21 26 25 32 39 45 42 39 41 40 33 29 29 25 22 21 20 20 18 17 12 14 14 16 16 14 17 15 9 11 8 10 27 27 27 35
23 33 33 32 31 29 29 29 30 30 29 32 39 53 47 41 40 40 34 28 28 28 23 24 23 22 18 20 16 15 13 16 16 13 14 12 11 12 10 9 15 30 33 31
23 13 19 25 27 27 26 25 24 25 27 31 36 54 52 48 47 42 38 29 30 30 26 26 26 26 20 22 16 14 12 15 15 12 12 9 13 11 13 10 19 24 28 29
17 18 14 6 20 16 19 19 18 19 21 19 20 22 49 50 51 48 44 35 28 34 34 33 30 29 23 20 21 14 12 14 14 11 10 7 6 10 8 8 10 30 26 27
13 10 22 19 14 14 16 16 18 20 20 20 21 14 51 34 44 42 43 38 28 30 31 27 31 28 27 23 23 14 12 13 13 9 7 5 5 10 11 12 8 26 30 30
22 10 9 12 16 20 23 21 20 19 18 11 21 22 50 41 45 45 32 39 30 31 30 30 30 28 29 28 25 20 13 12 13 9 5 4 4 8 11 11 9 14 35 35
25 24 16 10 11 17 20 17 4 3 5 6 5 20 37 13 18 24 28 38 34 32 28 26 29 34 32 27 28 22 14 11 13 10 5 3 3 4 7 10 11 14 20 27
13 6 27 23 23 18 15 20 8 4 2 3 10 12 15 9 18 20 19 28 38 36 32 31 27 29 32 28 29 17 11 11 12 11 7 4 3 3 5 7 10 12 12 22
6 3 4 13 20 19 15 16 16 12 19 7 9 14 19 26 17 15 18 25 43 36 35 33 32 26 29 27 25 14 12 12 12 11 10 7 5 3 4 5 6 9 12 18
4 2 5 8 10 15 21 11 5 7 3 4 7 10 9 8 5 1 14 22 35 25 29 31 29 27 25 23 19 14 13 14 14 12 12 11 8 7 6 5 5 5 9 16
9 5 5 5 8 16 17 18 13 6 7 3 3 4 5 8 12 13 3 10 28 24 21 28 28 28 25 23 19 15 10 8 11 14 13 13 13 11 10 8 7 7 8 9
5 3 4 12 12 12 12 19 19 8 3 7 8 7 10 2 15 18 15 1 16 20 21 28 32 28 30 23 20 17 15 13 9 13 15 16 16 16 15 13 11 11 10 10
4 2 3 2 6 4 7 9 11 10 16 18 6 8 13 16 9 14 21 21 6 15 22 26 29 34 32 29 26 23 19 17 14 12 12 14 18 19 19 19 18 17 15 15
3 4 2 2 9 11 13 14 16 13 10 6 18 22 19 20 15 4 14 19 17 15 18 24 35 35 34 31 26 23 22 19 18 15 16 16 16 20 21 24 25 23 22 22
5 2 5 9 9 14 17 20 19 21 21 17 18 18 10 14 16 11 7 15 14 23 20 18 22 30 30 28 24 23 20 20 18 14 14 13 13 14 19 27 28 28 28 28
6 5 9 16 16 18 21 16 21 20 20 20 23 20 17 18 26 16 9 7 11 10 14 11 13 17 14 14 12 11 11 11 10 12 16 19 18 16 21 19 22 25 29 32
9 9 12 8 11 16 12 12 12 16 20 18 15 10 8 5 8 16 14 11 8 11 11 7 6 9 4 4 5 10 12 15 18 18 20 22 22 25 30 28 27 22 22 26
17 13 13 10 13 3 5 7 11 9 13 17 16 17 10 1 9 12 10 12 9 4 4 7 5 5 3 5 7 10 11 13 15 18 21 22 21 24 26 26 28 29 33 30
19 17 10 7 9 16 28 15 11 17 14 17 17 16 17 10 8 2 16 7 10 7 6 6 3 1 1 2 5 8 11 15 18 19 19 20 21 25 29 31 32 34 35 35
2 14 17 13 5 5 5 11 7 17 19 16 16 17 17 20 14 15 16 13 9 5 7 4 5 6 7 7 7 9 11 13 15 17 19 20 21 23 25 27 30 32 35 37
8 8 18 23 13 17 23 27 26 10 8 10 12 21 20 24 20 14 18 10 4 4 2 4 6 8 9 10 10 10 12 13 14 16 18 20 22 22 23 24 25 26 30 35
8 6 9 11 11 12 25 25 20 15 15 14 17 24 25 26 22 18 13 9 5 5 9 10 12 14 15 15 15 16 15 15 15 15 16 17 19 20 21 22 24 25 26 29
7 8 13 15 8 16 15 13 13 9 13 14 15 22 13 12 13 11 8 9 10 11 15 17 16 17 18 17 17 17 18 19 20 20 19 20 21 22 23 25 27 30 32 33
13 12 20 9 11 13 11 7 7 13 15 15 15 18 20 19 19 14 15 14 12 12 16 18 17 18 19 18 19 20 21 21 20 21 22 23 24 25 28 30 31 31 31 30
13 15 11 9 12 15 14 15 13 16 19 23 22 15 11 11 9 6 8 11 12 11 12 12 14 14 15 16 18 19 20 21 22 23 24 26 28 27 30 30 29 27 25 27
2 7 7 8 5 8 14 12 12 10 7 7 4 6 6 7 8 9 10 9 10 12 13 15 16 16 17 17 17 19 20 21 22 24 25 27 28 27 27 26 26 25 25 25

GFSCGP_700_spd_090.txt.gz
Wind_Speed
33 34 38 33 30 29 27 19 19 18 16 26 34 44 42 38 40 38 37 37 36 32 30 30 28 23 20 20 17 12 15 15 15 17 19 20 19 13 11 6 10 14 31 29
33 42 33 28 28 26 25 25 28 28 29 31 37 52 46 44 42 41 38 36 36 30 27 31 27 23 19 19 20 18 14 16 15 16 18 20 17 12 11 6 11 21 21 27
29 15 27 32 32 30 28 26 24 23 25 30 35 58 46 39 43 43 43 40 36 31 28 32 29 26 20 18 18 19 14 16 14 14 16 17 15 11 8 6 8 14 27 18
17 20 14 15 26 26 26 23 19 18 15 12 17 19 44 43 37 40 41 42 39 34 30 32 32 29 19 15 18 21 18 16 14 12 14 15 12 8 8 6 6 13 29 30
11 10 23 22 15 18 18 9 6 9 14 17 11 14 13 18 40 40 39 35 39 38 34 33 32 31 26 22 18 20 20 16 14 11 12 12 10 8 13 11 8 9 22 22
21 11 11 18 19 12 12 8 8 11 12 4 12 14 29 20 11 31 24 20 24 33 40 34 34 34 33 32 25 23 23 18 13 11 11 10 9 6 10 9 9 6 21 22
20 25 11 7 13 15 13 8 4 5 3 4 6 13 34 30 30 24 24 21 16 26 38 34 37 34 30 24 25 26 24 19 14 12 10 8 7 6 8 9 9 8 9 18
19 8 25 15 14 8 11 7 6 4 3 3 15 10 12 12 15 22 27 26 23 27 36 37 36 34 31 30 27 26 25 18 16 12 10 8 6 5 6 7 8 8 10 12
11 3 8 17 17 12 8 7 9 7 17 4 11 19 27 23 22 25 27 28 23 25 38 36 35 33 31 24 24 26 23 18 15 13 12 10 7 5 5 6 7 9 10 13
9 8 8 12 10 12 11 4 5 5 3 4 7 15 11 17 20 14 22 27 24 23 29 32 31 31 28 23 23 26 25 19 16 16 13 14 11 9 7 5 5 6 8 11
9 6 8 8 5 9 9 11 8 4 5 3 3 4 12 24 24 23 13 15 17 19 28 31 29 33 33 26 27 28 25 23 21 20 18 16 15 12 11 8 8 7 8 8
9 7 7 4 2 1 2 6 8 5 3 8 10 14 15 13 13 14 17 12 9 6 17 27 34 35 34 29 30 30 27 23 19 19 21 19 18 17 15 13 11 10 9 9
9 6 6 9 9 9 8 4 1 8 12 10 5 8 15 23 24 18 22 16 7 6 8 20 26 32 35 32 34 32 31 27 23 18 20 22 21 21 20 18 16 15 15 14
10 10 9 6 4 3 4 6 7 11 8 12 17 28 26 26 21 20 28 13 14 5 8 9 14 26 28 36 35 36 34 29 28 25 22 21 20 20 21 22 21 21 20 20
8 8 4 3 1 6 9 11 11 16 21 19 29 29 30 26 20 18 18 3 17 18 11 10 12 19 25 33 34 32 29 25 24 20 16 15 14 15 15 17 19 21 23 24
7 4 3 6 7 9 13 14 14 15 17 23 26 28 18 19 12 15 12 9 10 21 25 22 22 19 18 27 23 22 22 18 17 18 20 22 26 26 24 19 14 23 20 17
5 3 6 3 5 10 9 5 6 13 15 17 21 19 24 22 7 8 10 7 6 8 19 22 21 18 18 22 15 13 13 14 14 16 17 19 22 23 24 24 23 27 33 37
8 8 5 3 6 2 3 10 10 13 15 17 17 21 20 14 11 11 17 7 5 3 4 7 14 15 17 8 5 1 3 6 11 12 15 17 18 19 21 22 22 24 27 31
6 6 3 2 3 12 17 13 4 13 19 18 18 16 20 17 5 13 7 2 2 17 16 15 14 18 15 7 3 2 2 6 9 10 13 14 16 18 21 25 27 27 27 28
9 5 7 3 1 2 2 4 11 19 27 13 16 17 17 13 7 3 8 5 8 11 13 14 13 11 11 6 5 6 7 8 9 12 14 15 17 19 21 23 25 27 28 31
6 4 7 10 5 8 14 19 21 13 15 17 18 15 8 15 10 17 8 11 7 6 8 9 5 3 2 3 5 6 9 12 12 14 16 17 18 19 20 22 23 24 25 26
2 3 3 1 5 9 9 14 11 13 13 16 17 10 16 19 18 19 19 13 2 3 3 2 8 10 10 10 11 11 11 13 15 15 17 18 20 21 21 20 20 21 22 23
2 1 7 8 11 27 25 18 12 8 8 9 12 10 19 17 15 13 7 4 6 5 5 6 10 13 12 12 12 12 13 14 15 17 17 18 19 20 20 21 23 23 24 25
8 9 9 13 2 11 14 13 5 7 9 6 11 8 12 11 7 6 8 5 8 6 8 10 13 11 12 13 13 13 15 16 16 17 17 17 17 19 20 20 22 23 24 25
13 11 8 3 2 6 11 14 10 12 14 13 15 17 20 20 13 5 6 8 7 7 11 12 11 10 10 12 13 14 14 14 15 16 16 17 19 18 19 20 20 21 21 22
5 4 6 8 5 2 4 1 4 4 8 8 8 13 18 15 9 5 7 7 9 11 12 13 15 15 15 16 16 17 17 17 17 18 19 19 20 20 20 19 19 19 20 21

GFSCGP_700_spd_093.txt.gz
Wind_Speed
32 35 44 40 34 30 25 21 20 18 13 19 27 34 34 32 36 36 34 33 33 31 29 30 31 35 33 31 29 23 17 15 16 16 16 16 16 17 19 14 13 15 19 14
32 43 36 29 26 27 25 24 24 24 22 26 33 42 41 40 38 36 36 36 34 33 30 30 32 32 31 31 29 27 20 13 14 15 16 15 15 15 15 13 12 13 15 19
34 25 34 31 28 26 25 25 23 21 21 25 31 44 33 32 31 28 30 33 35 36 35 30 32 30 32 31 27 27 23 18 14 14 15 14 13 13 10 10 6 16 12 29
27 34 9 19 37 29 29 26 23 18 15 12 12 12 18 22 16 14 20 24 26 31 36 33 33 30 33 31 28 27 25 21 15 14 14 14 11 11 10 11 10 10 23 24
17 13 27 24 17 21 23 18 17 16 12 12 14 11 8 6 13 8 10 17 17 26 32 37 35 30 34 34 30 27 24 23 18 13 13 14 10 10 12 15 12 8 14 27
16 7 9 21 16 9 14 16 12 8 8 5 10 7 2 3 20 24 22 15 11 15 27 37 37 36 31 36 32 25 24 23 19 14 13 13 10 9 10 14 13 10 9 24
19 14 9 9 22 16 20 19 3 3 4 4 3 7 12 18 12 21 27 23 18 16 20 32 41 37 34 35 36 30 27 25 21 14 13 13 10 9 8 12 13 12 9 21
17 9 23 12 21 20 24 19 6 4 3 1 5 6 4 10 19 25 32 37 34 31 24 25 37 38 34 35 35 32 30 28 24 16 14 13 11 9 8 9 12 12 11 20
16 6 19 13 17 16 21 14 13 4 1 1 3 7 16 17 15 21 24 28 32 31 25 21 31 39 33 30 32 27 28 29 25 18 16 14 13 10 8 8 10 10 10 14
13 9 11 20 18 17 10 15 6 5 2 2 4 6 9 15 28 25 27 30 29 23 22 20 31 36 34 32 32 32 34 29 26 20 18 16 16 13 11 9 8 9 9 10
13 8 12 18 9 20 16 12 5 6 3 2 3 4 10 20 21 27 29 29 25 15 16 16 26 32 35 34 31 31 37 33 29 23 21 19 19 17 14 12 11 10 10 9
8 18 12 13 12 14 9 9 8 4 4 2 2 11 5 13 27 28 28 33 30 13 8 13 25 30 33 34 32 31 37 35 32 25 23 23 22 21 19 16 14 12 11 10
13 12 11 11 14 12 10 8 5 3 2 5 3 6 16 23 26 31 26 28 26 9 4 11 19 30 28 32 29 32 38 35 32 28 27 26 26 25 23 21 19 17 15 13
12 13 6 8 11 10 7 5 4 4 2 4 11 25 25 28 25 23 20 25 20 11 13 13 10 16 20 38 32 36 40 38 35 32 30 28 28 27 25 24 22 20 18 17
11 15 14 14 9 5 3 0 4 9 11 8 14 22 23 23 28 18 18 22 18 16 19 16 8 17 32 25 23 36 41 42 38 34 28 22 23 22 21 20 20 19 19 18
9 11 7 6 2 2 5 7 10 7 8 14 17 20 15 23 24 12 16 17 7 4 23 27 30 24 23 17 15 24 35 37 32 27 24 27 19 15 13 11 11 14 17 17
5 6 3 3 1 8 8 2 1 2 4 9 13 15 17 21 18 3 12 11 11 3 9 22 27 26 27 27 24 22 24 27 27 26 23 27 32 26 23 24 26 26 26 26
3 4 5 3 1 1 2 3 4 3 4 10 13 14 15 17 17 3 6 3 5 3 5 8 12 21 21 19 18 18 18 24 26 14 9 24 30 29 24 22 26 28 27 27
5 5 4 3 2 6 2 5 1 7 15 16 13 12 15 17 15 8 4 4 12 16 16 16 16 15 22 20 18 16 10 18 8 3 3 8 13 16 18 21 23 24 24 26
9 5 3 4 2 1 2 3 8 15 17 16 13 17 13 5 9 1 5 1 12 10 8 16 18 18 19 15 13 11 9 9 1 4 7 9 10 12 15 18 20 22 24 24
6 5 4 3 1 6 11 10 12 4 7 12 10 15 9 9 8 10 5 5 8 7 7 8 5 5 5 5 6 4 3 1 3 8 9 10 10 11 14 15 16 18 20 21
4 3 3 2 3 3 3 11 17 15 15 13 11 11 8 12 16 15 16 13 12 10 5 1 2 5 7 6 5 5 5 7 9 11 11 13 13 13 14 16 17 19 20 21
1 3 2 3 2 16 23 16 12 6 7 6 7 10 10 10 4 6 5 10 6 6 2 3 6 7 10 10 9 8 8 9 9 10 12 12 12 14 16 16 17 19 19 21
4 5 4 6 5 5 5 8 5 6 6 6 5 6 8 9 8 9 9 6 3 6 8 9 10 9 8 9 7 6 6 7 9 11 13 14 14 15 16 16 17 19 21 22
9 9 4 4 7 6 5 4 7 7 9 11 12 14 17 16 11 11 5 3 2 4 6 6 7 8 9 9 8 9 9 9 8 10 12 13 13 14 15 17 18 19 20 21
3 4 4 4 7 4 2 4 3 2 4 7 8 10 11 12 13 12 6 5 4 6 8 10 10 11 12 12 12 12 12 13 12 12 13 14 15 15 16 16 17 18 19 20

GFSCGP_700_spd_096.txt.gz
Wind_Speed
39 33 42 42 35 29 25 21 20 16 16 19 22 24 23 21 21 22 23 24 26 28 28 28 31 39 44 40 39 33 31 25 21 19 19 18 17 18 17 21 18 15 19 25
26 41 32 28 30 26 26 26 26 20 17 18 22 26 26 25 26 26 26 26 27 28 27 30 31 35 40 42 41 36 33 27 21 18 18 19 18 17 17 20 15 15 19 19
33 23 27 25 26 25 27 28 24 21 16 19 21 29 28 25 23 23 23 21 25 29 36 37 36 34 38 40 37 34 34 27 23 18 18 18 17 15 15 16 13 12 16 15
27 26 19 28 26 27 27 23 18 17 15 19 8 7 6 12 13 13 9 11 19 26 31 37 39 39 35 38 37 34 34 31 28 23 19 16 16 15 14 16 14 11 12 13
21 29 23 19 24 26 27 17 17 17 18 18 18 10 7 7 6 8 7 12 15 17 23 31 37 40 37 39 37 36 32 34 32 28 20 17 15 15 14 17 14 11 14 19
13 16 23 25 21 18 12 15 12 11 11 11 19 15 7 7 6 7 6 11 14 16 15 16 30 38 41 41 38 38 33 34 34 30 22 17 15 15 11 15 13 12 13 18
14 12 14 17 23 16 17 22 9 9 8 8 8 9 9 6 3 7 15 18 21 21 19 15 20 33 39 40 37 38 36 34 34 31 24 18 16 15 9 14 13 13 16 16
21 13 14 15 20 18 25 25 8 8 6 6 9 7 6 3 3 8 13 15 21 28 23 19 17 28 37 40 38 37 37 33 32 31 25 19 18 16 9 13 13 13 14 13
21 12 20 12 17 20 21 22 11 1 2 3 8 5 5 3 8 12 15 19 22 23 20 17 16 23 34 39 37 38 40 36 31 31 27 20 18 17 11 12 13 14 14 14
10 9 17 21 17 20 18 20 10 7 5 6 6 2 5 5 9 16 22 23 25 25 22 16 14 18 29 37 40 39 39 36 34 32 30 22 20 18 15 11 13 14 14 15
16 11 16 18 17 19 17 15 7 8 2 1 1 6 2 5 14 19 22 29 30 24 25 11 13 18 28 36 40 39 40 36 36 34 32 25 23 21 18 14 15 13 13 13
11 11 24 15 14 15 14 12 11 7 4 2 1 1 2 12 15 21 23 26 24 23 25 12 11 18 29 34 36 39 41 39 37 37 34 28 25 23 22 18 17 15 13 12
15 17 16 12 11 11 10 10 9 8 5 5 2 4 7 18 19 19 28 22 23 24 27 15 10 16 21 32 35 36 35 34 39 41 37 30 27 26 26 22 21 18 16 14
9 7 6 7 15 17 12 11 7 4 3 3 8 13 18 19 17 21 27 19 22 28 25 14 12 9 18 26 33 34 32 32 39 41 39 33 28 29 28 26 25 23 20 18
18 17 17 18 16 13 11 7 4 4 4 5 6 15 16 14 25 20 17 16 19 20 14 11 17 15 15 21 21 21 30 33 40 41 40 34 30 31 30 29 27 26 24 22
19 10 9 13 9 8 5 1 2 4 3 5 7 9 11 16 20 15 10 11 13 10 9 20 17 21 18 20 17 22 23 26 35 41 39 36 31 29 29 29 29 28 26 25
7 3 3 4 3 1 5 6 3 3 3 3 7 10 11 16 16 17 9 12 13 11 3 4 14 23 27 23 20 25 39 24 29 30 34 31 29 27 24 25 24 23 24 26
5 4 3 2 1 3 4 4 6 5 4 6 8 11 11 15 13 15 5 16 6 6 10 12 8 10 22 28 30 29 29 30 28 28 27 28 31 36 37 30 24 22 22 22
5 4 4 2 3 8 6 5 4 6 6 11 12 8 18 11 7 8 8 7 10 12 15 14 20 19 15 14 15 21 23 26 23 23 26 27 27 26 33 31 35 30 27 28
6 5 2 2 2 2 4 4 7 5 3 5 9 7 11 8 6 7 2 7 4 4 8 10 13 17 21 22 20 15 15 13 11 14 18 20 13 17 13 24 26 24 23 24
4 4 5 3 3 4 1 1 7 3 5 17 14 8 4 9 13 13 9 4 8 2 4 3 6 9 9 11 11 14 14 9 9 5 5 5 6 6 11 10 12 14 17 19
2 2 3 3 2 2 2 11 8 7 10 11 8 7 6 6 10 6 6 6 6 4 2 5 6 7 9 9 7 6 4 1 0 3 2 5 4 6 9 14 15 16 18 19
1 3 1 1 0 8 14 7 6 4 6 5 4 7 8 9 7 8 6 6 2 6 11 10 10 10 10 8 7 6 6 5 4 6 7 9 10 12 14 12 14 16 17 19
4 3 1 3 4 5 5 7 5 3 5 3 1 5 7 9 10 10 8 9 9 11 13 12 10 9 8 7 7 6 6 4 4 5 5 7 9 10 12 13 13 15 15 16
5 7 2 3 7 6 5 5 3 4 5 7 8 7 8 9 8 8 10 9 8 8 7 8 8 8 8 8 9 8 8 8 7 7 8 9 9 9 10 11 11 12 13 15
3 2 5 5 3 5 3 3 2 2 4 6 6 7 8 8 8 8 7 8 8 8 8 8 9 10 11 11 11 11 11 11 10 10 11 12 13 13 13 13 13 14 14 15

GFSCGP_700_spd_099.txt.gz
Wind_Speed
28 38 43 46 44 40 38 29 24 24 26 21 24 27 27 23 26 23 20 20 21 21 20 21 22 24 28 36 34 40 38 35 28 29 27 24 22 22 23 24 25 24 22 20
26 43 45 35 36 36 29 20 26 23 21 19 24 24 23 25 28 26 24 24 24 23 24 25 26 26 28 31 41 45 42 40 35 31 27 23 24 25 24 25 25 23 20 21
34 36 35 33 33 33 29 29 27 22 20 19 21 26 27 28 28 27 27 25 23 25 23 25 27 29 29 30 43 42 43 41 41 32 30 25 24 25 24 25 24 21 19 21
32 33 24 34 32 32 34 28 29 25 22 26 18 20 22 21 22 23 22 19 18 16 17 19 24 32 30 32 37 42 42 40 34 32 32 24 22 22 24 25 23 20 20 21
27 30 28 29 30 28 29 19 23 22 23 22 21 13 18 16 15 16 13 11 11 12 13 15 17 20 33 32 32 44 42 40 32 32 34 26 24 22 23 24 22 18 18 19
23 21 24 24 25 25 20 18 16 18 21 19 25 23 15 14 18 16 10 7 8 9 12 13 17 22 29 36 35 43 41 42 34 35 37 30 27 24 23 23 21 16 17 18
24 21 27 21 21 20 21 20 8 10 11 12 23 25 11 13 12 8 6 5 8 12 15 16 25 28 31 28 31 41 43 39 35 35 39 35 30 25 22 21 21 15 15 17
15 15 22 17 31 26 25 29 12 6 10 13 12 8 12 13 7 3 2 5 9 13 18 19 24 30 29 32 29 39 43 38 37 37 41 37 31 26 22 20 20 14 13 16
20 6 15 17 19 22 25 28 18 4 5 4 14 13 11 11 7 1 5 8 15 16 18 19 20 24 26 33 33 37 41 39 38 39 42 37 31 26 23 19 19 16 13 15
8 6 17 16 16 20 23 18 13 7 2 4 11 18 13 11 4 5 9 12 19 21 16 20 16 20 22 28 30 37 39 39 38 40 40 36 32 26 23 21 19 16 13 14
3 12 16 16 18 19 17 20 12 12 7 3 4 9 10 8 5 9 11 19 21 26 15 20 10 14 18 29 18 36 38 39 38 39 39 38 34 29 24 21 20 17 14 14
10 10 20 22 18 17 20 18 18 7 9 3 7 6 8 9 9 11 18 23 20 21 21 21 12 8 16 26 23 31 36 38 37 40 41 39 36 30 25 23 22 18 15 13
11 10 18 11 14 14 17 9 16 6 5 7 3 5 5 7 9 18 21 18 17 22 25 25 13 8 15 23 28 28 28 34 36 39 40 40 38 33 27 26 24 20 18 16
8 10 17 11 15 18 11 13 9 8 6 5 6 5 8 11 15 20 17 16 17 23 28 28 11 12 16 17 18 21 21 25 29 34 39 42 40 35 31 28 27 24 21 20
11 6 8 9 19 16 11 11 8 5 1 2 7 8 8 16 18 21 20 18 16 16 17 23 15 11 16 16 15 16 19 21 27 33 39 43 42 36 33 31 30 28 25 24
14 10 13 18 17 16 13 7 4 3 2 1 3 9 8 14 18 17 17 15 17 15 14 15 17 11 11 17 18 19 23 25 26 28 32 40 45 41 38 34 33 32 32 30
8 6 4 11 9 14 12 8 6 8 8 6 9 11 8 11 15 14 10 17 12 12 14 14 12 10 16 11 19 20 22 26 28 29 30 36 41 39 36 34 34 33 32 32
8 5 3 5 6 6 10 7 6 8 9 8 6 13 9 13 11 11 8 12 14 17 17 17 18 15 11 16 16 17 24 28 28 23 26 32 33 33 33 34 36 34 33 32
7 4 4 2 10 14 7 8 5 1 9 12 12 9 9 11 11 7 3 6 5 10 11 14 16 20 21 17 13 9 12 18 27 28 37 36 38 37 42 39 38 33 34 34
10 9 4 2 5 4 7 1 7 4 2 9 13 8 5 9 10 10 4 5 0 5 5 8 11 13 15 18 17 14 13 8 23 26 12 25 23 23 22 23 27 26 31 25
8 7 6 3 1 3 1 2 4 4 4 15 12 6 5 7 10 9 9 7 6 3 4 6 10 12 13 12 14 16 16 16 11 2 6 4 9 3 11 16 29 28 30 23
7 6 5 3 1 3 6 7 1 2 5 6 7 7 6 9 10 12 10 6 3 1 7 9 10 11 13 12 10 6 9 13 14 12 6 5 7 7 6 5 4 3 6 6
2 5 4 4 2 6 8 8 5 2 3 2 4 6 8 9 8 9 7 7 5 8 10 12 12 12 10 8 8 7 5 3 4 5 5 5 6 7 4 13 8 6 10 13
7 4 3 5 4 6 7 6 6 3 5 2 4 7 7 9 10 7 8 9 10 11 13 12 10 9 9 8 7 7 8 6 4 3 4 5 4 5 10 12 12 12 16 17
6 7 3 5 7 7 6 4 3 2 4 5 7 6 6 7 8 8 9 12 12 10 10 11 9 8 7 8 10 10 7 7 8 7 5 4 5 5 5 5 6 8 9 11
6 3 4 4 6 4 4 1 1 2 4 5 6 7 8 7 7 8 10 10 12 12 11 11 12 13 12 10 9 10 11 11 10 9 9 8 7 7 8 8 9 9 10 12

GFSCGP_700_spd_102.txt.gz
Wind_Speed
26 34 44 49 43 40 39 39 37 35 31 28 33 49 44 36 36 28 26 28 23 22 22 24 26 26 29 32 31 34 38 43 34 32 32 29 28 25 23 24 25 23 25 25
32 44 38 37 37 39 41 39 41 31 27 23 23 31 33 35 33 34 29 26 24 24 23 21 21 24 28 32 33 38 41 45 43 34 33 32 29 27 25 27 25 24 26 27
40 38 29 32 37 39 40 42 31 26 20 11 9 21 27 28 28 28 32 27 26 25 22 21 26 30 30 29 32 35 36 43 44 37 36 35 31 30 29 26 24 24 26 28
36 33 32 33 36 37 39 37 23 23 12 4 5 8 18 26 28 26 22 24 23 24 27 26 28 29 32 37 35 25 37 37 43 37 37 37 35 31 26 23 24 24 25 28
39 32 33 30 32 33 32 26 26 17 18 12 21 7 20 20 35 26 29 28 23 20 17 19 27 27 37 42 43 39 33 39 40 36 32 32 33 30 26 24 24 22 24 28
32 26 24 30 28 31 21 9 8 12 12 8 27 23 16 18 13 22 16 15 10 8 13 21 25 27 29 31 39 39 35 42 44 39 34 31 31 32 28 24 22 20 23 27
20 29 19 19 21 22 15 16 6 7 8 8 17 22 24 11 19 20 17 10 5 11 17 22 32 35 35 33 31 35 34 36 45 41 36 33 32 36 32 27 23 20 23 24
22 10 23 18 23 20 24 22 10 7 9 12 21 12 16 14 16 18 11 12 10 7 17 20 27 26 22 30 33 33 39 35 49 42 35 34 34 38 37 29 25 18 23 22
6 11 17 17 17 19 24 26 20 4 7 2 14 19 18 16 15 17 9 9 11 16 24 28 22 23 23 26 30 32 32 35 47 41 36 37 36 39 39 31 25 18 22 22
16 5 9 12 14 20 18 25 10 12 2 0 11 19 16 20 13 12 4 4 13 15 16 15 16 21 22 24 28 29 31 41 42 35 35 38 37 41 38 31 25 20 21 22
5 6 12 16 11 19 22 13 10 7 12 0 3 5 8 14 12 6 5 13 18 16 14 13 14 18 16 19 23 28 25 35 38 35 36 38 38 43 37 30 26 21 20 21
7 3 5 15 6 15 15 18 20 6 1 7 4 9 7 14 6 7 12 15 13 16 16 16 12 11 10 16 21 25 27 29 32 34 36 36 44 42 37 31 27 23 21 20
2 1 2 6 7 17 10 12 18 10 8 3 2 5 10 13 10 10 8 11 12 15 18 20 22 8 9 16 21 23 25 27 25 30 32 36 42 43 37 32 29 24 22 20
4 6 8 6 2 11 9 16 20 7 4 5 11 8 14 15 12 12 13 12 12 15 19 22 21 10 8 11 21 25 28 26 26 23 27 30 38 40 37 33 30 25 23 22
4 8 1 8 8 10 7 11 10 13 10 6 10 11 9 13 16 16 13 14 13 14 15 17 20 20 9 11 17 20 23 22 26 26 28 30 33 37 40 37 32 29 27 25
10 9 12 10 22 18 23 17 16 10 11 14 15 19 9 15 15 14 12 15 12 13 16 18 17 17 19 12 16 19 19 18 20 22 27 31 33 40 42 39 36 34 32 30
17 10 11 14 18 13 23 16 15 20 23 21 21 14 14 15 13 13 11 14 13 17 20 22 24 22 17 13 11 3 21 23 25 23 25 29 32 36 40 40 38 36 33 32
11 7 3 6 4 6 11 16 21 19 18 16 15 11 8 11 9 7 5 7 10 10 14 17 20 23 25 19 12 8 20 14 25 29 31 33 33 31 38 37 37 36 36 36
9 10 6 5 6 17 9 7 16 12 12 11 12 11 10 9 6 5 2 0 4 8 11 13 17 19 19 22 20 15 9 16 5 30 29 31 33 33 34 34 37 37 36 37
10 5 4 3 5 0 5 3 3 3 9 13 11 7 6 7 10 12 5 5 3 6 7 11 14 17 18 14 16 18 14 9 14 5 15 22 29 31 35 40 38 41 41 39
13 10 12 8 5 5 10 1 2 2 5 11 11 8 6 4 7 9 8 5 4 4 7 11 13 14 15 15 13 10 15 17 17 14 11 5 8 16 19 15 10 12 25 29
9 10 9 10 7 4 13 5 2 4 4 5 6 8 11 10 10 9 9 7 5 5 9 11 13 14 14 12 12 11 9 11 17 19 17 17 13 4 5 5 2 8 2 6
7 9 3 6 3 8 10 10 6 2 2 2 4 4 8 9 9 9 8 8 9 10 11 12 10 10 11 10 10 11 11 10 6 6 9 13 16 16 15 11 10 12 11 12
7 7 6 6 5 6 7 5 4 3 5 2 6 7 8 9 9 9 8 10 11 12 13 13 12 9 10 10 9 10 11 10 10 9 8 5 2 5 6 5 7 6 7 11
6 6 2 4 3 5 5 4 4 3 3 5 6 7 8 10 11 11 11 11 11 11 10 11 11 11 10 11 12 11 9 8 7 8 9 8 7 5 3 4 6 7 8 11
5 5 1 2 4 2 1 2 4 5 5 7 7 8 9 11 11 11 11 11 11 12 11 11 12 12 13 12 12 12 13 11 10 9 8 8 9 8 7 7 8 8 9 9

GFSCGP_700_spd_108.txt.gz
Wind_Speed
20 26 38 36 35 32 37 38 38 43 45 31 36 47 30 32 42 48 44 45 43 38 36 40 36 36 45 44 42 37 34 37 34 32 31 30 26 24 28 26 24 22 21 21
29 34 26 31 40 43 38 37 40 41 36 35 28 37 46 34 28 42 46 41 45 46 35 33 29 36 32 35 38 40 37 37 36 36 33 30 28 28 27 31 29 26 23 24
34 42 38 36 38 33 38 39 37 32 32 32 26 30 34 37 33 32 42 41 36 32 37 40 42 42 43 43 43 42 39 38 33 33 35 35 30 33 34 33 33 30 25 25
39 40 26 22 27 26 35 28 35 36 33 25 24 11 23 26 39 38 39 38 38 26 27 34 38 40 43 45 40 43 43 35 31 32 35 36 33 32 33 34 33 32 29 26
41 31 28 26 22 18 31 28 23 24 34 25 26 11 26 19 13 29 32 38 29 23 29 36 38 38 39 42 40 38 43 42 41 38 35 31 32 28 30 31 33 33 31 28
18 13 17 14 11 15 22 22 23 17 27 14 27 19 15 16 17 10 21 30 29 32 36 42 35 36 37 39 40 41 40 41 44 44 43 43 33 29 31 28 28 34 33 30
20 9 5 11 16 20 24 24 4 2 5 4 12 17 23 10 11 25 31 34 34 38 40 36 41 35 35 38 38 38 36 35 40 44 44 46 41 33 32 31 30 31 33 31
11 11 9 8 15 18 11 20 7 4 3 3 5 8 2 14 23 26 31 36 30 32 35 35 30 30 32 34 36 40 44 42 37 37 41 46 48 46 35 35 32 32 32 30
12 11 27 24 20 12 5 20 20 8 6 3 9 7 21 22 16 21 23 29 26 25 23 27 34 33 35 38 41 46 50 51 50 48 48 44 47 48 46 40 40 33 33 32
13 20 8 3 3 10 15 12 8 5 1 2 7 4 6 15 27 14 18 20 25 22 24 27 27 32 36 41 46 48 52 54 58 61 58 55 53 47 44 46 42 33 34 33
18 7 9 4 3 1 1 11 7 2 3 1 3 5 8 12 15 13 10 17 12 9 10 14 19 22 26 30 35 37 38 39 42 42 39 44 38 38 37 36 35 33 33 32
9 8 7 10 14 14 6 4 8 2 1 6 3 5 11 13 18 14 10 14 7 5 3 4 9 15 20 22 25 29 23 23 25 28 33 38 35 34 34 34 31 33 35 31
13 6 9 8 11 7 11 11 8 11 12 6 5 5 13 17 19 17 12 12 10 6 2 1 3 6 11 14 16 14 11 22 15 20 30 38 34 31 32 32 31 33 37 34
7 8 11 8 18 24 11 6 8 13 4 20 18 18 17 16 16 17 17 17 18 16 15 12 7 8 8 5 12 18 15 25 15 16 20 27 36 38 30 30 36 35 36 35
10 9 11 8 7 12 12 18 10 14 11 20 21 23 18 15 15 18 20 22 23 23 22 23 24 21 14 10 6 15 21 20 17 22 18 17 27 27 27 20 28 33 39 35
12 16 17 29 36 39 37 39 41 38 29 27 24 22 14 14 14 15 15 15 18 21 22 23 23 23 24 24 16 4 12 21 18 15 19 18 21 24 27 28 35 34 39 41
16 19 14 4 8 7 31 26 32 29 27 21 23 18 13 13 10 10 10 13 15 17 18 19 20 21 22 24 27 23 13 6 11 19 23 26 19 19 24 28 35 38 28 38
13 16 5 5 4 6 10 9 24 26 22 19 17 15 12 11 10 6 6 8 12 13 13 15 16 18 20 20 21 24 27 20 15 10 14 20 22 21 33 32 37 31 36 39
8 8 2 3 9 15 16 13 12 18 23 16 12 10 7 8 7 4 4 7 8 10 13 14 15 16 15 16 16 17 22 25 23 16 12 8 18 22 28 33 32 45 38 36
3 8 5 3 5 4 12 4 6 10 17 15 10 8 8 6 5 10 10 9 8 8 9 11 13 15 15 14 15 15 14 17 20 22 16 13 9 9 10 14 19 36 28 33
8 7 15 14 6 7 11 6 6 4 3 9 10 12 11 8 9 9 8 8 10 11 11 13 13 11 12 12 13 14 14 12 11 14 17 17 12 8 6 6 4 9 18 20
15 7 9 6 5 3 14 4 5 9 7 5 5 7 7 8 9 11 10 10 10 10 11 11 12 12 11 11 12 12 13 13 12 12 12 10 11 14 12 7 7 5 6 7
8 11 7 6 7 7 9 13 10 8 6 4 5 6 7 9 10 11 12 12 11 11 10 10 10 9 10 11 11 11 12 13 13 13 12 12 11 9 8 9 10 11 7 4
6 8 5 4 6 6 7 7 7 6 3 3 5 7 8 9 8 8 8 9 9 10 10 11 11 11 10 10 10 10 10 10 11 12 11 10 11 11 11 10 8 8 8 8
5 4 6 7 5 6 5 5 4 3 3 4 6 7 8 8 8 8 9 10 10 10 11 11 11 12 12 12 11 11 11 12 11 11 12 12 10 9 8 8 9 9 9 9
5 4 3 3 6 5 4 3 2 3 3 3 4 7 9 9 9 9 10 10 10 11 12 13 14 14 15 15 15 14 14 14 14 14 14 14 14 14 12 11 10 9 9 9

GFSCGP_700_spd_111.txt.gz
Wind_Speed
26 30 33 31 34 39 40 42 43 48 40 41 44 45 44 46 33 36 38 43 33 34 36 30 35 33 30 30 33 34 35 31 29 30 31 30 27 23 21 23 24 24 22 20
35 41 35 28 27 27 30 40 48 56 47 37 43 40 37 35 36 36 27 37 42 32 32 40 37 40 39 42 40 39 39 38 34 30 32 32 32 28 27 24 23 23 25 25
27 34 34 34 36 37 35 34 39 43 38 36 36 41 31 32 28 36 32 26 33 43 38 36 39 41 46 45 43 42 41 41 41 34 37 37 33 32 31 29 29 24 25 27
22 28 24 17 25 22 34 29 31 30 24 28 28 14 30 29 23 29 33 33 29 35 42 39 36 44 48 46 47 44 42 42 45 43 41 38 38 34 30 31 26 25 29 30
24 26 25 28 26 20 32 19 18 26 29 25 28 18 23 15 12 13 28 31 29 28 34 37 37 32 49 53 53 52 44 43 44 45 43 40 39 35 32 32 25 26 28 30
19 14 13 8 6 9 15 19 20 23 25 10 28 19 17 14 12 19 18 28 31 27 27 31 29 34 45 47 45 48 47 46 45 45 42 40 41 37 32 35 31 28 27 26
15 14 12 10 15 15 15 18 5 3 3 5 8 17 23 11 12 15 18 26 33 34 30 31 33 35 38 42 42 42 43 42 43 44 44 40 40 38 39 34 34 29 29 28
13 20 15 12 17 17 20 18 7 3 1 3 11 5 2 11 15 14 18 24 32 34 36 32 32 32 35 33 31 34 36 39 40 41 43 43 40 41 40 40 38 33 30 27
11 14 22 15 8 10 5 7 16 13 18 3 5 12 14 9 13 9 17 22 29 30 34 32 31 26 28 27 27 28 29 31 33 34 38 39 40 40 41 41 42 40 39 38
11 15 14 13 10 10 10 13 5 2 3 4 2 9 12 11 18 21 16 26 24 29 30 26 29 29 31 32 30 32 32 34 38 39 40 40 40 41 41 41 42 45 43 38
14 9 14 12 11 15 10 9 5 7 4 2 2 4 12 9 14 21 20 17 24 20 26 25 21 22 23 34 40 41 42 45 46 47 52 50 48 49 50 51 46 46 42 41
8 10 13 21 17 17 18 16 13 8 0 4 5 6 7 11 19 18 20 13 13 14 13 14 15 21 18 27 34 40 43 44 45 46 48 52 51 46 45 38 40 40 36 36
14 7 11 12 6 13 19 20 13 10 8 8 1 5 5 14 18 18 21 20 13 14 10 9 5 5 10 18 22 25 28 29 26 29 26 19 23 29 33 33 31 33 35 35
10 10 11 14 25 26 19 8 13 11 3 20 15 16 9 16 18 20 24 26 25 26 26 22 15 8 6 5 7 11 13 17 15 14 16 20 21 24 30 28 28 31 32 36
14 10 21 25 22 29 30 14 10 14 13 12 17 17 13 16 16 19 21 23 22 23 24 23 21 22 18 14 9 6 10 17 16 11 15 18 20 20 24 29 34 33 33 36
13 10 3 13 18 37 37 34 40 33 22 20 19 18 14 13 12 13 16 18 20 22 22 23 22 22 21 24 21 12 6 8 18 18 20 23 22 21 19 28 33 29 36 41
11 16 10 7 13 8 25 29 26 26 21 17 19 14 10 8 8 10 12 16 17 18 19 19 18 19 21 21 23 24 19 13 7 9 18 16 20 20 23 23 27 25 32 35
12 13 5 3 4 5 6 7 19 18 17 17 15 12 8 7 8 8 9 11 13 15 17 17 18 19 18 20 20 21 23 24 22 17 14 8 14 22 24 22 22 25 26 43
9 10 4 3 10 11 7 8 15 18 17 10 6 4 5 6 8 7 9 10 11 13 14 15 15 16 17 18 18 19 19 20 22 23 20 17 11 9 13 18 21 24 32 40
10 13 3 4 4 2 8 1 11 13 12 10 5 5 4 5 6 11 12 12 12 12 13 14 14 15 16 14 15 16 16 17 17 18 20 24 21 17 14 8 10 16 26 27
5 6 13 10 5 4 6 6 10 1 3 8 7 6 7 6 9 11 10 10 10 10 11 12 12 12 13 13 13 14 15 14 14 15 16 16 17 19 19 16 13 11 11 14
10 6 5 4 4 2 7 9 3 11 8 5 6 7 7 9 11 11 11 11 11 10 11 10 10 10 11 12 12 12 13 14 14 15 15 14 14 13 12 13 16 14 11 11
4 7 5 4 6 8 11 11 10 9 6 5 5 7 9 9 8 9 9 9 9 10 10 11 11 11 11 11 11 12 12 12 13 13 13 13 12 12 11 11 10 8 7 10
5 6 4 3 7 7 8 10 8 5 3 4 6 7 7 8 8 7 8 8 10 10 11 11 12 12 12 13 13 13 13 14 14 14 14 14 14 13 13 12 11 10 9 9
3 1 5 6 6 7 7 6 5 5 4 5 5 7 9 9 9 9 10 11 11 12 13 13 14 14 15 15 15 15 15 16 16 17 16 16 16 16 15 14 14 13 13 11
3 3 3 3 4 6 6 5 3 4 5 5 6 8 10 12 13 13 13 13 14 15 15 16 16 17 18 18 19 20 20 20 19 18 18 19 20 20 20 19 18 17 16 15

GFSCGP_700_spd_114.txt.gz
Wind_Speed
23 27 32 24 23 29 35 35 40 48 43 49 58 50 50 51 52 47 42 44 44 44 37 37 38 38 30 42 44 42 41 34 28 24 22 24 28 31 26 22 20 21 21 19
24 23 21 22 21 21 26 33 41 42 44 40 43 47 45 42 38 42 43 36 36 40 33 31 35 34 40 35 37 43 45 37 31 27 26 28 28 29 25 24 22 19 16 20
20 17 22 23 21 21 27 32 39 38 38 40 38 41 37 39 41 32 28 24 32 32 26 35 27 39 39 43 38 41 40 38 35 34 34 34 33 34 32 28 28 24 21 20
12 21 21 23 24 18 26 19 27 31 33 23 23 15 41 34 21 22 32 32 33 27 25 34 37 32 39 41 43 43 42 42 40 39 40 38 37 36 32 30 31 29 27 23
16 21 19 15 12 9 17 15 21 26 29 31 40 13 18 25 20 27 20 22 25 24 22 24 36 35 42 38 39 43 43 43 40 39 42 41 43 38 35 33 33 33 31 27
22 16 15 18 15 14 21 23 23 22 23 7 28 16 7 17 10 10 11 18 23 23 21 23 28 37 34 44 42 40 37 44 43 40 40 43 42 43 38 36 37 34 33 32
16 11 13 13 19 16 14 13 6 4 1 5 18 8 7 13 14 16 8 16 21 24 25 25 26 29 31 33 39 45 50 50 49 50 46 40 38 39 38 38 37 37 37 38
14 14 20 20 18 16 23 18 7 5 3 6 15 5 10 12 4 3 6 13 19 24 26 26 28 29 31 32 35 39 42 49 48 38 40 40 36 37 37 37 37 40 34 33
14 11 28 15 9 8 5 7 14 10 18 12 9 10 12 16 13 4 7 18 19 20 25 29 28 28 28 27 27 27 28 30 31 35 38 39 40 40 40 38 39 37 39 38
15 20 12 14 12 6 9 10 5 5 5 4 5 7 14 19 17 17 18 14 19 20 21 26 26 24 26 27 26 24 23 22 23 26 30 32 33 37 39 40 41 40 40 41
17 13 19 29 14 23 16 10 6 9 6 2 3 5 14 14 13 18 18 19 18 25 22 25 26 26 20 21 24 26 25 25 25 25 27 28 30 32 34 37 38 37 38 39
13 13 23 35 20 17 20 13 15 7 2 3 4 5 11 10 14 17 18 18 18 25 19 24 23 26 22 22 16 25 29 36 38 36 34 39 40 41 43 45 45 44 46 47
13 8 15 16 7 12 17 23 20 16 14 5 4 4 5 10 18 20 20 21 24 23 25 17 10 7 5 10 13 20 25 31 34 38 45 45 46 48 46 47 46 40 43 46
12 15 9 6 7 17 14 8 1 6 5 12 14 13 7 13 17 20 23 25 27 29 31 16 14 8 3 4 7 16 17 21 22 25 27 26 23 19 25 26 30 34 32 35
14 4 7 16 20 22 25 24 20 17 13 11 14 16 11 13 15 19 19 22 23 26 28 28 26 26 22 13 8 4 3 5 12 12 16 17 20 19 27 19 25 25 29 31
12 6 14 9 9 15 33 29 25 25 21 22 18 15 11 12 12 13 18 21 23 25 25 24 24 22 22 25 24 20 14 9 1 12 15 16 16 22 17 20 25 24 28 30
9 14 17 3 3 8 9 24 23 25 20 17 18 15 12 12 12 15 17 18 20 22 22 21 21 21 21 20 21 22 25 25 21 17 10 9 15 16 23 24 22 27 25 31
13 15 10 5 1 4 5 8 15 19 18 17 14 13 12 11 13 13 12 14 16 17 18 19 19 20 22 22 20 20 20 21 23 23 20 14 9 6 12 23 22 22 23 22
13 18 9 2 5 6 3 4 8 14 13 8 8 8 7 9 10 10 13 14 15 17 18 17 17 18 19 17 18 19 19 18 17 17 19 22 22 17 12 7 11 15 19 19
14 13 5 6 2 2 1 6 7 9 10 9 8 7 7 7 7 9 10 12 12 13 14 15 15 16 16 15 15 16 16 16 14 16 18 19 19 20 20 17 14 11 8 9
3 6 9 9 4 3 3 6 5 2 2 6 7 7 8 7 9 11 11 11 10 11 12 12 12 12 12 13 14 14 14 13 14 15 16 16 16 16 15 16 18 17 15 15
8 4 6 4 4 2 1 9 2 8 7 4 5 6 7 9 11 11 11 11 12 12 13 13 13 12 13 14 14 14 14 15 15 16 16 15 14 14 14 14 13 11 11 12
4 6 4 2 4 8 8 5 11 8 5 5 6 6 7 7 7 8 9 10 10 11 11 11 11 11 12 12 13 15 15 16 16 16 16 16 16 16 15 15 14 13 13 13
4 5 2 3 7 7 10 10 9 6 4 5 5 5 6 8 8 9 9 10 11 12 12 13 13 15 15 15 15 16 17 17 18 18 18 18 18 17 16 16 15 15 15 14
2 2 2 5 7 7 7 7 7 5 3 3 3 5 6 8 9 10 11 12 13 14 15 16 16 16 17 17 18 18 18 19 19 20 20 20 20 20 20 20 19 18 17 17
2 4 3 3 7 5 6 5 5 3 1 1 3 6 9 11 12 13 13 14 14 15 16 17 18 19 19 20 20 21 21 21 21 21 21 21 22 22 22 22 22 21 21 20

GFSCGP_700_spd_117.txt.gz
Wind_Speed
15 19 13 15 16 19 22 27 36 40 38 41 41 36 49 47 48 45 46 49 46 41 43 53 54 46 49 52 49 58 59 57 50 42 36 33 27 29 31 28 22 21 21 21
19 9 11 14 17 19 20 26 32 38 30 26 41 47 44 40 37 39 37 32 32 35 36 41 50 46 47 54 50 55 60 57 52 44 38 35 28 28 29 27 26 22 21 22
17 7 13 16 18 20 18 21 21 26 30 31 34 43 36 34 29 32 23 26 28 32 34 43 38 42 43 53 50 49 56 57 55 47 41 36 34 33 32 30 27 24 22 20
6 11 18 16 17 14 16 14 22 26 23 20 22 19 37 27 25 27 25 22 28 25 27 30 32 36 41 47 47 41 49 52 52 49 43 41 37 34 30 30 29 27 28 26
10 19 19 13 13 16 21 22 26 28 27 23 24 9 9 23 28 26 24 25 24 23 26 27 28 31 32 38 35 38 37 48 51 49 46 44 40 38 34 32 34 34 33 31
15 6 9 9 12 14 18 21 27 13 11 6 8 6 5 27 28 25 18 12 13 19 21 23 26 27 31 34 29 34 37 38 44 45 44 42 38 36 36 34 36 37 35 33
16 6 9 8 17 16 10 16 6 4 1 6 17 4 6 25 26 20 17 7 5 12 19 21 23 23 24 26 29 27 31 36 41 41 41 41 40 38 40 36 40 38 38 37
8 4 6 18 14 14 17 10 5 5 6 12 14 6 9 25 21 16 12 5 4 7 13 16 19 22 21 23 25 23 30 31 31 34 37 39 37 35 33 35 36 40 41 37
7 9 17 13 10 17 7 7 9 9 10 5 2 10 10 29 22 20 14 6 11 12 12 15 16 17 20 22 25 28 33 34 36 37 40 41 43 42 39 38 35 36 37 38
7 15 9 7 22 12 10 14 9 5 4 5 3 5 14 27 26 24 22 16 9 19 19 17 18 17 16 18 21 22 23 26 29 34 37 38 34 33 36 35 37 36 36 35
11 9 15 23 12 14 16 16 12 9 7 4 3 4 15 19 22 21 21 19 14 21 18 24 19 18 18 18 19 20 20 22 24 25 27 27 27 32 33 36 40 42 39 38
7 9 12 26 12 7 11 15 19 9 3 4 4 4 12 14 19 19 17 19 18 17 22 22 20 17 16 18 18 22 22 21 21 20 21 20 20 22 23 26 30 33 36 39
11 5 12 11 6 20 15 15 21 21 19 8 3 4 7 10 15 19 16 17 19 19 20 24 19 15 11 11 15 16 20 18 22 27 28 31 32 32 34 33 34 36 38 42
13 8 7 1 6 12 19 12 5 12 4 10 10 9 5 10 15 19 19 18 18 21 22 26 22 13 12 9 10 7 8 14 18 24 31 33 35 39 41 43 44 42 43 44
9 4 7 17 16 15 15 23 13 12 12 8 14 13 9 12 14 19 20 21 22 22 22 28 28 24 22 19 12 4 6 1 7 18 16 14 16 20 25 27 32 26 28 32
6 2 10 15 3 3 22 15 18 22 22 22 16 13 10 11 13 13 17 21 23 23 24 23 23 24 26 27 25 19 16 12 10 3 9 12 14 13 16 21 20 28 26 24
5 8 11 4 4 1 4 16 16 16 16 16 14 11 10 11 11 14 18 20 20 21 21 21 23 24 23 22 23 22 23 23 20 17 13 6 11 18 21 19 21 23 23 28
6 9 6 6 7 2 3 3 9 13 13 11 10 10 10 11 13 13 14 17 19 19 19 20 22 23 23 22 21 22 20 18 17 17 18 16 11 6 3 9 15 20 24 25
3 7 6 4 3 8 5 6 5 6 9 9 9 9 8 8 9 10 12 15 15 16 17 18 19 20 20 19 20 20 18 17 16 15 15 15 16 17 15 11 6 9 14 15
5 5 6 3 3 4 6 8 10 6 5 7 8 7 7 7 6 8 10 12 13 14 15 16 17 18 16 15 16 16 15 14 12 12 13 14 14 13 12 12 14 13 10 8
3 4 3 2 1 2 3 11 8 2 3 5 6 6 6 6 7 9 11 12 13 14 15 15 14 13 14 15 15 13 14 12 12 14 14 14 14 14 14 13 12 10 10 11
2 1 2 1 1 2 1 13 7 8 8 5 7 7 6 6 8 9 9 11 11 11 12 12 13 12 13 14 14 13 13 13 12 12 13 13 13 14 15 15 15 15 14 13
1 2 1 2 3 3 6 8 14 10 7 6 7 7 7 7 8 8 9 11 11 12 12 12 13 13 14 14 15 16 16 16 16 15 15 15 15 14 14 14 14 14 15 15
2 2 1 2 3 7 8 10 10 8 7 6 6 6 7 8 8 9 10 11 12 12 13 14 15 15 15 16 16 16 16 16 16 17 17 18 18 18 18 18 18 17 16 16
4 4 2 4 5 6 6 6 6 6 5 4 4 4 5 7 9 10 11 12 13 13 14 15 15 15 16 16 16 16 16 17 17 18 18 19 18 18 18 19 19 20 20 20
5 5 4 4 6 4 6 6 4 2 2 2 3 5 6 7 9 10 10 11 11 12 13 13 14 14 15 15 17 18 19 20 21 22 22 22 22 22 23 22 21 21 21 20

GFSCGP_700_spd_120.txt.gz
Wind_Speed
11 10 9 8 9 12 18 19 25 23 25 24 18 29 33 35 31 27 29 32 34 36 36 35 37 43 42 56 59 54 51 50 57 62 58 49 43 37 37 35 35 31 27 25
10 10 8 10 14 15 15 20 23 24 14 28 29 32 22 19 19 19 24 26 28 32 31 29 29 34 44 50 61 58 55 52 53 62 57 49 42 38 36 33 36 33 29 28
10 8 11 15 15 15 16 19 21 25 27 23 21 23 12 16 18 26 34 34 35 41 36 32 34 38 50 42 56 56 57 55 53 60 58 53 46 40 40 33 36 34 29 27
8 8 12 17 14 14 17 12 17 21 23 18 21 18 30 16 22 37 41 37 37 33 32 35 33 32 40 39 53 51 57 58 52 54 62 57 48 43 40 33 33 33 31 28
5 11 12 11 8 10 11 16 21 24 24 21 14 11 9 21 37 43 44 37 33 26 22 23 28 29 28 36 48 45 51 54 50 52 60 59 51 43 41 36 36 34 32 31
8 11 6 4 7 10 15 19 22 15 11 8 5 8 4 24 36 41 41 36 31 25 17 19 23 24 26 25 30 36 40 47 46 52 57 62 71 43 42 38 37 35 33 34
11 11 7 4 11 10 9 14 8 5 8 7 13 7 4 23 35 33 35 35 29 23 15 13 13 16 20 21 21 33 39 41 46 50 57 63 54 44 42 38 34 33 35 35
5 5 9 6 5 6 14 7 7 6 9 17 10 4 4 21 30 29 28 28 24 19 13 9 10 11 14 18 15 24 30 36 40 47 52 48 42 45 42 36 36 39 36 37
3 6 7 16 9 8 5 9 7 13 21 11 2 3 6 24 27 26 27 24 20 16 3 3 7 8 14 18 16 19 21 31 30 30 38 44 39 38 37 37 38 41 41 42
3 10 2 2 11 9 11 10 10 6 5 5 4 4 12 27 28 26 26 25 20 15 5 8 15 11 11 17 19 18 18 16 25 26 32 26 33 35 37 36 37 39 38 41
3 4 5 12 3 11 11 11 10 12 12 5 6 6 12 20 24 26 21 22 21 17 14 17 13 13 11 12 15 22 16 17 18 19 20 22 26 31 37 39 36 37 39 41
3 4 9 10 9 2 10 12 15 12 7 7 4 3 10 15 20 22 18 16 19 18 15 19 18 15 11 11 9 12 15 17 17 23 27 29 32 33 27 33 36 38 39 38
4 2 7 2 3 6 8 16 18 21 22 11 6 4 6 10 16 19 16 15 17 17 15 15 18 20 16 13 11 9 10 13 18 21 24 25 24 24 21 22 23 26 29 33
6 4 6 5 9 7 10 15 13 10 7 6 6 6 3 9 14 16 16 16 19 20 19 20 20 19 15 15 14 13 10 9 10 11 15 18 21 22 24 27 29 29 31 32
4 6 9 10 12 5 11 10 16 7 6 3 10 7 7 10 13 15 16 18 18 21 21 24 26 25 24 20 15 8 5 6 15 18 18 19 22 24 28 30 31 33 32 34
3 2 6 15 11 8 8 4 9 14 17 17 10 9 8 9 11 12 14 18 21 22 23 21 21 23 24 29 28 24 18 9 8 3 3 11 18 21 19 21 22 22 23 27
6 3 4 4 6 7 4 5 8 9 10 6 3 7 8 9 11 12 16 17 17 19 20 20 23 23 23 23 23 20 23 22 18 16 13 9 3 12 19 17 14 19 20 23
7 5 4 6 6 6 6 8 7 7 7 7 6 4 6 7 11 12 14 15 15 16 16 17 19 21 22 22 21 23 21 17 15 14 14 15 13 10 5 6 12 17 19 19
9 6 4 5 4 5 7 10 9 7 2 4 5 5 4 6 7 10 10 12 13 14 15 15 17 17 18 17 17 18 16 15 13 12 12 12 12 12 12 12 11 9 7 8
9 5 5 5 7 6 8 12 11 7 3 4 4 5 4 4 6 7 10 12 13 14 14 14 15 16 16 15 16 16 15 14 12 12 13 13 13 12 11 10 9 9 9 10
7 8 11 9 9 3 10 14 14 5 6 4 4 5 6 6 5 6 8 10 10 11 12 13 13 13 13 14 13 13 13 11 11 11 11 11 11 12 12 13 13 12 12 13
7 6 5 5 7 4 8 15 12 7 11 7 6 6 6 4 4 5 7 8 9 11 11 12 13 13 13 14 14 14 13 13 13 12 12 12 12 13 13 14 15 15 15 15
5 5 3 6 6 6 9 16 13 15 11 9 8 7 6 5 6 6 6 7 7 8 8 9 10 10 11 12 12 13 13 13 14 15 15 15 14 14 14 14 14 15 16 16
7 6 5 4 4 8 12 15 15 13 10 9 7 5 5 5 4 4 4 5 6 7 8 9 10 12 12 12 12 12 13 13 14 14 14 15 16 17 18 18 17 17 17 18
8 5 5 6 8 9 10 10 10 10 9 8 5 3 2 2 3 4 4 5 6 8 9 10 10 10 11 12 14 15 15 16 17 18 18 19 19 19 19 19 20 20 20 20
9 6 7 6 7 8 10 10 9 7 6 5 3 1 0 1 2 3 5 6 7 8 8 9 10 12 14 16 17 18 19 20 21 22 22 22 22 23 24 25 26 24 24 24

GFSCGP_700_spd_123.txt.gz
Wind_Speed
13 8 11 11 11 12 15 19 21 18 20 17 20 29 26 24 11 11 16 22 28 31 35 35 32 26 29 32 35 37 39 40 50 50 53 62 62 55 46 43 41 36 33 30
10 11 10 13 11 13 16 20 22 20 13 23 24 27 22 13 11 11 20 27 42 45 44 40 38 34 28 32 36 37 46 53 54 47 49 60 64 57 48 46 44 40 37 35
14 10 16 15 12 15 17 20 23 22 22 23 18 25 7 8 7 16 22 35 44 44 43 39 32 35 43 45 50 53 54 58 54 44 41 54 63 60 55 51 49 42 38 41
14 15 14 10 13 14 19 15 17 23 21 22 19 22 24 6 10 23 36 43 43 42 37 33 29 31 33 39 44 44 46 52 49 55 49 54 61 66 63 53 46 42 41 42
6 8 9 12 12 11 12 14 20 23 25 25 25 17 2 9 18 35 41 43 43 42 37 30 29 30 29 33 37 37 37 48 54 51 54 54 56 65 62 52 48 45 41 41
19 15 12 10 11 10 14 17 23 21 18 16 22 8 7 13 24 38 40 41 42 42 40 32 31 31 30 32 35 33 33 44 51 51 52 57 54 56 60 56 52 45 40 40
9 15 15 12 8 8 8 14 12 10 7 15 11 14 3 14 24 36 38 39 39 39 37 35 30 32 29 25 28 29 28 31 46 54 56 50 52 53 56 59 52 45 38 37
8 7 15 10 9 8 12 12 10 8 11 20 31 7 3 11 24 29 33 34 36 34 31 30 31 25 15 17 21 25 25 25 37 48 55 54 50 55 60 68 27 44 40 39
5 7 9 9 10 9 1 12 9 16 28 22 11 2 3 14 23 30 31 30 33 31 30 26 18 8 4 8 15 21 25 23 32 40 48 49 50 52 65 43 53 39 32 35
5 7 8 9 6 11 13 10 9 9 5 9 6 5 6 23 28 32 31 28 29 29 27 22 11 7 6 5 16 21 22 33 24 39 40 38 44 50 61 39 43 35 40 36
6 5 4 8 8 6 8 9 9 15 17 6 9 4 10 19 25 30 28 26 26 26 26 23 16 17 12 11 19 14 13 20 27 21 20 32 28 34 36 32 38 33 40 42
8 6 9 7 6 4 3 5 11 10 11 14 9 3 9 15 21 25 23 22 21 22 23 21 18 18 17 10 9 8 13 16 19 15 13 15 17 22 12 31 33 42 44 43
7 6 7 13 8 6 2 8 12 16 20 23 13 3 5 11 16 20 19 18 20 22 21 19 19 19 17 16 13 15 10 5 13 16 15 14 18 18 15 13 18 23 27 30
7 9 10 9 2 5 7 10 12 11 12 4 2 4 2 8 12 14 14 15 19 22 23 23 24 25 20 18 15 17 18 9 2 4 4 7 7 7 13 18 17 21 23 25
6 8 11 12 10 5 5 11 7 5 6 4 9 5 2 6 9 10 11 14 19 22 24 25 26 26 28 27 22 16 7 6 3 1 7 7 11 10 12 18 20 22 24 25
11 6 5 12 15 11 15 10 1 1 7 11 6 3 2 5 8 8 8 11 15 18 20 24 29 28 26 30 30 28 22 19 14 8 2 9 12 13 15 19 22 23 23 24
9 4 4 6 5 6 11 15 10 6 4 1 4 3 4 5 6 7 8 10 13 16 18 20 22 22 24 24 27 27 25 24 22 20 19 15 5 4 8 9 11 10 12 18
11 9 5 7 4 5 5 9 8 7 4 4 4 4 4 3 6 6 6 8 11 13 15 18 19 20 22 23 24 25 24 23 22 21 19 15 16 15 14 13 8 7 11 15
14 11 5 7 10 4 7 14 12 8 7 7 7 5 4 3 3 6 6 7 9 11 13 15 17 19 21 20 20 20 19 19 17 16 15 14 15 15 15 13 11 10 9 9
14 12 10 7 8 4 8 15 17 12 9 9 8 7 6 5 8 3 5 6 9 10 12 13 14 16 15 15 16 17 17 17 16 16 15 14 14 13 12 11 10 11 11 11
13 12 17 15 13 3 8 11 15 10 7 13 9 7 6 4 4 3 3 5 7 8 9 10 11 10 10 11 11 11 12 11 11 11 11 12 12 12 12 13 13 13 13 13
13 10 10 11 11 13 10 10 14 11 10 12 10 8 6 5 3 3 3 5 6 7 7 9 9 9 10 11 12 12 13 13 13 13 12 13 14 14 15 16 16 17 17 16
9 10 7 7 7 9 9 15 23 12 12 13 10 8 6 5 4 4 3 3 4 5 7 8 9 11 12 13 14 14 14 14 14 15 15 15 15 15 16 16 17 18 19 19
13 11 9 6 10 11 10 14 17 15 15 13 11 8 6 5 3 1 0 1 3 5 6 7 8 9 10 11 12 13 14 16 17 18 18 18 18 19 20 21 21 21 22 23
10 8 7 12 11 9 10 12 13 14 14 12 10 8 6 3 2 1 1 2 4 5 6 8 9 11 13 15 16 18 19 19 20 21 22 22 23 23 24 24 23 24 25 25
13 11 8 7 6 11 10 11 12 12 12 11 9 6 5 3 2 1 1 3 3 5 7 9 12 14 16 18 19 20 21 22 23 23 24 24 24 25 26 28 30 29 29 31

GFSCGP_700_spd_126.txt.gz
Wind_Speed
14 11 13 13 10 13 13 16 19 19 17 21 20 25 28 23 19 19 27 34 31 38 50 46 42 42 40 40 43 50 48 45 42 41 46 49 51 43 55 59 49 44 40 35
12 20 14 16 19 18 15 18 20 19 17 18 21 30 26 23 13 19 27 34 33 43 53 52 51 42 37 38 45 47 53 53 57 48 46 39 48 47 49 61 52 49 44 40
21 16 11 20 18 16 17 20 20 23 19 20 23 28 18 6 9 19 22 29 37 48 57 52 49 43 34 32 36 46 52 51 55 56 55 49 53 49 43 57 57 54 49 45
21 21 22 20 19 15 21 16 17 18 20 22 17 23 25 18 12 20 27 34 44 54 50 46 42 42 33 28 32 36 41 59 53 51 59 58 60 52 42 51 59 57 54 47
14 10 14 15 17 15 20 15 17 21 24 25 24 20 5 5 15 25 30 39 46 46 46 43 42 36 31 31 30 33 36 48 58 53 54 65 52 55 48 45 58 59 54 50
26 19 15 15 15 16 14 18 19 24 28 19 25 5 4 9 17 24 34 39 43 43 43 41 43 39 34 31 32 29 32 40 50 47 49 58 60 60 50 49 56 63 58 56
18 22 22 21 16 15 14 14 12 7 8 11 1 21 1 4 16 26 34 41 39 40 41 43 44 41 35 31 30 32 38 37 45 39 44 52 64 60 56 51 59 65 61 60
15 10 17 18 17 9 10 11 11 8 9 16 28 7 6 5 16 25 31 36 35 36 37 39 40 39 36 34 32 33 37 32 35 39 41 47 64 68 50 78 53 76 64 58
11 10 5 11 9 10 2 9 8 14 22 18 13 2 5 14 17 24 31 32 33 34 35 36 36 36 30 28 26 23 21 28 24 30 29 42 60 58 53 48 32 64 58 57
6 11 13 13 12 18 18 10 9 7 4 8 11 3 4 11 21 26 29 31 32 31 31 30 32 31 20 20 10 3 9 20 24 26 30 37 54 41 48 58 66 26 44 51
6 10 5 11 15 15 13 16 7 6 10 4 9 2 6 16 18 23 26 27 29 30 29 29 28 28 22 14 17 17 21 19 14 21 25 35 37 43 35 40 36 55 37 41
8 7 13 17 7 10 6 5 3 5 6 9 12 4 12 13 15 19 22 22 23 25 26 27 29 25 20 18 22 22 38 24 33 19 10 12 18 20 23 31 33 43 40 47
8 7 11 12 12 6 8 4 5 9 10 14 8 4 12 10 13 15 17 18 19 20 22 24 26 26 23 22 25 25 18 30 35 20 15 11 16 12 9 13 10 16 25 43
16 15 20 18 9 3 5 6 6 7 7 10 16 8 9 7 9 11 13 15 19 23 25 25 23 29 30 28 23 30 25 26 14 10 14 12 12 12 14 12 16 12 17 20
16 14 17 27 20 10 8 11 8 8 9 9 5 8 6 5 6 8 9 12 15 17 21 27 29 29 32 33 33 32 31 26 23 17 16 11 5 11 16 13 8 9 15 18
16 12 16 26 18 19 17 20 15 8 6 5 5 5 6 4 4 6 7 8 10 13 17 20 22 25 25 30 32 32 35 34 32 30 28 25 20 13 15 12 10 10 11 12
16 13 10 15 10 11 15 25 18 15 5 3 8 13 8 2 2 2 5 7 8 10 13 15 18 22 23 22 23 27 32 30 28 28 28 27 27 24 22 17 9 3 2 2
16 17 15 12 9 5 7 7 9 9 7 9 12 9 8 4 2 2 3 5 7 9 12 14 16 19 20 22 23 25 24 24 24 24 23 22 21 20 19 16 16 16 13 7
18 15 10 8 14 9 10 9 10 11 11 11 11 10 9 7 5 1 3 3 4 6 9 12 14 16 18 18 20 21 21 22 21 19 19 19 20 19 17 15 15 14 13 12
17 21 16 10 13 7 8 10 18 16 12 16 14 11 10 8 6 2 0 1 3 5 8 11 12 14 14 16 18 18 18 17 15 16 17 18 17 15 15 14 14 14 13 13
20 17 22 20 14 7 12 12 11 8 5 13 13 10 9 9 6 6 2 1 1 4 7 10 11 13 15 17 18 18 19 18 19 19 18 18 18 19 19 18 17 16 15 14
20 14 15 17 17 15 11 8 9 11 11 12 16 12 7 9 8 5 4 3 1 2 4 6 8 10 11 12 13 14 16 18 19 20 21 21 21 20 20 21 22 21 21 21
7 8 6 10 9 7 9 10 14 19 16 15 15 13 11 9 7 6 5 3 2 2 4 5 6 7 9 11 12 14 15 16 18 20 21 21 22 23 23 23 22 23 23 23
18 21 18 16 18 19 16 15 17 18 20 16 15 13 10 8 8 6 4 2 2 4 5 7 9 11 13 14 16 18 20 20 21 21 21 22 22 23 23 25 25 25 26 26
13 13 15 14 15 14 15 12 12 13 15 15 14 12 11 8 6 4 2 2 2 4 5 7 9 11 14 16 18 20 21 22 23 24 25 25 26 27 29 29 29 29 30 31
13 11 10 9 8 9 8 9 9 10 11 12 11 10 8 5 4 3 2 2 2 3 6 8 11 13 15 17 18 19 20 21 23 24 26 27 28 29 30 31 33 34 34 33

GFSCGP_700_spd_129.txt.gz
Wind_Speed
12 18 16 8 11 25 26 23 22 25 19 16 23 20 19 22 28 32 35 32 39 36 35 40 47 53 55 61 51 49 50 53 52 49 49 49 57 48 50 44 45 51 50 43
14 23 11 16 16 22 23 22 27 19 14 20 25 27 25 24 27 34 35 33 34 34 41 47 53 60 63 58 52 49 50 51 56 57 50 50 53 60 51 51 47 50 51 47
23 22 15 16 18 21 23 19 23 26 22 22 25 25 17 20 24 25 31 32 33 40 47 53 59 59 60 53 46 43 46 48 52 57 56 53 50 58 64 51 49 51 48 50
20 19 24 25 29 23 23 16 22 22 19 13 4 12 13 18 25 28 26 27 34 41 48 55 55 52 48 46 37 34 37 40 42 53 58 55 55 52 61 60 54 47 52 52
25 10 10 24 26 22 23 22 24 26 27 27 25 17 14 17 18 24 28 35 37 45 49 48 48 46 43 41 34 29 30 37 40 43 52 58 57 55 54 65 54 46 49 55
32 23 23 19 18 19 17 21 22 21 26 9 27 21 12 18 22 21 23 27 37 41 42 43 42 42 42 36 29 26 26 37 43 43 49 52 59 58 51 61 57 54 53 52
17 23 19 26 25 24 19 15 7 4 3 5 4 11 4 17 18 16 26 32 35 36 40 41 40 41 41 35 35 39 36 29 36 42 44 47 49 61 59 59 66 58 56 56
17 18 13 18 24 24 16 18 10 4 1 6 22 5 6 17 16 19 27 29 31 33 37 40 39 39 40 38 43 43 41 31 27 24 35 41 44 48 57 55 64 70 56 66
10 12 7 1 18 17 4 9 14 14 18 9 5 4 11 14 15 20 24 25 27 32 35 39 38 37 36 34 39 41 34 32 23 20 24 29 40 42 45 48 61 62 59 38
18 19 22 17 13 15 21 16 10 6 2 4 4 7 8 5 10 19 21 23 26 28 30 34 36 36 34 32 33 28 24 25 20 19 22 17 23 31 33 34 50 51 60 5
16 19 27 13 19 19 17 24 18 13 10 3 2 4 6 9 15 16 18 21 24 26 27 29 30 32 30 28 21 22 20 9 8 14 18 15 14 12 18 26 36 46 50 44
18 18 18 20 17 11 9 11 18 8 3 5 6 7 18 16 11 13 14 16 20 25 25 24 27 30 29 26 25 23 24 28 23 15 15 15 11 8 20 24 42 26 25 41
15 10 9 12 8 15 7 7 10 10 11 16 4 6 13 12 10 11 10 11 14 20 23 24 22 26 31 31 30 30 28 29 31 34 29 36 16 10 14 24 18 34 28 32
21 21 15 8 9 14 14 8 8 9 6 10 16 18 20 14 9 9 7 8 12 14 18 21 24 28 32 34 34 35 33 31 26 22 30 28 27 17 13 8 9 31 9 24
26 29 30 27 24 22 28 21 17 15 17 11 16 15 14 9 7 6 6 7 9 11 13 16 19 22 25 28 31 31 31 37 33 28 22 23 26 24 19 15 19 13 7 10
30 29 21 25 21 22 23 23 23 22 21 16 17 18 12 8 6 3 4 5 6 8 11 13 14 16 19 21 26 27 29 33 31 33 34 30 24 17 19 14 10 8 9 8
25 22 16 13 10 18 13 21 21 26 21 16 15 13 15 10 5 4 3 5 6 6 7 9 12 15 18 21 23 25 26 28 27 29 30 31 31 32 30 21 8 7 7 4
20 24 16 12 14 4 6 6 10 15 17 21 20 17 15 9 7 5 3 3 4 5 6 8 10 13 16 18 20 22 23 24 24 26 27 28 30 29 27 23 21 17 16 15
21 17 10 6 9 17 20 10 4 12 14 20 15 14 12 10 9 6 4 2 2 3 4 7 8 11 14 16 19 21 21 21 21 24 25 26 26 24 21 20 20 18 17 16
30 22 18 10 6 3 5 11 14 17 15 16 19 19 13 13 11 7 6 3 3 3 3 6 8 10 12 13 15 16 17 18 21 23 25 24 23 21 19 18 16 15 14 13
29 25 27 23 14 9 10 10 13 10 6 13 15 17 14 14 10 8 8 5 4 4 3 5 8 9 11 13 15 16 18 19 22 22 21 20 20 19 18 18 16 15 13 12
24 20 20 25 11 12 19 10 11 12 14 16 15 15 15 13 11 10 8 7 4 4 4 6 8 9 11 13 15 16 16 18 19 21 22 21 19 19 20 19 19 18 18 18
14 18 14 15 11 10 5 8 13 17 18 16 15 15 17 14 14 11 9 7 5 3 2 5 7 9 12 14 15 16 18 20 20 21 20 21 21 20 19 18 18 18 19 20
16 17 15 15 15 14 16 14 15 16 18 18 17 16 18 17 13 10 10 7 4 2 1 3 5 7 10 12 14 16 19 20 20 20 21 21 21 21 21 20 19 19 19 20
19 19 19 20 22 18 16 15 15 13 13 14 15 15 17 15 12 10 7 6 4 2 2 4 6 9 11 12 14 16 17 18 19 20 21 21 22 23 26 27 27 28 28 26
21 21 16 13 10 11 11 13 9 7 7 8 10 12 12 11 9 6 5 4 2 2 3 5 8 9 10 12 14 16 18 20 22 24 26 28 30 31 33 34 36 39 39 40

GFSCGP_700_spd_132.txt.gz
Wind_Speed
21 22 17 11 11 14 16 20 25 26 23 28 16 21 18 25 30 32 34 33 36 38 40 43 42 43 48 54 58 66 69 65 60 56 54 55 54 54 53 59 57 52 48 48
24 28 23 12 12 17 18 22 26 30 26 19 20 22 31 37 38 31 24 32 36 38 39 41 45 49 52 59 66 68 66 61 56 53 55 53 57 56 50 55 58 56 51 49
25 28 21 19 19 20 20 22 28 27 25 22 24 29 33 37 30 21 31 32 33 37 40 44 49 52 58 62 61 53 48 46 44 42 50 51 56 58 59 51 55 62 57 52
19 11 10 11 22 20 30 29 26 23 25 16 9 9 15 18 24 24 24 29 34 37 40 43 49 53 53 51 45 43 39 37 38 40 39 46 53 59 61 57 52 56 64 57
24 22 15 15 13 13 24 21 18 20 25 29 19 14 15 29 24 23 24 29 30 30 36 43 45 47 44 42 40 35 35 37 39 37 41 41 50 55 60 61 54 51 59 65
28 20 24 21 19 18 17 20 23 26 24 9 10 16 6 14 20 20 21 22 27 34 38 39 41 41 38 37 38 40 39 37 39 37 42 47 48 51 56 60 58 55 55 63
17 18 18 18 19 21 21 19 6 4 2 5 3 11 15 15 17 19 20 24 29 34 36 38 39 40 37 36 37 37 39 36 30 24 32 44 52 51 51 53 53 57 55 58
17 20 3 11 15 20 22 15 6 5 3 4 24 9 10 16 14 16 20 25 28 31 32 35 38 41 40 38 32 40 45 45 41 30 20 26 38 48 47 50 46 51 52 58
10 15 3 6 12 12 15 20 18 26 26 8 6 11 15 16 15 15 20 23 25 27 31 33 35 38 37 35 35 39 44 45 46 38 23 15 21 33 43 46 44 45 51 52
24 26 23 26 21 18 19 16 9 5 1 4 4 6 10 12 11 16 19 19 21 23 27 29 31 33 35 33 34 33 37 41 41 33 24 13 12 22 41 35 34 34 39 49
16 18 25 25 25 19 18 16 19 17 12 3 2 4 12 12 16 21 18 16 17 20 24 27 28 28 30 31 31 31 30 35 34 26 19 6 9 10 11 17 22 26 25 30
22 14 25 29 29 22 9 13 14 16 7 8 4 8 17 14 17 17 16 13 13 17 21 22 25 27 26 30 33 33 33 33 34 27 13 11 11 15 12 9 14 15 19 23
28 20 12 13 3 2 8 8 5 8 12 11 2 7 18 20 26 23 13 9 10 12 16 18 18 22 26 28 32 34 38 36 31 29 14 8 14 19 23 27 14 13 13 14
26 22 19 14 15 21 28 24 20 14 10 9 14 19 24 25 19 15 12 8 9 10 14 17 17 18 20 24 27 28 33 35 38 34 33 29 29 34 30 28 16 10 11 9
20 25 25 26 28 32 33 35 30 26 27 14 21 26 22 21 21 15 10 8 8 10 13 14 14 15 16 18 22 24 27 29 34 35 36 34 32 35 38 28 21 19 14 11
28 32 31 40 37 32 31 26 27 30 25 25 23 23 18 14 14 13 8 6 8 10 11 12 12 13 13 15 16 18 23 25 27 29 32 36 40 38 37 34 28 20 19 14
24 26 26 27 22 17 20 22 22 26 25 23 24 19 16 14 16 12 9 7 7 8 8 9 10 11 13 14 17 18 20 22 23 25 26 28 30 28 32 33 29 26 23 15
22 21 24 18 15 5 17 9 9 10 14 19 22 19 18 17 14 11 10 8 6 6 8 8 8 10 12 14 15 18 18 19 20 22 21 23 25 24 25 25 26 27 28 27
30 22 19 13 12 14 23 27 17 10 12 13 17 17 14 13 15 13 12 10 7 6 7 8 6 7 10 11 13 16 16 17 18 19 20 21 22 21 23 24 25 26 23 21
26 31 25 7 4 3 5 8 10 9 14 12 16 20 16 17 17 15 14 11 9 5 5 6 6 5 7 8 11 13 14 15 15 17 20 21 20 20 21 22 21 21 19 16
25 26 33 24 11 15 16 15 11 9 12 12 11 14 17 16 17 17 15 13 10 4 4 4 3 4 5 7 9 11 13 14 15 16 17 18 19 21 23 23 21 19 18 18
19 22 26 25 12 14 22 18 17 13 13 15 14 15 16 15 15 18 17 13 8 4 4 3 2 2 5 8 10 12 12 12 14 15 16 17 18 19 19 20 21 21 20 19
25 23 19 16 13 15 10 7 7 11 17 16 17 17 17 17 16 18 17 11 6 5 4 3 1 2 5 7 8 10 12 14 15 18 19 20 21 20 20 20 21 21 23 23
24 21 22 19 20 19 15 18 15 14 15 16 16 18 17 19 21 21 17 10 7 4 4 3 1 3 5 7 8 9 11 14 17 18 19 19 20 21 21 22 22 21 20 21
15 13 20 22 22 19 19 15 13 13 14 14 14 14 15 18 20 19 12 7 5 4 5 3 1 3 4 6 9 10 12 14 16 18 19 22 24 25 25 25 26 26 26 27
20 21 20 19 14 14 15 12 11 12 11 9 8 8 10 13 13 10 8 7 5 6 5 3 1 2 4 7 9 12 15 18 21 23 24 23 24 25 28 30 33 34 35 36

GFSCGP_700_spd_135.txt.gz
Wind_Speed
25 23 21 15 16 15 17 21 24 19 17 23 20 23 25 24 25 28 33 34 38 36 33 37 39 42 45 47 51 55 57 60 64 68 69 67 68 66 59 58 54 55 52 59
22 25 13 10 14 18 17 20 24 18 16 24 27 28 29 30 33 36 38 37 33 32 34 36 39 41 45 47 51 54 57 61 61 57 53 52 48 50 53 58 57 57 55 55
24 21 19 21 21 24 25 23 22 23 27 22 25 32 29 30 29 29 27 24 32 31 32 37 40 40 44 49 51 55 52 46 45 46 45 44 42 41 41 51 58 58 59 54
16 12 10 10 13 12 20 21 23 27 21 16 10 11 31 34 25 20 25 30 31 30 34 36 37 42 44 48 52 48 42 37 39 43 47 47 45 42 42 43 51 58 60 57
17 21 22 23 22 14 23 17 17 20 19 22 22 11 18 14 15 24 29 29 27 27 29 34 38 40 45 47 47 39 36 32 36 39 43 47 45 47 49 44 46 54 60 60
19 13 14 16 12 10 18 19 19 21 21 10 26 19 11 9 10 17 20 21 22 24 30 33 35 39 41 40 37 35 32 33 37 41 43 40 40 43 42 47 42 49 53 59
18 17 16 9 13 14 15 23 7 4 1 5 9 8 18 13 15 18 20 20 22 27 31 31 33 36 38 38 36 36 36 36 40 43 42 34 32 33 37 37 43 45 47 54
11 10 7 5 9 15 13 16 14 6 3 4 9 7 9 20 19 18 19 18 24 28 28 27 31 36 38 40 40 37 38 40 42 45 29 21 20 25 32 34 34 43 40 44
6 8 3 6 18 21 9 11 18 21 25 7 9 16 21 25 14 18 17 22 26 27 24 25 29 34 34 36 38 39 40 39 44 46 36 23 17 19 24 23 22 27 29 34
16 22 16 15 23 18 13 26 15 9 3 4 4 8 13 9 14 18 20 23 22 24 21 22 26 32 32 33 36 42 43 41 46 48 40 32 20 22 23 18 11 12 18 24
17 21 25 25 21 27 26 15 9 12 11 3 2 7 14 11 13 15 20 20 25 21 19 19 23 27 30 30 33 38 40 43 44 47 45 37 28 24 24 12 5 8 7 15
15 21 33 28 30 18 20 17 11 9 7 10 5 13 22 13 19 22 22 21 17 18 17 17 20 22 25 25 29 34 37 41 45 44 45 41 29 19 13 3 6 8 9 5
19 13 18 19 6 7 1 11 11 15 11 7 5 6 11 20 25 25 16 16 17 17 16 17 19 19 21 23 25 29 31 36 39 42 42 44 33 16 14 6 8 17 21 16
16 20 20 20 21 23 24 23 25 25 15 23 23 32 28 27 26 21 17 17 17 15 13 15 18 17 20 20 23 27 28 30 32 34 41 39 40 29 10 15 18 30 27 28
21 24 24 27 27 29 31 34 37 32 34 22 33 29 30 26 23 16 12 15 14 13 12 12 13 14 16 17 19 23 25 26 30 31 34 37 41 37 34 33 25 29 30 26
21 26 24 32 31 35 43 37 27 29 32 34 35 33 27 22 15 12 13 14 14 14 12 10 11 12 13 13 15 19 22 26 26 28 31 33 35 36 42 40 35 34 33 27
19 20 22 29 25 23 23 23 20 20 24 26 28 24 23 19 16 14 13 14 15 13 11 10 9 11 10 10 11 15 19 22 24 26 27 29 31 31 33 33 28 35 34 33
27 26 23 23 22 12 20 18 17 15 11 10 17 23 19 15 13 12 13 14 13 11 11 10 9 8 8 8 10 12 16 18 19 21 23 24 25 26 27 25 27 29 29 27
30 32 24 15 19 24 25 22 21 21 20 14 15 14 14 15 14 14 14 14 13 11 12 10 8 6 5 7 8 10 12 15 16 15 17 18 19 20 20 20 22 22 22 22
23 26 34 20 9 3 4 5 5 6 16 9 10 13 15 15 15 14 16 17 15 14 13 10 8 6 4 6 8 9 10 12 13 13 15 17 18 19 20 22 22 23 23 24
11 19 29 23 16 17 23 18 19 10 11 10 7 10 13 14 14 14 15 16 16 15 12 10 7 6 4 6 8 9 11 12 12 14 16 17 19 20 22 23 24 24 25 26
15 11 13 16 13 13 22 22 22 19 15 12 11 15 17 18 19 14 15 15 16 14 11 9 6 6 4 6 7 8 9 9 10 12 15 16 17 18 19 21 22 23 24 25
25 26 16 16 14 19 15 13 11 11 11 19 21 18 19 19 19 15 14 13 13 14 12 7 5 6 6 6 7 7 6 7 9 12 14 15 17 18 19 21 21 21 22 22
24 23 25 28 30 29 24 19 16 21 18 20 21 19 18 18 18 17 15 14 13 13 12 7 5 7 7 6 5 5 6 7 9 11 14 16 19 21 22 23 23 23 23 24
25 26 20 25 23 20 20 20 19 17 17 18 18 15 13 13 14 14 12 12 12 12 9 4 5 7 6 4 3 5 8 10 13 15 17 18 20 22 23 24 24 25 25 25
28 25 17 18 15 16 15 15 14 14 14 14 12 9 8 7 6 6 10 12 11 11 8 5 7 6 4 3 4 7 9 12 15 17 19 20 22 23 25 27 29 29 30 29